Time,TemperatureF,DewpointF,PressureIn,WindDirection,WindDirectionDegrees,WindSpeedMPH,WindSpeedGustMPH,Humidity,HourlyPrecipIn,Conditions,Clouds,dailyrainin,SoftwareType,DateUTC
2013-04-24 00:00:00,26.7,19.2,30.38,SW,222,0.0,0.0,73,0.00,,---,0.00,VWS V14.01,2013-04-24 06:00:00,
2013-04-24 00:01:00,26.7,19.2,30.38,SW,223,0.0,0.0,73,0.00,,---,0.00,VWS V14.01,2013-04-24 06:01:00,
2013-04-24 00:02:00,26.7,19.2,30.38,SW,223,0.0,0.0,73,0.00,,---,0.00,VWS V14.01,2013-04-24 06:02:00,
2013-04-24 00:03:00,26.6,19.1,30.38,SW,223,0.0,0.0,73,0.00,,---,0.00,VWS V14.01,2013-04-24 06:03:00,
2013-04-24 00:04:00,26.7,19.2,30.38,SW,223,0.0,0.0,73,0.00,,---,0.00,VWS V14.01,2013-04-24 06:04:00,
2013-04-24 00:05:00,26.6,19.1,30.38,SW,223,0.0,0.0,73,0.00,,---,0.00,VWS V14.01,2013-04-24 06:05:00,
2013-04-24 00:06:00,26.6,19.1,30.38,SW,223,0.0,0.0,73,0.00,,---,0.00,VWS V14.01,2013-04-24 06:06:00,
2013-04-24 00:07:00,26.6,19.1,30.38,SW,223,0.0,0.0,73,0.00,,---,0.00,VWS V14.01,2013-04-24 06:07:00,
2013-04-24 00:08:00,26.6,19.1,30.38,SW,223,0.0,0.0,73,0.00,,---,0.00,VWS V14.01,2013-04-24 06:08:00,
2013-04-24 00:09:00,26.6,19.1,30.38,SW,223,0.0,0.0,73,0.00,,---,0.00,VWS V14.01,2013-04-24 06:09:00,
2013-04-24 00:10:00,26.6,19.4,30.38,SW,223,0.0,0.0,74,0.00,,---,0.00,VWS V14.01,2013-04-24 06:10:00,
2013-04-24 00:11:00,26.5,19.4,30.38,SW,223,0.0,0.0,74,0.00,,---,0.00,VWS V14.01,2013-04-24 06:11:00,
2013-04-24 00:12:00,26.5,19.4,30.38,SW,223,0.0,0.0,74,0.00,,---,0.00,VWS V14.01,2013-04-24 06:12:00,
2013-04-24 00:13:00,26.5,19.4,30.38,SW,223,0.0,0.0,74,0.00,,---,0.00,VWS V14.01,2013-04-24 06:13:00,
2013-04-24 00:14:00,26.5,19.4,30.38,SW,223,0.0,0.0,74,0.00,,---,0.00,VWS V14.01,2013-04-24 06:14:00,
2013-04-24 00:15:00,26.5,19.4,30.38,SW,222,0.0,0.0,74,0.00,,---,0.00,VWS V14.01,2013-04-24 06:15:00,
2013-04-24 00:16:00,26.5,19.4,30.38,SW,223,0.0,0.0,74,0.00,,---,0.00,VWS V14.01,2013-04-24 06:16:00,
2013-04-24 00:17:00,26.5,19.4,30.38,SW,222,0.0,0.0,74,0.00,,---,0.00,VWS V14.01,2013-04-24 06:17:00,
2013-04-24 00:18:00,26.5,19.4,30.37,SW,223,0.0,0.0,74,0.00,,---,0.00,VWS V14.01,2013-04-24 06:18:00,
2013-04-24 00:19:00,26.4,19.2,30.38,SW,223,0.0,0.0,74,0.00,,---,0.00,VWS V14.01,2013-04-24 06:19:00,
2013-04-24 00:20:00,26.4,19.2,30.37,SW,222,0.0,0.0,74,0.00,,---,0.00,VWS V14.01,2013-04-24 06:20:00,
2013-04-24 00:21:00,26.3,19.5,30.37,SW,222,0.0,0.0,75,0.00,,---,0.00,VWS V14.01,2013-04-24 06:21:00,
2013-04-24 00:22:00,26.3,19.5,30.37,SW,223,0.0,0.0,75,0.00,,---,0.00,VWS V14.01,2013-04-24 06:22:00,
2013-04-24 00:23:00,26.3,19.5,30.37,SW,222,0.0,0.0,75,0.00,,---,0.00,VWS V14.01,2013-04-24 06:23:00,
2013-04-24 00:24:00,26.3,19.5,30.37,SW,222,0.0,0.0,75,0.00,,---,0.00,VWS V14.01,2013-04-24 06:24:00,
2013-04-24 00:25:00,26.3,19.5,30.37,SW,223,0.0,0.0,75,0.00,,---,0.00,VWS V14.01,2013-04-24 06:25:00,
2013-04-24 00:26:00,26.2,19.4,30.37,SW,223,0.0,0.0,75,0.00,,---,0.00,VWS V14.01,2013-04-24 06:26:00,
2013-04-24 00:27:00,26.3,19.5,30.37,SW,222,0.0,0.0,75,0.00,,---,0.00,VWS V14.01,2013-04-24 06:27:00,
2013-04-24 00:28:00,26.2,19.4,30.37,SW,222,0.0,0.0,75,0.00,,---,0.00,VWS V14.01,2013-04-24 06:28:00,
2013-04-24 00:29:00,26.2,19.4,30.37,SW,222,0.0,0.0,75,0.00,,---,0.00,VWS V14.01,2013-04-24 06:29:00,
2013-04-24 00:30:00,26.2,19.4,30.37,SW,222,0.0,0.0,75,0.00,,---,0.00,VWS V14.01,2013-04-24 06:30:00,
2013-04-24 00:31:00,26.2,19.4,30.37,SW,222,0.0,0.0,75,0.00,,---,0.00,VWS V14.01,2013-04-24 06:31:00,
2013-04-24 00:32:00,26.2,19.4,30.37,SW,223,0.0,0.0,75,0.00,,---,0.00,VWS V14.01,2013-04-24 06:32:00,
2013-04-24 00:33:00,26.2,19.7,30.37,SW,223,0.0,0.0,76,0.00,,---,0.00,VWS V14.01,2013-04-24 06:33:00,
2013-04-24 00:34:00,26.1,19.3,30.37,SW,222,0.0,0.0,75,0.00,,---,0.00,VWS V14.01,2013-04-24 06:34:00,
2013-04-24 00:35:00,26.1,19.6,30.37,SW,222,0.0,0.0,76,0.00,,---,0.00,VWS V14.01,2013-04-24 06:35:00,
2013-04-24 00:36:00,26.1,19.6,30.37,SW,223,0.0,0.0,76,0.00,,---,0.00,VWS V14.01,2013-04-24 06:36:00,
2013-04-24 00:37:00,26.1,19.6,30.37,SW,223,0.0,0.0,76,0.00,,---,0.00,VWS V14.01,2013-04-24 06:37:00,
2013-04-24 00:38:00,26.1,19.6,30.37,SW,223,0.0,0.0,76,0.00,,---,0.00,VWS V14.01,2013-04-24 06:38:00,
2013-04-24 00:39:00,26.0,19.5,30.37,SW,223,0.0,0.0,76,0.00,,---,0.00,VWS V14.01,2013-04-24 06:39:00,
2013-04-24 00:40:00,26.0,19.5,30.37,SW,223,0.0,0.0,76,0.00,,---,0.00,VWS V14.01,2013-04-24 06:40:00,
2013-04-24 00:41:00,26.0,19.5,30.37,SW,223,0.0,0.0,76,0.00,,---,0.00,VWS V14.01,2013-04-24 06:41:00,
2013-04-24 00:42:00,26.0,19.5,30.37,SW,222,0.0,0.0,76,0.00,,---,0.00,VWS V14.01,2013-04-24 06:42:00,
2013-04-24 00:43:00,25.9,19.4,30.37,SW,223,0.0,0.0,76,0.00,,---,0.00,VWS V14.01,2013-04-24 06:43:00,
2013-04-24 00:44:00,25.9,19.4,30.37,SW,223,0.0,0.0,76,0.00,,---,0.00,VWS V14.01,2013-04-24 06:44:00,
2013-04-24 00:45:00,25.9,19.4,30.37,SW,223,0.0,0.0,76,0.00,,---,0.00,VWS V14.01,2013-04-24 06:45:00,
2013-04-24 00:46:00,25.9,19.4,30.37,SW,223,0.0,0.0,76,0.00,,---,0.00,VWS V14.01,2013-04-24 06:46:00,
2013-04-24 00:47:00,25.9,19.7,30.37,SW,223,0.0,0.0,77,0.00,,---,0.00,VWS V14.01,2013-04-24 06:47:00,
2013-04-24 00:48:00,25.8,19.6,30.37,SW,222,0.0,0.0,77,0.00,,---,0.00,VWS V14.01,2013-04-24 06:48:00,
2013-04-24 00:49:00,25.8,19.6,30.37,SW,222,0.0,0.0,77,0.00,,---,0.00,VWS V14.01,2013-04-24 06:49:00,
2013-04-24 00:50:00,25.8,19.6,30.37,SW,223,0.0,0.0,77,0.00,,---,0.00,VWS V14.01,2013-04-24 06:50:00,
2013-04-24 00:51:00,25.8,19.6,30.37,SW,222,0.0,0.0,77,0.00,,---,0.00,VWS V14.01,2013-04-24 06:51:00,
2013-04-24 00:52:00,25.8,19.6,30.37,SW,223,0.0,0.0,77,0.00,,---,0.00,VWS V14.01,2013-04-24 06:52:00,
2013-04-24 00:53:00,25.8,19.6,30.37,SW,223,0.0,0.0,77,0.00,,---,0.00,VWS V14.01,2013-04-24 06:53:00,
2013-04-24 00:54:00,25.8,19.6,30.37,SW,222,0.0,0.0,77,0.00,,---,0.00,VWS V14.01,2013-04-24 06:54:00,
2013-04-24 00:55:00,25.8,19.6,30.37,SW,222,1.0,5.0,77,0.00,,---,0.00,VWS V14.01,2013-04-24 06:55:00,
2013-04-24 00:56:00,25.8,19.6,30.37,SW,222,0.0,0.0,77,0.00,,---,0.00,VWS V14.01,2013-04-24 06:56:00,
2013-04-24 00:57:00,25.8,19.6,30.37,SW,222,0.0,0.0,77,0.00,,---,0.00,VWS V14.01,2013-04-24 06:57:00,
2013-04-24 00:58:00,25.9,19.7,30.37,SW,222,0.0,0.0,77,0.00,,---,0.00,VWS V14.01,2013-04-24 06:58:00,
2013-04-24 00:59:00,25.9,19.7,30.37,SW,222,0.0,0.0,77,0.00,,---,0.00,VWS V14.01,2013-04-24 06:59:00,
2013-04-24 01:00:00,25.9,19.7,30.37,SW,222,0.0,0.0,77,0.00,,---,0.00,VWS V14.01,2013-04-24 07:00:00,
2013-04-24 01:01:00,25.9,19.7,30.37,SW,222,0.0,0.0,77,0.00,,---,0.00,VWS V14.01,2013-04-24 07:01:00,
2013-04-24 01:02:00,25.9,19.7,30.37,SW,222,0.0,0.0,77,0.00,,---,0.00,VWS V14.01,2013-04-24 07:02:00,
2013-04-24 01:03:00,25.9,19.7,30.38,SW,226,0.0,2.0,77,0.00,,---,0.00,VWS V14.01,2013-04-24 07:03:00,
2013-04-24 01:04:00,25.9,19.7,30.38,SW,226,0.0,0.0,77,0.00,,---,0.00,VWS V14.01,2013-04-24 07:04:00,
2013-04-24 01:05:00,25.9,19.7,30.38,SW,226,0.0,0.0,77,0.00,,---,0.00,VWS V14.01,2013-04-24 07:05:00,
2013-04-24 01:06:00,25.9,19.7,30.37,SW,226,0.0,0.0,77,0.00,,---,0.00,VWS V14.01,2013-04-24 07:06:00,
2013-04-24 01:07:00,25.9,19.7,30.37,SW,226,0.0,0.0,77,0.00,,---,0.00,VWS V14.01,2013-04-24 07:07:00,
2013-04-24 01:08:00,25.9,19.7,30.37,SW,226,0.0,0.0,77,0.00,,---,0.00,VWS V14.01,2013-04-24 07:08:00,
2013-04-24 01:09:00,25.9,19.7,30.37,SW,226,0.0,0.0,77,0.00,,---,0.00,VWS V14.01,2013-04-24 07:09:00,
2013-04-24 01:10:00,25.9,19.7,30.37,SW,223,0.0,7.0,77,0.00,,---,0.00,VWS V14.01,2013-04-24 07:10:00,
2013-04-24 01:11:00,25.9,19.7,30.37,SW,223,0.0,0.0,77,0.00,,---,0.00,VWS V14.01,2013-04-24 07:11:00,
2013-04-24 01:12:00,26.0,19.8,30.37,SW,223,0.0,0.0,77,0.00,,---,0.00,VWS V14.01,2013-04-24 07:12:00,
2013-04-24 01:13:00,26.0,19.8,30.37,SW,223,2.0,2.0,77,0.00,,---,0.00,VWS V14.01,2013-04-24 07:13:00,
2013-04-24 01:14:00,26.0,19.8,30.37,SW,223,0.0,2.0,77,0.00,,---,0.00,VWS V14.01,2013-04-24 07:14:00,
2013-04-24 01:15:00,26.0,19.8,30.37,SW,223,1.0,2.0,77,0.00,,---,0.00,VWS V14.01,2013-04-24 07:15:00,
2013-04-24 01:16:00,26.1,19.6,30.37,SW,223,0.0,0.0,76,0.00,,---,0.00,VWS V14.01,2013-04-24 07:16:00,
2013-04-24 01:17:00,26.1,19.6,30.37,SW,223,0.0,0.0,76,0.00,,---,0.00,VWS V14.01,2013-04-24 07:17:00,
2013-04-24 01:18:00,26.1,19.6,30.37,SW,223,2.0,2.0,76,0.00,,---,0.00,VWS V14.01,2013-04-24 07:18:00,
2013-04-24 01:19:00,26.2,19.7,30.37,SW,223,1.0,2.0,76,0.00,,---,0.00,VWS V14.01,2013-04-24 07:19:00,
2013-04-24 01:20:00,26.2,19.7,30.37,SW,223,0.0,1.0,76,0.00,,---,0.00,VWS V14.01,2013-04-24 07:20:00,
2013-04-24 01:21:00,26.2,19.7,30.37,SW,223,0.0,0.0,76,0.00,,---,0.00,VWS V14.01,2013-04-24 07:21:00,
2013-04-24 01:22:00,26.2,19.7,30.37,SW,223,0.0,0.0,76,0.00,,---,0.00,VWS V14.01,2013-04-24 07:22:00,
2013-04-24 01:23:00,26.2,19.7,30.37,SW,223,0.0,0.0,76,0.00,,---,0.00,VWS V14.01,2013-04-24 07:23:00,
2013-04-24 01:24:00,26.3,19.8,30.37,SW,223,0.0,0.0,76,0.00,,---,0.00,VWS V14.01,2013-04-24 07:24:00,
2013-04-24 01:25:00,26.2,19.7,30.37,SW,223,0.0,0.0,76,0.00,,---,0.00,VWS V14.01,2013-04-24 07:25:00,
2013-04-24 01:26:00,26.2,19.7,30.37,SW,223,0.0,0.0,76,0.00,,---,0.00,VWS V14.01,2013-04-24 07:26:00,
2013-04-24 01:27:00,26.2,19.7,30.37,SW,223,0.0,0.0,76,0.00,,---,0.00,VWS V14.01,2013-04-24 07:27:00,
2013-04-24 01:28:00,26.2,19.7,30.37,SW,223,0.0,0.0,76,0.00,,---,0.00,VWS V14.01,2013-04-24 07:28:00,
2013-04-24 01:29:00,26.2,19.7,30.37,SW,223,0.0,0.0,76,0.00,,---,0.00,VWS V14.01,2013-04-24 07:29:00,
2013-04-24 01:30:00,26.2,19.7,30.37,SW,223,0.0,0.0,76,0.00,,---,0.00,VWS V14.01,2013-04-24 07:30:00,
2013-04-24 01:31:00,26.2,19.7,30.37,SW,223,0.0,0.0,76,0.00,,---,0.00,VWS V14.01,2013-04-24 07:31:00,
2013-04-24 01:32:00,26.2,19.7,30.37,SW,223,0.0,0.0,76,0.00,,---,0.00,VWS V14.01,2013-04-24 07:32:00,
2013-04-24 01:33:00,26.2,19.7,30.37,SW,223,0.0,0.0,76,0.00,,---,0.00,VWS V14.01,2013-04-24 07:33:00,
2013-04-24 01:34:00,26.2,19.7,30.37,SW,223,0.0,0.0,76,0.00,,---,0.00,VWS V14.01,2013-04-24 07:34:00,
2013-04-24 01:35:00,26.1,19.6,30.36,SW,223,0.0,0.0,76,0.00,,---,0.00,VWS V14.01,2013-04-24 07:35:00,
2013-04-24 01:36:00,26.1,19.6,30.36,SW,223,0.0,0.0,76,0.00,,---,0.00,VWS V14.01,2013-04-24 07:36:00,
2013-04-24 01:37:00,26.1,19.6,30.36,SW,223,0.0,0.0,76,0.00,,---,0.00,VWS V14.01,2013-04-24 07:37:00,
2013-04-24 01:38:00,26.1,19.6,30.36,SW,223,0.0,0.0,76,0.00,,---,0.00,VWS V14.01,2013-04-24 07:38:00,
2013-04-24 01:39:00,26.1,19.6,30.36,SW,223,0.0,0.0,76,0.00,,---,0.00,VWS V14.01,2013-04-24 07:39:00,
2013-04-24 01:40:00,26.0,19.5,30.36,SW,223,0.0,0.0,76,0.00,,---,0.00,VWS V14.01,2013-04-24 07:40:00,
2013-04-24 01:41:00,26.0,19.5,30.36,SW,223,0.0,0.0,76,0.00,,---,0.00,VWS V14.01,2013-04-24 07:41:00,
2013-04-24 01:42:00,26.0,19.5,30.36,SW,223,0.0,0.0,76,0.00,,---,0.00,VWS V14.01,2013-04-24 07:42:00,
2013-04-24 01:43:00,26.0,19.5,30.36,SW,223,0.0,0.0,76,0.00,,---,0.00,VWS V14.01,2013-04-24 07:43:00,
2013-04-24 01:44:00,25.9,19.4,30.36,SW,223,0.0,0.0,76,0.00,,---,0.00,VWS V14.01,2013-04-24 07:44:00,
2013-04-24 01:45:00,25.9,19.4,30.36,SW,223,0.0,0.0,76,0.00,,---,0.00,VWS V14.01,2013-04-24 07:45:00,
2013-04-24 01:46:00,25.9,19.4,30.36,SW,223,0.0,0.0,76,0.00,,---,0.00,VWS V14.01,2013-04-24 07:46:00,
2013-04-24 01:47:00,25.9,19.4,30.36,SW,223,0.0,0.0,76,0.00,,---,0.00,VWS V14.01,2013-04-24 07:47:00,
2013-04-24 01:48:00,25.8,19.3,30.36,SW,223,0.0,0.0,76,0.00,,---,0.00,VWS V14.01,2013-04-24 07:48:00,
2013-04-24 01:49:00,25.8,19.3,30.36,SW,223,0.0,0.0,76,0.00,,---,0.00,VWS V14.01,2013-04-24 07:49:00,
2013-04-24 01:50:00,25.8,19.3,30.36,SW,223,0.0,0.0,76,0.00,,---,0.00,VWS V14.01,2013-04-24 07:50:00,
2013-04-24 01:51:00,25.8,19.3,30.36,SW,223,0.0,0.0,76,0.00,,---,0.00,VWS V14.01,2013-04-24 07:51:00,
2013-04-24 01:52:00,25.8,19.3,30.36,SW,223,0.0,0.0,76,0.00,,---,0.00,VWS V14.01,2013-04-24 07:52:00,
2013-04-24 01:53:00,25.8,19.3,30.36,SW,223,0.0,0.0,76,0.00,,---,0.00,VWS V14.01,2013-04-24 07:53:00,
2013-04-24 01:54:00,25.8,19.3,30.36,SW,223,0.0,0.0,76,0.00,,---,0.00,VWS V14.01,2013-04-24 07:54:00,
2013-04-24 01:55:00,25.8,19.3,30.36,SW,223,0.0,0.0,76,0.00,,---,0.00,VWS V14.01,2013-04-24 07:55:00,
2013-04-24 01:56:00,25.7,19.2,30.36,SW,223,0.0,0.0,76,0.00,,---,0.00,VWS V14.01,2013-04-24 07:56:00,
2013-04-24 01:57:00,25.7,19.2,30.36,SW,223,0.0,0.0,76,0.00,,---,0.00,VWS V14.01,2013-04-24 07:57:00,
2013-04-24 01:58:00,25.7,19.2,30.36,SW,223,0.0,0.0,76,0.00,,---,0.00,VWS V14.01,2013-04-24 07:58:00,
2013-04-24 01:59:00,25.7,19.2,30.36,SW,223,0.0,0.0,76,0.00,,---,0.00,VWS V14.01,2013-04-24 07:59:00,
2013-04-24 02:00:00,25.7,19.2,30.36,SW,223,0.0,3.0,76,0.00,,---,0.00,VWS V14.01,2013-04-24 08:00:00,
2013-04-24 02:01:00,25.8,19.3,30.36,SW,223,0.0,1.0,76,0.00,,---,0.00,VWS V14.01,2013-04-24 08:01:00,
2013-04-24 02:02:00,25.8,19.3,30.36,SW,223,0.0,1.0,76,0.00,,---,0.00,VWS V14.01,2013-04-24 08:02:00,
2013-04-24 02:03:00,25.8,19.3,30.36,SW,223,0.0,0.0,76,0.00,,---,0.00,VWS V14.01,2013-04-24 08:03:00,
2013-04-24 02:04:00,25.8,19.3,30.36,SW,223,0.0,1.0,76,0.00,,---,0.00,VWS V14.01,2013-04-24 08:04:00,
2013-04-24 02:05:00,25.8,19.3,30.36,SW,223,0.0,2.0,76,0.00,,---,0.00,VWS V14.01,2013-04-24 08:05:00,
2013-04-24 02:06:00,25.8,19.0,30.35,SW,223,0.0,0.0,75,0.00,,---,0.00,VWS V14.01,2013-04-24 08:06:00,
2013-04-24 02:07:00,25.8,19.0,30.35,SW,223,0.0,0.0,75,0.00,,---,0.00,VWS V14.01,2013-04-24 08:07:00,
2013-04-24 02:08:00,25.8,19.0,30.35,SW,223,0.0,0.0,75,0.00,,---,0.00,VWS V14.01,2013-04-24 08:08:00,
2013-04-24 02:09:00,25.8,19.0,30.36,SW,223,0.0,0.0,75,0.00,,---,0.00,VWS V14.01,2013-04-24 08:09:00,
2013-04-24 02:10:00,25.8,19.0,30.35,SW,223,0.0,0.0,75,0.00,,---,0.00,VWS V14.01,2013-04-24 08:10:00,
2013-04-24 02:11:00,25.8,19.0,30.35,SW,223,0.0,0.0,75,0.00,,---,0.00,VWS V14.01,2013-04-24 08:11:00,
2013-04-24 02:12:00,25.8,19.0,30.35,SW,223,0.0,0.0,75,0.00,,---,0.00,VWS V14.01,2013-04-24 08:12:00,
2013-04-24 02:13:00,25.8,19.0,30.35,SW,223,0.0,3.0,75,0.00,,---,0.00,VWS V14.01,2013-04-24 08:13:00,
2013-04-24 02:14:00,25.9,19.1,30.35,SW,223,0.0,4.0,75,0.00,,---,0.00,VWS V14.01,2013-04-24 08:14:00,
2013-04-24 02:15:00,25.9,19.1,30.35,SW,223,0.0,0.0,75,0.00,,---,0.00,VWS V14.01,2013-04-24 08:15:00,
2013-04-24 02:16:00,26.0,19.2,30.35,SW,223,0.0,0.0,75,0.00,,---,0.00,VWS V14.01,2013-04-24 08:16:00,
2013-04-24 02:17:00,26.0,19.2,30.35,SW,223,0.0,0.0,75,0.00,,---,0.00,VWS V14.01,2013-04-24 08:17:00,
2013-04-24 02:18:00,26.1,19.0,30.35,SW,223,0.0,0.0,74,0.00,,---,0.00,VWS V14.01,2013-04-24 08:18:00,
2013-04-24 02:19:00,26.1,19.0,30.35,SW,223,0.0,1.0,74,0.00,,---,0.00,VWS V14.01,2013-04-24 08:19:00,
2013-04-24 02:20:00,26.1,19.0,30.35,SW,223,0.0,1.0,74,0.00,,---,0.00,VWS V14.01,2013-04-24 08:20:00,
2013-04-24 02:21:00,26.1,19.0,30.35,SW,223,0.0,0.0,74,0.00,,---,0.00,VWS V14.01,2013-04-24 08:21:00,
2013-04-24 02:22:00,26.1,19.0,30.35,SW,223,0.0,0.0,74,0.00,,---,0.00,VWS V14.01,2013-04-24 08:22:00,
2013-04-24 02:23:00,26.1,19.0,30.35,SW,223,0.0,0.0,74,0.00,,---,0.00,VWS V14.01,2013-04-24 08:23:00,
2013-04-24 02:24:00,26.1,19.0,30.35,SW,223,0.0,0.0,74,0.00,,---,0.00,VWS V14.01,2013-04-24 08:24:00,
2013-04-24 02:25:00,26.1,19.0,30.35,SW,223,0.0,0.0,74,0.00,,---,0.00,VWS V14.01,2013-04-24 08:25:00,
2013-04-24 02:26:00,26.1,19.0,30.35,SW,223,0.0,0.0,74,0.00,,---,0.00,VWS V14.01,2013-04-24 08:26:00,
2013-04-24 02:27:00,26.1,19.0,30.35,SW,223,0.0,0.0,74,0.00,,---,0.00,VWS V14.01,2013-04-24 08:27:00,
2013-04-24 02:28:00,26.1,19.0,30.35,SW,223,0.0,0.0,74,0.00,,---,0.00,VWS V14.01,2013-04-24 08:28:00,
2013-04-24 02:29:00,26.1,19.0,30.34,SW,223,0.0,0.0,74,0.00,,---,0.00,VWS V14.01,2013-04-24 08:29:00,
2013-04-24 02:30:00,26.1,19.0,30.34,SW,223,0.0,0.0,74,0.00,,---,0.00,VWS V14.01,2013-04-24 08:30:00,
2013-04-24 02:31:00,26.0,18.9,30.34,SW,223,0.0,0.0,74,0.00,,---,0.00,VWS V14.01,2013-04-24 08:31:00,
2013-04-24 02:32:00,26.0,18.9,30.34,SW,223,0.0,0.0,74,0.00,,---,0.00,VWS V14.01,2013-04-24 08:32:00,
2013-04-24 02:33:00,26.0,18.9,30.34,SW,223,0.0,0.0,74,0.00,,---,0.00,VWS V14.01,2013-04-24 08:33:00,
2013-04-24 02:34:00,26.0,18.9,30.34,SW,223,0.0,0.0,74,0.00,,---,0.00,VWS V14.01,2013-04-24 08:34:00,
2013-04-24 02:35:00,26.0,18.9,30.34,SW,223,0.0,0.0,74,0.00,,---,0.00,VWS V14.01,2013-04-24 08:35:00,
2013-04-24 02:36:00,25.9,18.8,30.34,SW,223,0.0,0.0,74,0.00,,---,0.00,VWS V14.01,2013-04-24 08:36:00,
2013-04-24 02:37:00,25.9,18.8,30.34,SW,223,0.0,0.0,74,0.00,,---,0.00,VWS V14.01,2013-04-24 08:37:00,
2013-04-24 02:38:00,25.9,18.8,30.34,SW,223,0.0,0.0,74,0.00,,---,0.00,VWS V14.01,2013-04-24 08:38:00,
2013-04-24 02:39:00,25.9,18.8,30.34,SW,223,0.0,0.0,74,0.00,,---,0.00,VWS V14.01,2013-04-24 08:39:00,
2013-04-24 02:40:00,25.9,18.8,30.34,SW,223,0.0,0.0,74,0.00,,---,0.00,VWS V14.01,2013-04-24 08:40:00,
2013-04-24 02:41:00,25.9,18.8,30.34,SW,223,0.0,0.0,74,0.00,,---,0.00,VWS V14.01,2013-04-24 08:41:00,
2013-04-24 02:42:00,25.9,18.8,30.34,SW,223,0.0,0.0,74,0.00,,---,0.00,VWS V14.01,2013-04-24 08:42:00,
2013-04-24 02:43:00,25.9,18.8,30.34,SW,223,0.0,0.0,74,0.00,,---,0.00,VWS V14.01,2013-04-24 08:43:00,
2013-04-24 02:44:00,25.9,18.8,30.34,SW,223,0.0,0.0,74,0.00,,---,0.00,VWS V14.01,2013-04-24 08:44:00,
2013-04-24 02:45:00,25.9,18.8,30.34,SW,223,0.0,0.0,74,0.00,,---,0.00,VWS V14.01,2013-04-24 08:45:00,
2013-04-24 02:46:00,25.9,18.8,30.34,SW,223,0.0,0.0,74,0.00,,---,0.00,VWS V14.01,2013-04-24 08:46:00,
2013-04-24 02:47:00,25.9,18.8,30.34,SW,223,0.0,0.0,74,0.00,,---,0.00,VWS V14.01,2013-04-24 08:47:00,
2013-04-24 02:48:00,25.9,18.8,30.34,SW,223,0.0,0.0,74,0.00,,---,0.00,VWS V14.01,2013-04-24 08:48:00,
2013-04-24 02:49:00,25.9,18.8,30.34,SW,223,0.0,0.0,74,0.00,,---,0.00,VWS V14.01,2013-04-24 08:49:00,
2013-04-24 02:50:00,25.9,18.8,30.34,SW,223,0.0,0.0,74,0.00,,---,0.00,VWS V14.01,2013-04-24 08:50:00,
2013-04-24 02:51:00,25.9,18.8,30.34,SW,223,0.0,0.0,74,0.00,,---,0.00,VWS V14.01,2013-04-24 08:51:00,
2013-04-24 02:52:00,25.8,18.7,30.34,SW,223,0.0,0.0,74,0.00,,---,0.00,VWS V14.01,2013-04-24 08:52:00,
2013-04-24 02:53:00,25.8,18.7,30.34,SW,223,0.0,0.0,74,0.00,,---,0.00,VWS V14.01,2013-04-24 08:53:00,
2013-04-24 02:54:00,25.8,18.7,30.33,SW,223,0.0,0.0,74,0.00,,---,0.00,VWS V14.01,2013-04-24 08:54:00,
2013-04-24 02:55:00,25.8,18.7,30.33,SW,223,0.0,0.0,74,0.00,,---,0.00,VWS V14.01,2013-04-24 08:55:00,
2013-04-24 02:56:00,25.7,18.6,30.34,SW,223,0.0,0.0,74,0.00,,---,0.00,VWS V14.01,2013-04-24 08:56:00,
2013-04-24 02:57:00,25.7,18.6,30.34,SW,223,0.0,0.0,74,0.00,,---,0.00,VWS V14.01,2013-04-24 08:57:00,
2013-04-24 02:58:00,25.7,18.6,30.33,SW,223,0.0,0.0,74,0.00,,---,0.00,VWS V14.01,2013-04-24 08:58:00,
2013-04-24 02:59:00,25.7,18.9,30.33,SW,223,0.0,0.0,75,0.00,,---,0.00,VWS V14.01,2013-04-24 08:59:00,
2013-04-24 03:00:00,25.6,18.8,30.33,SW,223,0.0,0.0,75,0.00,,---,0.00,VWS V14.01,2013-04-24 09:00:00,
2013-04-24 03:01:00,25.6,18.8,30.33,SW,223,0.0,0.0,75,0.00,,---,0.00,VWS V14.01,2013-04-24 09:01:00,
2013-04-24 03:02:00,25.6,18.8,30.33,SW,223,0.0,0.0,75,0.00,,---,0.00,VWS V14.01,2013-04-24 09:02:00,
2013-04-24 03:03:00,25.5,18.7,30.33,SW,223,0.0,0.0,75,0.00,,---,0.00,VWS V14.01,2013-04-24 09:03:00,
2013-04-24 03:04:00,25.5,18.7,30.33,SW,223,0.0,0.0,75,0.00,,---,0.00,VWS V14.01,2013-04-24 09:04:00,
2013-04-24 03:05:00,25.5,18.7,30.33,SW,223,0.0,0.0,75,0.00,,---,0.00,VWS V14.01,2013-04-24 09:05:00,
2013-04-24 03:06:00,25.4,18.6,30.33,SW,223,0.0,0.0,75,0.00,,---,0.00,VWS V14.01,2013-04-24 09:06:00,
2013-04-24 03:07:00,25.4,18.6,30.33,SW,223,0.0,0.0,75,0.00,,---,0.00,VWS V14.01,2013-04-24 09:07:00,
2013-04-24 03:08:00,25.4,18.6,30.33,SW,222,0.0,0.0,75,0.00,,---,0.00,VWS V14.01,2013-04-24 09:08:00,
2013-04-24 03:09:00,25.4,18.6,30.33,SW,223,0.0,0.0,75,0.00,,---,0.00,VWS V14.01,2013-04-24 09:09:00,
2013-04-24 03:10:00,25.4,18.6,30.34,SW,223,0.0,0.0,75,0.00,,---,0.00,VWS V14.01,2013-04-24 09:10:00,
2013-04-24 03:11:00,25.3,18.5,30.33,SW,223,0.0,0.0,75,0.00,,---,0.00,VWS V14.01,2013-04-24 09:11:00,
2013-04-24 03:12:00,25.3,18.5,30.33,SW,223,0.0,0.0,75,0.00,,---,0.00,VWS V14.01,2013-04-24 09:12:00,
2013-04-24 03:13:00,25.3,18.5,30.33,SW,222,0.0,0.0,75,0.00,,---,0.00,VWS V14.01,2013-04-24 09:13:00,
2013-04-24 03:14:00,25.3,18.5,30.33,SW,223,0.0,0.0,75,0.00,,---,0.00,VWS V14.01,2013-04-24 09:14:00,
2013-04-24 03:15:00,25.2,18.4,30.33,SW,223,0.0,0.0,75,0.00,,---,0.00,VWS V14.01,2013-04-24 09:15:00,
2013-04-24 03:16:00,25.2,18.4,30.33,SW,223,0.0,0.0,75,0.00,,---,0.00,VWS V14.01,2013-04-24 09:16:00,
2013-04-24 03:17:00,25.2,18.4,30.33,SW,223,0.0,0.0,75,0.00,,---,0.00,VWS V14.01,2013-04-24 09:17:00,
2013-04-24 03:18:00,25.1,18.3,30.33,North,0,0.0,0.0,75,0.00,,---,0.00,VWS V14.01,2013-04-24 09:18:00,
2013-04-24 03:19:00,25.1,18.3,30.33,North,0,0.0,0.0,75,0.00,,---,0.00,VWS V14.01,2013-04-24 09:19:00,
2013-04-24 03:20:00,25.1,18.3,30.33,North,0,0.0,0.0,75,0.00,,---,0.00,VWS V14.01,2013-04-24 09:20:00,
2013-04-24 03:21:00,25.1,18.3,30.33,North,0,0.0,0.0,75,0.00,,---,0.00,VWS V14.01,2013-04-24 09:21:00,
2013-04-24 03:22:00,25.1,18.3,30.33,North,0,0.0,0.0,75,0.00,,---,0.00,VWS V14.01,2013-04-24 09:22:00,
2013-04-24 03:23:00,25.1,18.3,30.33,North,0,0.0,0.0,75,0.00,,---,0.00,VWS V14.01,2013-04-24 09:23:00,
2013-04-24 03:24:00,25.1,18.3,30.33,North,0,0.0,0.0,75,0.00,,---,0.00,VWS V14.01,2013-04-24 09:24:00,
2013-04-24 03:25:00,25.1,18.3,30.33,North,0,0.0,0.0,75,0.00,,---,0.00,VWS V14.01,2013-04-24 09:25:00,
2013-04-24 03:26:00,25.1,18.3,30.33,North,0,0.0,0.0,75,0.00,,---,0.00,VWS V14.01,2013-04-24 09:26:00,
2013-04-24 03:27:00,25.0,18.2,30.33,North,0,0.0,0.0,75,0.00,,---,0.00,VWS V14.01,2013-04-24 09:27:00,
2013-04-24 03:28:00,25.1,18.3,30.33,North,0,0.0,0.0,75,0.00,,---,0.00,VWS V14.01,2013-04-24 09:28:00,
2013-04-24 03:29:00,25.1,18.3,30.33,North,0,0.0,0.0,75,0.00,,---,0.00,VWS V14.01,2013-04-24 09:29:00,
2013-04-24 03:30:00,25.1,18.3,30.33,North,0,0.0,0.0,75,0.00,,---,0.00,VWS V14.01,2013-04-24 09:30:00,
2013-04-24 03:31:00,25.1,18.3,30.33,North,0,0.0,0.0,75,0.00,,---,0.00,VWS V14.01,2013-04-24 09:31:00,
2013-04-24 03:32:00,25.1,18.3,30.33,North,0,0.0,0.0,75,0.00,,---,0.00,VWS V14.01,2013-04-24 09:32:00,
2013-04-24 03:33:00,25.1,18.3,30.33,North,0,0.0,0.0,75,0.00,,---,0.00,VWS V14.01,2013-04-24 09:33:00,
2013-04-24 03:34:00,25.1,18.3,30.33,North,0,0.0,0.0,75,0.00,,---,0.00,VWS V14.01,2013-04-24 09:34:00,
2013-04-24 03:35:00,25.1,18.3,30.33,North,0,0.0,0.0,75,0.00,,---,0.00,VWS V14.01,2013-04-24 09:35:00,
2013-04-24 03:36:00,25.2,18.4,30.33,North,0,0.0,0.0,75,0.00,,---,0.00,VWS V14.01,2013-04-24 09:36:00,
2013-04-24 03:37:00,25.2,18.4,30.33,North,0,0.0,0.0,75,0.00,,---,0.00,VWS V14.01,2013-04-24 09:37:00,
2013-04-24 03:38:00,25.2,18.4,30.33,North,0,0.0,0.0,75,0.00,,---,0.00,VWS V14.01,2013-04-24 09:38:00,
2013-04-24 03:39:00,25.2,18.1,30.33,North,0,0.0,0.0,74,0.00,,---,0.00,VWS V14.01,2013-04-24 09:39:00,
2013-04-24 03:40:00,25.2,18.1,30.33,North,0,0.0,0.0,74,0.00,,---,0.00,VWS V14.01,2013-04-24 09:40:00,
2013-04-24 03:41:00,25.2,18.1,30.33,North,0,0.0,0.0,74,0.00,,---,0.00,VWS V14.01,2013-04-24 09:41:00,
2013-04-24 03:42:00,25.2,18.1,30.33,North,0,0.0,0.0,74,0.00,,---,0.00,VWS V14.01,2013-04-24 09:42:00,
2013-04-24 03:43:00,25.3,18.2,30.33,SW,225,1.0,3.0,74,0.00,,---,0.00,VWS V14.01,2013-04-24 09:43:00,
2013-04-24 03:44:00,25.4,18.3,30.33,SW,225,0.0,0.0,74,0.00,,---,0.00,VWS V14.01,2013-04-24 09:44:00,
2013-04-24 03:45:00,25.4,18.3,30.33,SW,225,0.0,0.0,74,0.00,,---,0.00,VWS V14.01,2013-04-24 09:45:00,
2013-04-24 03:46:00,25.4,18.0,30.33,SW,225,0.0,0.0,73,0.00,,---,0.00,VWS V14.01,2013-04-24 09:46:00,
2013-04-24 03:47:00,25.5,18.4,30.33,SW,225,0.0,0.0,74,0.00,,---,0.00,VWS V14.01,2013-04-24 09:47:00,
2013-04-24 03:48:00,25.5,18.1,30.33,SW,225,0.0,0.0,73,0.00,,---,0.00,VWS V14.01,2013-04-24 09:48:00,
2013-04-24 03:49:00,25.5,18.1,30.33,SW,225,0.0,0.0,73,0.00,,---,0.00,VWS V14.01,2013-04-24 09:49:00,
2013-04-24 03:50:00,25.6,18.2,30.33,SW,225,0.0,0.0,73,0.00,,---,0.00,VWS V14.01,2013-04-24 09:50:00,
2013-04-24 03:51:00,25.6,18.2,30.33,SW,225,0.0,0.0,73,0.00,,---,0.00,VWS V14.01,2013-04-24 09:51:00,
2013-04-24 03:52:00,25.6,18.2,30.34,SW,225,0.0,0.0,73,0.00,,---,0.00,VWS V14.01,2013-04-24 09:52:00,
2013-04-24 03:53:00,25.6,18.2,30.34,SW,225,0.0,0.0,73,0.00,,---,0.00,VWS V14.01,2013-04-24 09:53:00,
2013-04-24 03:54:00,25.6,18.2,30.34,SW,225,0.0,0.0,73,0.00,,---,0.00,VWS V14.01,2013-04-24 09:54:00,
2013-04-24 03:55:00,25.6,18.2,30.34,SW,225,0.0,0.0,73,0.00,,---,0.00,VWS V14.01,2013-04-24 09:55:00,
2013-04-24 03:56:00,25.6,18.2,30.34,SW,225,0.0,0.0,73,0.00,,---,0.00,VWS V14.01,2013-04-24 09:56:00,
2013-04-24 03:57:00,25.6,18.2,30.34,SW,225,1.0,4.0,73,0.00,,---,0.00,VWS V14.01,2013-04-24 09:57:00,
2013-04-24 03:58:00,25.6,18.2,30.34,SW,225,0.0,0.0,73,0.00,,---,0.00,VWS V14.01,2013-04-24 09:58:00,
2013-04-24 03:59:00,25.7,18.3,30.34,SW,225,0.0,3.0,73,0.00,,---,0.00,VWS V14.01,2013-04-24 09:59:00,
2013-04-24 04:00:00,25.7,17.9,30.34,SW,225,1.0,3.0,72,0.00,,---,0.00,VWS V14.01,2013-04-24 10:00:00,
2013-04-24 04:01:00,25.8,18.0,30.34,SW,225,1.0,4.0,72,0.00,,---,0.00,VWS V14.01,2013-04-24 10:01:00,
2013-04-24 04:02:00,25.9,18.1,30.34,SW,225,3.0,5.0,72,0.00,,---,0.00,VWS V14.01,2013-04-24 10:02:00,
2013-04-24 04:03:00,26.1,18.3,30.34,SW,225,1.0,3.0,72,0.00,,---,0.00,VWS V14.01,2013-04-24 10:03:00,
2013-04-24 04:04:00,26.2,18.1,30.34,SW,225,1.0,2.0,71,0.00,,---,0.00,VWS V14.01,2013-04-24 10:04:00,
2013-04-24 04:05:00,26.2,18.1,30.34,SW,225,1.0,3.0,71,0.00,,---,0.00,VWS V14.01,2013-04-24 10:05:00,
2013-04-24 04:06:00,26.3,18.2,30.34,SW,225,0.0,2.0,71,0.00,,---,0.00,VWS V14.01,2013-04-24 10:06:00,
2013-04-24 04:07:00,26.4,18.3,30.34,SW,225,0.0,2.0,71,0.00,,---,0.00,VWS V14.01,2013-04-24 10:07:00,
2013-04-24 04:08:00,26.5,18.4,30.34,SW,225,0.0,1.0,71,0.00,,---,0.00,VWS V14.01,2013-04-24 10:08:00,
2013-04-24 04:09:00,26.5,18.0,30.34,SW,225,1.0,3.0,70,0.00,,---,0.00,VWS V14.01,2013-04-24 10:09:00,
2013-04-24 04:10:00,26.6,18.1,30.34,SW,225,0.0,0.0,70,0.00,,---,0.00,VWS V14.01,2013-04-24 10:10:00,
2013-04-24 04:11:00,26.6,18.1,30.34,SW,225,0.0,0.0,70,0.00,,---,0.00,VWS V14.01,2013-04-24 10:11:00,
2013-04-24 04:12:00,26.7,18.2,30.34,SW,225,1.0,2.0,70,0.00,,---,0.00,VWS V14.01,2013-04-24 10:12:00,
2013-04-24 04:13:00,26.7,18.2,30.34,SW,225,2.0,5.0,70,0.00,,---,0.00,VWS V14.01,2013-04-24 10:13:00,
2013-04-24 04:14:00,26.7,18.2,30.34,SW,225,0.0,0.0,70,0.00,,---,0.00,VWS V14.01,2013-04-24 10:14:00,
2013-04-24 04:15:00,26.8,18.3,30.34,SW,225,0.0,1.0,70,0.00,,---,0.00,VWS V14.01,2013-04-24 10:15:00,
2013-04-24 04:16:00,26.8,18.3,30.34,SW,225,0.0,1.0,70,0.00,,---,0.00,VWS V14.01,2013-04-24 10:16:00,
2013-04-24 04:17:00,26.8,18.0,30.34,SW,225,0.0,2.0,69,0.00,,---,0.00,VWS V14.01,2013-04-24 10:17:00,
2013-04-24 04:18:00,26.8,18.0,30.34,SW,225,1.0,3.0,69,0.00,,---,0.00,VWS V14.01,2013-04-24 10:18:00,
2013-04-24 04:19:00,26.8,18.0,30.34,SW,225,0.0,0.0,69,0.00,,---,0.00,VWS V14.01,2013-04-24 10:19:00,
2013-04-24 04:20:00,26.8,18.0,30.34,SW,225,0.0,0.0,69,0.00,,---,0.00,VWS V14.01,2013-04-24 10:20:00,
2013-04-24 04:21:00,26.8,18.0,30.34,SW,225,0.0,0.0,69,0.00,,---,0.00,VWS V14.01,2013-04-24 10:21:00,
2013-04-24 04:22:00,26.8,18.0,30.34,SW,225,0.0,0.0,69,0.00,,---,0.00,VWS V14.01,2013-04-24 10:22:00,
2013-04-24 04:23:00,26.8,18.0,30.34,SW,225,0.0,0.0,69,0.00,,---,0.00,VWS V14.01,2013-04-24 10:23:00,
2013-04-24 04:24:00,26.8,18.0,30.33,SW,225,0.0,0.0,69,0.00,,---,0.00,VWS V14.01,2013-04-24 10:24:00,
2013-04-24 04:25:00,26.8,18.0,30.34,SW,225,0.0,0.0,69,0.00,,---,0.00,VWS V14.01,2013-04-24 10:25:00,
2013-04-24 04:26:00,26.8,18.0,30.34,SW,225,0.0,0.0,69,0.00,,---,0.00,VWS V14.01,2013-04-24 10:26:00,
2013-04-24 04:27:00,26.8,18.0,30.34,SW,225,0.0,0.0,69,0.00,,---,0.00,VWS V14.01,2013-04-24 10:27:00,
2013-04-24 04:28:00,26.8,17.7,30.34,SW,225,0.0,0.0,68,0.00,,---,0.00,VWS V14.01,2013-04-24 10:28:00,
2013-04-24 04:29:00,26.9,17.8,30.34,SW,225,0.0,0.0,68,0.00,,---,0.00,VWS V14.01,2013-04-24 10:29:00,
2013-04-24 04:30:00,26.9,17.8,30.33,SW,225,1.0,3.0,68,0.00,,---,0.00,VWS V14.01,2013-04-24 10:30:00,
2013-04-24 04:31:00,26.9,17.8,30.33,SW,225,0.0,1.0,68,0.00,,---,0.00,VWS V14.01,2013-04-24 10:31:00,
2013-04-24 04:32:00,26.9,17.8,30.33,SW,225,1.0,2.0,68,0.00,,---,0.00,VWS V14.01,2013-04-24 10:32:00,
2013-04-24 04:33:00,26.9,17.8,30.33,SW,225,0.0,0.0,68,0.00,,---,0.00,VWS V14.01,2013-04-24 10:33:00,
2013-04-24 04:34:00,26.9,17.8,30.33,SW,225,0.0,0.0,68,0.00,,---,0.00,VWS V14.01,2013-04-24 10:34:00,
2013-04-24 04:35:00,26.9,17.8,30.33,SW,225,0.0,0.0,68,0.00,,---,0.00,VWS V14.01,2013-04-24 10:35:00,
2013-04-24 04:36:00,26.9,17.8,30.33,SW,225,0.0,0.0,68,0.00,,---,0.00,VWS V14.01,2013-04-24 10:36:00,
2013-04-24 04:37:00,26.9,17.8,30.34,SW,225,0.0,2.0,68,0.00,,---,0.00,VWS V14.01,2013-04-24 10:37:00,
2013-04-24 04:38:00,26.8,17.7,30.33,SW,225,0.0,0.0,68,0.00,,---,0.00,VWS V14.01,2013-04-24 10:38:00,
2013-04-24 04:39:00,26.8,17.7,30.33,SW,225,0.0,0.0,68,0.00,,---,0.00,VWS V14.01,2013-04-24 10:39:00,
2013-04-24 04:40:00,26.8,17.7,30.33,SW,225,0.0,0.0,68,0.00,,---,0.00,VWS V14.01,2013-04-24 10:40:00,
2013-04-24 04:41:00,26.8,17.7,30.34,SW,225,0.0,0.0,68,0.00,,---,0.00,VWS V14.01,2013-04-24 10:41:00,
2013-04-24 04:42:00,26.8,17.7,30.34,SW,225,0.0,0.0,68,0.00,,---,0.00,VWS V14.01,2013-04-24 10:42:00,
2013-04-24 04:43:00,26.7,17.6,30.34,SW,225,0.0,0.0,68,0.00,,---,0.00,VWS V14.01,2013-04-24 10:43:00,
2013-04-24 04:44:00,26.7,17.6,30.34,SW,225,1.0,4.0,68,0.00,,---,0.00,VWS V14.01,2013-04-24 10:44:00,
2013-04-24 04:45:00,26.7,17.6,30.34,SW,225,0.0,1.0,68,0.00,,---,0.00,VWS V14.01,2013-04-24 10:45:00,
2013-04-24 04:46:00,26.7,17.6,30.34,SW,225,0.0,0.0,68,0.00,,---,0.00,VWS V14.01,2013-04-24 10:46:00,
2013-04-24 04:47:00,26.7,17.6,30.34,SW,225,0.0,0.0,68,0.00,,---,0.00,VWS V14.01,2013-04-24 10:47:00,
2013-04-24 04:48:00,26.7,17.6,30.34,SW,225,0.0,0.0,68,0.00,,---,0.00,VWS V14.01,2013-04-24 10:48:00,
2013-04-24 04:49:00,26.7,17.6,30.34,SW,225,0.0,0.0,68,0.00,,---,0.00,VWS V14.01,2013-04-24 10:49:00,
2013-04-24 04:50:00,26.6,17.5,30.34,SW,225,0.0,0.0,68,0.00,,---,0.00,VWS V14.01,2013-04-24 10:50:00,
2013-04-24 04:51:00,26.6,17.5,30.34,SW,225,0.0,0.0,68,0.00,,---,0.00,VWS V14.01,2013-04-24 10:51:00,
2013-04-24 04:52:00,26.5,17.4,30.34,SW,225,0.0,0.0,68,0.00,,---,0.00,VWS V14.01,2013-04-24 10:52:00,
2013-04-24 04:53:00,26.5,17.4,30.34,SW,225,0.0,0.0,68,0.00,,---,0.00,VWS V14.01,2013-04-24 10:53:00,
2013-04-24 04:54:00,26.5,17.4,30.34,SW,225,0.0,3.0,68,0.00,,---,0.00,VWS V14.01,2013-04-24 10:54:00,
2013-04-24 04:55:00,26.5,17.4,30.34,SW,225,0.0,0.0,68,0.00,,---,0.00,VWS V14.01,2013-04-24 10:55:00,
2013-04-24 04:56:00,26.4,17.3,30.34,SW,225,0.0,0.0,68,0.00,,---,0.00,VWS V14.01,2013-04-24 10:56:00,
2013-04-24 04:57:00,26.4,17.3,30.34,SW,225,0.0,0.0,68,0.00,,---,0.00,VWS V14.01,2013-04-24 10:57:00,
2013-04-24 04:58:00,26.4,17.3,30.34,SW,225,0.0,0.0,68,0.00,,---,0.00,VWS V14.01,2013-04-24 10:58:00,
2013-04-24 04:59:00,26.3,17.2,30.34,SW,225,0.0,0.0,68,0.00,,---,0.00,VWS V14.01,2013-04-24 10:59:00,
2013-04-24 05:00:00,26.3,17.2,30.34,SW,225,0.0,0.0,68,0.00,,---,0.00,VWS V14.01,2013-04-24 11:00:00,
2013-04-24 05:01:00,26.3,17.2,30.34,SW,225,0.0,0.0,68,0.00,,---,0.00,VWS V14.01,2013-04-24 11:01:00,
2013-04-24 05:02:00,26.3,17.2,30.34,SW,225,0.0,0.0,68,0.00,,---,0.00,VWS V14.01,2013-04-24 11:02:00,
2013-04-24 05:03:00,26.2,17.1,30.34,SW,225,0.0,0.0,68,0.00,,---,0.00,VWS V14.01,2013-04-24 11:03:00,
2013-04-24 05:04:00,26.2,17.4,30.34,SW,225,0.0,0.0,69,0.00,,---,0.00,VWS V14.01,2013-04-24 11:04:00,
2013-04-24 05:05:00,26.1,17.3,30.34,SW,225,0.0,0.0,69,0.00,,---,0.00,VWS V14.01,2013-04-24 11:05:00,
2013-04-24 05:06:00,26.1,17.3,30.34,SW,225,0.0,0.0,69,0.00,,---,0.00,VWS V14.01,2013-04-24 11:06:00,
2013-04-24 05:07:00,26.1,17.3,30.34,SW,225,0.0,0.0,69,0.00,,---,0.00,VWS V14.01,2013-04-24 11:07:00,
2013-04-24 05:08:00,26.0,17.2,30.33,SW,225,0.0,0.0,69,0.00,,---,0.00,VWS V14.01,2013-04-24 11:08:00,
2013-04-24 05:09:00,26.0,17.2,30.34,SW,225,0.0,0.0,69,0.00,,---,0.00,VWS V14.01,2013-04-24 11:09:00,
2013-04-24 05:10:00,26.0,17.2,30.34,SW,225,0.0,0.0,69,0.00,,---,0.00,VWS V14.01,2013-04-24 11:10:00,
2013-04-24 05:11:00,26.0,17.2,30.34,SW,225,0.0,0.0,69,0.00,,---,0.00,VWS V14.01,2013-04-24 11:11:00,
2013-04-24 05:12:00,26.0,17.2,30.34,SW,225,0.0,0.0,69,0.00,,---,0.00,VWS V14.01,2013-04-24 11:12:00,
2013-04-24 05:13:00,25.9,17.1,30.33,SW,225,0.0,0.0,69,0.00,,---,0.00,VWS V14.01,2013-04-24 11:13:00,
2013-04-24 05:14:00,25.9,17.1,30.34,SW,225,0.0,0.0,69,0.00,,---,0.00,VWS V14.01,2013-04-24 11:14:00,
2013-04-24 05:15:00,25.9,17.1,30.34,SW,225,0.0,0.0,69,0.00,,---,0.00,VWS V14.01,2013-04-24 11:15:00,
2013-04-24 05:16:00,25.8,17.0,30.34,SW,225,0.0,0.0,69,0.00,,---,0.00,VWS V14.01,2013-04-24 11:16:00,
2013-04-24 05:17:00,25.8,17.0,30.34,SW,225,0.0,0.0,69,0.00,,---,0.00,VWS V14.01,2013-04-24 11:17:00,
2013-04-24 05:18:00,25.8,17.0,30.34,SW,225,0.0,0.0,69,0.00,,---,0.00,VWS V14.01,2013-04-24 11:18:00,
2013-04-24 05:19:00,25.8,17.0,30.34,SW,225,0.0,0.0,69,0.00,,---,0.00,VWS V14.01,2013-04-24 11:19:00,
2013-04-24 05:20:00,25.8,17.0,30.34,SW,225,0.0,0.0,69,0.00,,---,0.00,VWS V14.01,2013-04-24 11:20:00,
2013-04-24 05:21:00,25.8,17.0,30.34,SW,225,0.0,0.0,69,0.00,,---,0.00,VWS V14.01,2013-04-24 11:21:00,
2013-04-24 05:22:00,25.7,17.0,30.34,SW,225,0.0,0.0,69,0.00,,---,0.00,VWS V14.01,2013-04-24 11:22:00,
2013-04-24 05:23:00,25.7,17.0,30.34,SW,225,0.0,0.0,69,0.00,,---,0.00,VWS V14.01,2013-04-24 11:23:00,
2013-04-24 05:24:00,25.7,17.0,30.35,SW,225,0.0,0.0,69,0.00,,---,0.00,VWS V14.01,2013-04-24 11:24:00,
2013-04-24 05:25:00,25.7,17.0,30.35,SW,225,0.0,0.0,69,0.00,,---,0.00,VWS V14.01,2013-04-24 11:25:00,
2013-04-24 05:26:00,25.7,17.0,30.34,SW,225,0.0,0.0,69,0.00,,---,0.00,VWS V14.01,2013-04-24 11:26:00,
2013-04-24 05:27:00,25.7,17.0,30.35,SW,225,0.0,0.0,69,0.00,,---,0.00,VWS V14.01,2013-04-24 11:27:00,
2013-04-24 05:28:00,25.7,17.0,30.34,SW,225,0.0,0.0,69,0.00,,---,0.00,VWS V14.01,2013-04-24 11:28:00,
2013-04-24 05:29:00,25.7,17.0,30.35,SW,225,0.0,0.0,69,0.00,,---,0.00,VWS V14.01,2013-04-24 11:29:00,
2013-04-24 05:30:00,25.6,16.9,30.35,SW,225,0.0,0.0,69,0.00,,---,0.00,VWS V14.01,2013-04-24 11:30:00,
2013-04-24 05:31:00,25.6,16.9,30.35,SW,225,0.0,0.0,69,0.00,,---,0.00,VWS V14.01,2013-04-24 11:31:00,
2013-04-24 05:32:00,25.6,16.9,30.35,SW,225,0.0,0.0,69,0.00,,---,0.00,VWS V14.01,2013-04-24 11:32:00,
2013-04-24 05:33:00,25.6,16.9,30.35,SW,225,0.0,0.0,69,0.00,,---,0.00,VWS V14.01,2013-04-24 11:33:00,
2013-04-24 05:34:00,25.6,17.2,30.35,SW,225,0.0,0.0,70,0.00,,---,0.00,VWS V14.01,2013-04-24 11:34:00,
2013-04-24 05:35:00,25.6,17.2,30.35,SW,225,0.0,0.0,70,0.00,,---,0.00,VWS V14.01,2013-04-24 11:35:00,
2013-04-24 05:36:00,25.5,17.1,30.34,SW,225,0.0,0.0,70,0.00,,---,0.00,VWS V14.01,2013-04-24 11:36:00,
2013-04-24 05:37:00,25.5,17.1,30.35,SW,225,0.0,0.0,70,0.00,,---,0.00,VWS V14.01,2013-04-24 11:37:00,
2013-04-24 05:38:00,25.5,17.1,30.35,SW,225,0.0,0.0,70,0.00,,---,0.00,VWS V14.01,2013-04-24 11:38:00,
2013-04-24 05:39:00,25.4,17.0,30.35,SW,225,0.0,0.0,70,0.00,,---,0.00,VWS V14.01,2013-04-24 11:39:00,
2013-04-24 05:40:00,25.4,17.0,30.35,SW,225,0.0,0.0,70,0.00,,---,0.00,VWS V14.01,2013-04-24 11:40:00,
2013-04-24 05:41:00,25.4,17.0,30.35,SW,225,0.0,0.0,70,0.00,,---,0.00,VWS V14.01,2013-04-24 11:41:00,
2013-04-24 05:42:00,25.4,17.0,30.35,SW,225,0.0,0.0,70,0.00,,---,0.00,VWS V14.01,2013-04-24 11:42:00,
2013-04-24 05:43:00,25.4,17.0,30.34,SW,225,0.0,0.0,70,0.00,,---,0.00,VWS V14.01,2013-04-24 11:43:00,
2013-04-24 05:44:00,25.4,17.0,30.34,SW,225,0.0,0.0,70,0.00,,---,0.00,VWS V14.01,2013-04-24 11:44:00,
2013-04-24 05:45:00,25.4,17.0,30.34,SW,225,0.0,0.0,70,0.00,,---,0.00,VWS V14.01,2013-04-24 11:45:00,
2013-04-24 05:46:00,25.3,16.9,30.34,SW,225,0.0,0.0,70,0.00,,---,0.00,VWS V14.01,2013-04-24 11:46:00,
2013-04-24 05:47:00,25.4,17.0,30.35,SW,225,0.0,0.0,70,0.00,,---,0.00,VWS V14.01,2013-04-24 11:47:00,
2013-04-24 05:48:00,25.4,17.0,30.35,SW,225,0.0,0.0,70,0.00,,---,0.00,VWS V14.01,2013-04-24 11:48:00,
2013-04-24 05:49:00,25.4,17.0,30.35,SW,225,0.0,0.0,70,0.00,,---,0.00,VWS V14.01,2013-04-24 11:49:00,
2013-04-24 05:50:00,25.5,17.1,30.35,SW,225,0.0,0.0,70,0.00,,---,0.00,VWS V14.01,2013-04-24 11:50:00,
2013-04-24 05:51:00,25.5,17.1,30.35,SW,225,0.0,1.0,70,0.00,,---,0.00,VWS V14.01,2013-04-24 11:51:00,
2013-04-24 05:52:00,25.6,17.2,30.35,SW,225,0.0,0.0,70,0.00,,---,0.00,VWS V14.01,2013-04-24 11:52:00,
2013-04-24 05:53:00,25.6,17.2,30.34,SW,225,1.0,2.0,70,0.00,,---,0.00,VWS V14.01,2013-04-24 11:53:00,
2013-04-24 05:54:00,25.6,17.2,30.34,SW,225,0.0,2.0,70,0.00,,---,0.00,VWS V14.01,2013-04-24 11:54:00,
2013-04-24 05:55:00,25.7,17.3,30.35,SW,225,0.0,0.0,70,0.00,,---,0.00,VWS V14.01,2013-04-24 11:55:00,
2013-04-24 05:56:00,25.7,17.3,30.35,SW,225,0.0,0.0,70,0.00,,---,0.00,VWS V14.01,2013-04-24 11:56:00,
2013-04-24 05:57:00,25.8,17.0,30.35,SW,225,0.0,0.0,69,0.00,,---,0.00,VWS V14.01,2013-04-24 11:57:00,
2013-04-24 05:58:00,25.8,17.4,30.35,SW,225,0.0,0.0,70,0.00,,---,0.00,VWS V14.01,2013-04-24 11:58:00,
2013-04-24 05:59:00,25.9,17.1,30.35,SW,225,0.0,0.0,69,0.00,,---,0.00,VWS V14.01,2013-04-24 11:59:00,
2013-04-24 06:00:00,26.0,17.2,30.35,SW,225,0.0,0.0,69,0.00,,---,0.00,VWS V14.01,2013-04-24 12:00:00,
2013-04-24 06:01:00,26.0,17.2,30.35,SW,225,0.0,0.0,69,0.00,,---,0.00,VWS V14.01,2013-04-24 12:01:00,
2013-04-24 06:02:00,26.1,17.3,30.35,SW,225,0.0,0.0,69,0.00,,---,0.00,VWS V14.01,2013-04-24 12:02:00,
2013-04-24 06:03:00,26.1,17.3,30.35,SW,225,0.0,0.0,69,0.00,,---,0.00,VWS V14.01,2013-04-24 12:03:00,
2013-04-24 06:04:00,26.1,17.3,30.35,SW,225,0.0,0.0,69,0.00,,---,0.00,VWS V14.01,2013-04-24 12:04:00,
2013-04-24 06:05:00,26.1,17.3,30.35,SW,225,0.0,0.0,69,0.00,,---,0.00,VWS V14.01,2013-04-24 12:05:00,
2013-04-24 06:06:00,26.2,17.4,30.35,SW,225,0.0,0.0,69,0.00,,---,0.00,VWS V14.01,2013-04-24 12:06:00,
2013-04-24 06:07:00,26.2,17.1,30.35,SW,225,0.0,0.0,68,0.00,,---,0.00,VWS V14.01,2013-04-24 12:07:00,
2013-04-24 06:08:00,26.2,17.4,30.34,SW,225,0.0,0.0,69,0.00,,---,0.00,VWS V14.01,2013-04-24 12:08:00,
2013-04-24 06:09:00,26.2,17.4,30.35,SW,225,0.0,0.0,69,0.00,,---,0.00,VWS V14.01,2013-04-24 12:09:00,
2013-04-24 06:10:00,26.2,17.4,30.35,SW,225,0.0,0.0,69,0.00,,---,0.00,VWS V14.01,2013-04-24 12:10:00,
2013-04-24 06:11:00,26.2,17.4,30.35,SW,225,0.0,0.0,69,0.00,,---,0.00,VWS V14.01,2013-04-24 12:11:00,
2013-04-24 06:12:00,26.2,17.4,30.35,SW,225,0.0,0.0,69,0.00,,---,0.00,VWS V14.01,2013-04-24 12:12:00,
2013-04-24 06:13:00,26.2,17.4,30.35,SW,225,0.0,0.0,69,0.00,,---,0.00,VWS V14.01,2013-04-24 12:13:00,
2013-04-24 06:14:00,26.2,17.4,30.35,SW,225,0.0,0.0,69,0.00,,---,0.00,VWS V14.01,2013-04-24 12:14:00,
2013-04-24 06:15:00,26.2,17.4,30.35,SW,225,0.0,0.0,69,0.00,,---,0.00,VWS V14.01,2013-04-24 12:15:00,
2013-04-24 06:16:00,26.2,17.4,30.35,SW,225,0.0,0.0,69,0.00,,---,0.00,VWS V14.01,2013-04-24 12:16:00,
2013-04-24 06:17:00,26.2,17.4,30.35,SW,225,0.0,0.0,69,0.00,,---,0.00,VWS V14.01,2013-04-24 12:17:00,
2013-04-24 06:18:00,26.2,17.4,30.35,SW,225,0.0,0.0,69,0.00,,---,0.00,VWS V14.01,2013-04-24 12:18:00,
2013-04-24 06:19:00,26.2,17.4,30.35,SW,225,0.0,0.0,69,0.00,,---,0.00,VWS V14.01,2013-04-24 12:19:00,
2013-04-24 06:20:00,26.2,17.4,30.35,SW,225,0.0,0.0,69,0.00,,---,0.00,VWS V14.01,2013-04-24 12:20:00,
2013-04-24 06:21:00,26.2,17.4,30.34,SW,225,0.0,0.0,69,0.00,,---,0.00,VWS V14.01,2013-04-24 12:21:00,
2013-04-24 06:22:00,26.2,17.4,30.34,SW,225,0.0,0.0,69,0.00,,---,0.00,VWS V14.01,2013-04-24 12:22:00,
2013-04-24 06:23:00,26.1,17.3,30.35,SW,225,0.0,0.0,69,0.00,,---,0.00,VWS V14.01,2013-04-24 12:23:00,
2013-04-24 06:24:00,26.1,17.3,30.35,SW,225,0.0,0.0,69,0.00,,---,0.00,VWS V14.01,2013-04-24 12:24:00,
2013-04-24 06:25:00,26.1,17.3,30.35,SW,225,0.0,0.0,69,0.00,,---,0.00,VWS V14.01,2013-04-24 12:25:00,
2013-04-24 06:26:00,26.1,17.3,30.35,SW,225,0.0,0.0,69,0.00,,---,0.00,VWS V14.01,2013-04-24 12:26:00,
2013-04-24 06:27:00,26.1,17.3,30.35,SW,225,0.0,0.0,69,0.00,,---,0.00,VWS V14.01,2013-04-24 12:27:00,
2013-04-24 06:28:00,26.1,17.3,30.35,SW,225,0.0,0.0,69,0.00,,---,0.00,VWS V14.01,2013-04-24 12:28:00,
2013-04-24 06:29:00,26.1,17.3,30.35,SW,225,0.0,0.0,69,0.00,,---,0.00,VWS V14.01,2013-04-24 12:29:00,
2013-04-24 06:30:00,26.1,17.3,30.35,SW,225,0.0,0.0,69,0.00,,---,0.00,VWS V14.01,2013-04-24 12:30:00,
2013-04-24 06:31:00,26.1,17.3,30.35,SW,225,0.0,0.0,69,0.00,,---,0.00,VWS V14.01,2013-04-24 12:31:00,
2013-04-24 06:32:00,26.2,17.4,30.35,SW,225,0.0,0.0,69,0.00,,---,0.00,VWS V14.01,2013-04-24 12:32:00,
2013-04-24 06:33:00,26.2,17.4,30.35,SW,225,0.0,0.0,69,0.00,,---,0.00,VWS V14.01,2013-04-24 12:33:00,
2013-04-24 06:34:00,26.2,17.4,30.35,SW,225,0.0,0.0,69,0.00,,---,0.00,VWS V14.01,2013-04-24 12:34:00,
2013-04-24 06:35:00,26.2,17.4,30.36,SW,225,0.0,0.0,69,0.00,,---,0.00,VWS V14.01,2013-04-24 12:35:00,
2013-04-24 06:36:00,26.2,17.4,30.35,SW,225,0.0,0.0,69,0.00,,---,0.00,VWS V14.01,2013-04-24 12:36:00,
2013-04-24 06:37:00,26.2,17.4,30.35,SW,225,0.0,0.0,69,0.00,,---,0.00,VWS V14.01,2013-04-24 12:37:00,
2013-04-24 06:38:00,26.2,17.4,30.35,SW,225,0.0,0.0,69,0.00,,---,0.00,VWS V14.01,2013-04-24 12:38:00,
2013-04-24 06:39:00,26.2,17.1,30.35,SW,225,0.0,0.0,68,0.00,,---,0.00,VWS V14.01,2013-04-24 12:39:00,
2013-04-24 06:40:00,26.2,17.1,30.35,SW,225,0.0,0.0,68,0.00,,---,0.00,VWS V14.01,2013-04-24 12:40:00,
2013-04-24 06:41:00,26.2,17.4,30.35,SW,225,0.0,0.0,69,0.00,,---,0.00,VWS V14.01,2013-04-24 12:41:00,
2013-04-24 06:42:00,26.2,17.4,30.35,SW,225,0.0,0.0,69,0.00,,---,0.00,VWS V14.01,2013-04-24 12:42:00,
2013-04-24 06:43:00,26.2,17.4,30.35,SW,225,0.0,0.0,69,0.00,,---,0.00,VWS V14.01,2013-04-24 12:43:00,
2013-04-24 06:44:00,26.2,17.4,30.35,SW,225,0.0,0.0,69,0.00,,---,0.00,VWS V14.01,2013-04-24 12:44:00,
2013-04-24 06:45:00,26.3,17.2,30.35,SW,225,0.0,0.0,68,0.00,,---,0.00,VWS V14.01,2013-04-24 12:45:00,
2013-04-24 06:46:00,26.3,17.2,30.35,SW,225,0.0,0.0,68,0.00,,---,0.00,VWS V14.01,2013-04-24 12:46:00,
2013-04-24 06:47:00,26.3,17.2,30.35,SW,225,0.0,0.0,68,0.00,,---,0.00,VWS V14.01,2013-04-24 12:47:00,
2013-04-24 06:48:00,26.3,17.5,30.35,SW,225,0.0,0.0,69,0.00,,---,0.00,VWS V14.01,2013-04-24 12:48:00,
2013-04-24 06:49:00,26.3,17.2,30.35,SW,225,0.0,0.0,68,0.00,,---,0.00,VWS V14.01,2013-04-24 12:49:00,
2013-04-24 06:50:00,26.3,17.2,30.35,SW,225,0.0,0.0,68,0.00,,---,0.00,VWS V14.01,2013-04-24 12:50:00,
2013-04-24 06:51:00,26.4,17.3,30.35,SW,225,0.0,0.0,68,0.00,,---,0.00,VWS V14.01,2013-04-24 12:51:00,
2013-04-24 06:52:00,26.4,17.3,30.35,SW,225,0.0,0.0,68,0.00,,---,0.00,VWS V14.01,2013-04-24 12:52:00,
2013-04-24 06:53:00,26.4,17.3,30.35,SW,225,0.0,0.0,68,0.00,,---,0.00,VWS V14.01,2013-04-24 12:53:00,
2013-04-24 06:54:00,26.4,17.3,30.35,SW,225,0.0,0.0,68,0.00,,---,0.00,VWS V14.01,2013-04-24 12:54:00,
2013-04-24 06:55:00,26.5,17.4,30.35,SW,225,0.0,0.0,68,0.00,,---,0.00,VWS V14.01,2013-04-24 12:55:00,
2013-04-24 06:56:00,26.5,17.4,30.35,SW,225,0.0,0.0,68,0.00,,---,0.00,VWS V14.01,2013-04-24 12:56:00,
2013-04-24 06:57:00,26.5,17.4,30.35,SW,225,0.0,0.0,68,0.00,,---,0.00,VWS V14.01,2013-04-24 12:57:00,
2013-04-24 06:58:00,26.5,17.4,30.35,SW,225,0.0,0.0,68,0.00,,---,0.00,VWS V14.01,2013-04-24 12:58:00,
2013-04-24 06:59:00,26.5,17.4,30.35,SW,225,0.0,0.0,68,0.00,,---,0.00,VWS V14.01,2013-04-24 12:59:00,
2013-04-24 07:00:00,26.6,17.1,30.35,SW,225,0.0,0.0,67,0.00,,---,0.00,VWS V14.01,2013-04-24 13:00:00,
2013-04-24 07:01:00,26.6,17.5,30.35,SW,225,0.0,0.0,68,0.00,,---,0.00,VWS V14.01,2013-04-24 13:01:00,
2013-04-24 07:02:00,26.7,17.2,30.35,SW,225,0.0,0.0,67,0.00,,---,0.00,VWS V14.01,2013-04-24 13:02:00,
2013-04-24 07:03:00,26.7,17.6,30.35,SW,225,0.0,0.0,68,0.00,,---,0.00,VWS V14.01,2013-04-24 13:03:00,
2013-04-24 07:04:00,26.8,17.7,30.35,SW,225,0.0,0.0,68,0.00,,---,0.00,VWS V14.01,2013-04-24 13:04:00,
2013-04-24 07:05:00,26.8,17.3,30.35,SW,225,0.0,0.0,67,0.00,,---,0.00,VWS V14.01,2013-04-24 13:05:00,
2013-04-24 07:06:00,26.9,17.4,30.35,SW,225,0.0,0.0,67,0.00,,---,0.00,VWS V14.01,2013-04-24 13:06:00,
2013-04-24 07:07:00,26.9,17.4,30.35,SW,225,0.0,0.0,67,0.00,,---,0.00,VWS V14.01,2013-04-24 13:07:00,
2013-04-24 07:08:00,27.0,17.2,30.35,SW,225,1.0,5.0,66,0.00,,---,0.00,VWS V14.01,2013-04-24 13:08:00,
2013-04-24 07:09:00,27.1,17.3,30.35,SW,225,1.0,3.0,66,0.00,,---,0.00,VWS V14.01,2013-04-24 13:09:00,
2013-04-24 07:10:00,27.1,17.3,30.35,SW,225,0.0,2.0,66,0.00,,---,0.00,VWS V14.01,2013-04-24 13:10:00,
2013-04-24 07:11:00,27.2,17.4,30.35,SW,225,0.0,2.0,66,0.00,,---,0.00,VWS V14.01,2013-04-24 13:11:00,
2013-04-24 07:12:00,27.2,17.0,30.35,SW,225,1.0,4.0,65,0.00,,---,0.00,VWS V14.01,2013-04-24 13:12:00,
2013-04-24 07:13:00,27.3,17.1,30.35,SW,225,1.0,3.0,65,0.00,,---,0.00,VWS V14.01,2013-04-24 13:13:00,
2013-04-24 07:14:00,27.4,17.2,30.35,SW,225,0.0,3.0,65,0.00,,---,0.00,VWS V14.01,2013-04-24 13:14:00,
2013-04-24 07:15:00,27.4,17.5,30.36,SW,225,0.0,1.0,66,0.00,,---,0.00,VWS V14.01,2013-04-24 13:15:00,
2013-04-24 07:16:00,27.5,17.3,30.35,SW,225,0.0,1.0,65,0.00,,---,0.00,VWS V14.01,2013-04-24 13:16:00,
2013-04-24 07:17:00,27.5,17.6,30.36,SW,225,0.0,0.0,66,0.00,,---,0.00,VWS V14.01,2013-04-24 13:17:00,
2013-04-24 07:18:00,27.6,17.7,30.35,SW,225,1.0,3.0,66,0.00,,---,0.00,VWS V14.01,2013-04-24 13:18:00,
2013-04-24 07:19:00,27.6,17.4,30.35,SW,225,0.0,1.0,65,0.00,,---,0.00,VWS V14.01,2013-04-24 13:19:00,
2013-04-24 07:20:00,27.6,17.0,30.35,SW,225,1.0,4.0,64,0.00,,---,0.00,VWS V14.01,2013-04-24 13:20:00,
2013-04-24 07:21:00,27.7,17.1,30.35,SW,225,1.0,2.0,64,0.00,,---,0.00,VWS V14.01,2013-04-24 13:21:00,
2013-04-24 07:22:00,27.8,17.2,30.35,SW,225,0.0,1.0,64,0.00,,---,0.00,VWS V14.01,2013-04-24 13:22:00,
2013-04-24 07:23:00,27.8,17.2,30.35,SW,225,1.0,2.0,64,0.00,,---,0.00,VWS V14.01,2013-04-24 13:23:00,
2013-04-24 07:24:00,27.9,17.3,30.35,SW,225,3.0,9.0,64,0.00,,---,0.00,VWS V14.01,2013-04-24 13:24:00,
2013-04-24 07:25:00,28.0,16.7,30.35,SSW,202,3.0,9.0,62,0.00,,---,0.00,VWS V14.01,2013-04-24 13:25:00,
2013-04-24 07:26:00,28.1,16.8,30.35,SSW,202,2.0,4.0,62,0.00,,---,0.00,VWS V14.01,2013-04-24 13:26:00,
2013-04-24 07:27:00,28.1,17.1,30.35,SSW,202,1.0,4.0,63,0.00,,---,0.00,VWS V14.01,2013-04-24 13:27:00,
2013-04-24 07:28:00,28.1,17.1,30.35,SSW,202,2.0,5.0,63,0.00,,---,0.00,VWS V14.01,2013-04-24 13:28:00,
2013-04-24 07:29:00,28.2,16.9,30.35,SSW,202,0.0,1.0,62,0.00,,---,0.00,VWS V14.01,2013-04-24 13:29:00,
2013-04-24 07:30:00,28.3,17.3,30.36,SSW,202,0.0,1.0,63,0.00,,---,0.00,VWS V14.01,2013-04-24 13:30:00,
2013-04-24 07:31:00,28.3,17.0,30.36,SSW,202,0.0,2.0,62,0.00,,---,0.00,VWS V14.01,2013-04-24 13:31:00,
2013-04-24 07:32:00,28.4,17.1,30.36,SSW,202,0.0,0.0,62,0.00,,---,0.00,VWS V14.01,2013-04-24 13:32:00,
2013-04-24 07:33:00,28.4,17.4,30.35,SSW,202,0.0,1.0,63,0.00,,---,0.00,VWS V14.01,2013-04-24 13:33:00,
2013-04-24 07:34:00,28.4,17.4,30.35,SSW,202,0.0,1.0,63,0.00,,---,0.00,VWS V14.01,2013-04-24 13:34:00,
2013-04-24 07:35:00,28.4,17.1,30.35,SSW,202,0.0,0.0,62,0.00,,---,0.00,VWS V14.01,2013-04-24 13:35:00,
2013-04-24 07:36:00,28.5,17.1,30.35,SSW,202,0.0,0.0,62,0.00,,---,0.00,VWS V14.01,2013-04-24 13:36:00,
2013-04-24 07:37:00,28.5,17.5,30.35,SSW,202,1.0,4.0,63,0.00,,---,0.00,VWS V14.01,2013-04-24 13:37:00,
2013-04-24 07:38:00,28.6,17.2,30.36,SSW,202,1.0,2.0,62,0.00,,---,0.00,VWS V14.01,2013-04-24 13:38:00,
2013-04-24 07:39:00,28.6,17.2,30.36,SSW,202,0.0,1.0,62,0.00,,---,0.00,VWS V14.01,2013-04-24 13:39:00,
2013-04-24 07:40:00,28.7,17.0,30.36,SW,225,4.0,9.0,61,0.00,,---,0.00,VWS V14.01,2013-04-24 13:40:00,
2013-04-24 07:41:00,28.7,16.6,30.36,SW,225,0.0,3.0,60,0.00,,---,0.00,VWS V14.01,2013-04-24 13:41:00,
2013-04-24 07:42:00,28.8,17.1,30.36,SW,225,0.0,0.0,61,0.00,,---,0.00,VWS V14.01,2013-04-24 13:42:00,
2013-04-24 07:43:00,28.8,17.1,30.36,SW,225,1.0,4.0,61,0.00,,---,0.00,VWS V14.01,2013-04-24 13:43:00,
2013-04-24 07:44:00,28.8,17.1,30.36,SW,225,0.0,1.0,61,0.00,,---,0.00,VWS V14.01,2013-04-24 13:44:00,
2013-04-24 07:45:00,28.9,17.2,30.36,SW,225,0.0,0.0,61,0.00,,---,0.00,VWS V14.01,2013-04-24 13:45:00,
2013-04-24 07:46:00,28.9,17.2,30.36,SW,225,0.0,0.0,61,0.00,,---,0.00,VWS V14.01,2013-04-24 13:46:00,
2013-04-24 07:47:00,29.0,17.2,30.36,SW,225,0.0,0.0,61,0.00,,---,0.00,VWS V14.01,2013-04-24 13:47:00,
2013-04-24 07:48:00,29.0,17.2,30.36,SW,225,0.0,1.0,61,0.00,,---,0.00,VWS V14.01,2013-04-24 13:48:00,
2013-04-24 07:49:00,29.0,16.9,30.36,SW,225,0.0,0.0,60,0.00,,---,0.00,VWS V14.01,2013-04-24 13:49:00,
2013-04-24 07:50:00,29.0,16.9,30.36,SW,225,0.0,0.0,60,0.00,,---,0.00,VWS V14.01,2013-04-24 13:50:00,
2013-04-24 07:51:00,29.1,17.0,30.36,SW,225,0.0,0.0,60,0.00,,---,0.00,VWS V14.01,2013-04-24 13:51:00,
2013-04-24 07:52:00,29.2,17.1,30.37,SW,225,1.0,4.0,60,0.00,,---,0.00,VWS V14.01,2013-04-24 13:52:00,
2013-04-24 07:53:00,29.2,16.7,30.36,SW,225,0.0,0.0,59,0.00,,---,0.00,VWS V14.01,2013-04-24 13:53:00,
2013-04-24 07:54:00,29.3,17.1,30.36,SW,225,0.0,1.0,60,0.00,,---,0.00,VWS V14.01,2013-04-24 13:54:00,
2013-04-24 07:55:00,29.3,17.1,30.36,SW,225,0.0,2.0,60,0.00,,---,0.00,VWS V14.01,2013-04-24 13:55:00,
2013-04-24 07:56:00,29.4,17.2,30.36,SW,225,0.0,0.0,60,0.00,,---,0.00,VWS V14.01,2013-04-24 13:56:00,
2013-04-24 07:57:00,29.4,17.2,30.36,SW,225,0.0,1.0,60,0.00,,---,0.00,VWS V14.01,2013-04-24 13:57:00,
2013-04-24 07:58:00,29.5,17.3,30.36,SW,225,0.0,0.0,60,0.00,,---,0.00,VWS V14.01,2013-04-24 13:58:00,
2013-04-24 07:59:00,29.5,17.0,30.37,SW,225,0.0,0.0,59,0.00,,---,0.00,VWS V14.01,2013-04-24 13:59:00,
2013-04-24 08:00:00,29.6,17.0,30.36,SW,225,1.0,3.0,59,0.00,,---,0.00,VWS V14.01,2013-04-24 14:00:00,
2013-04-24 08:01:00,29.7,17.1,30.36,SW,225,0.0,0.0,59,0.00,,---,0.00,VWS V14.01,2013-04-24 14:01:00,
2013-04-24 08:02:00,29.7,17.1,30.36,SW,225,0.0,0.0,59,0.00,,---,0.00,VWS V14.01,2013-04-24 14:02:00,
2013-04-24 08:03:00,29.7,17.1,30.36,SW,225,0.0,0.0,59,0.00,,---,0.00,VWS V14.01,2013-04-24 14:03:00,
2013-04-24 08:04:00,29.8,17.2,30.36,SW,225,0.0,0.0,59,0.00,,---,0.00,VWS V14.01,2013-04-24 14:04:00,
2013-04-24 08:05:00,29.9,17.3,30.36,SW,225,0.0,0.0,59,0.00,,---,0.00,VWS V14.01,2013-04-24 14:05:00,
2013-04-24 08:06:00,29.9,17.7,30.36,SW,225,0.0,0.0,60,0.00,,---,0.00,VWS V14.01,2013-04-24 14:06:00,
2013-04-24 08:07:00,30.0,17.8,30.36,SW,225,0.0,0.0,60,0.00,,---,0.00,VWS V14.01,2013-04-24 14:07:00,
2013-04-24 08:08:00,30.0,17.4,30.35,SW,225,0.0,0.0,59,0.00,,---,0.00,VWS V14.01,2013-04-24 14:08:00,
2013-04-24 08:09:00,30.1,17.5,30.35,SW,225,0.0,0.0,59,0.00,,---,0.00,VWS V14.01,2013-04-24 14:09:00,
2013-04-24 08:10:00,30.1,17.1,30.35,SW,225,0.0,0.0,58,0.00,,---,0.00,VWS V14.01,2013-04-24 14:10:00,
2013-04-24 08:11:00,30.2,17.6,30.35,SW,225,0.0,1.0,59,0.00,,---,0.00,VWS V14.01,2013-04-24 14:11:00,
2013-04-24 08:12:00,30.2,17.2,30.35,SW,225,0.0,0.0,58,0.00,,---,0.00,VWS V14.01,2013-04-24 14:12:00,
2013-04-24 08:13:00,30.3,17.3,30.36,SW,225,0.0,0.0,58,0.00,,---,0.00,VWS V14.01,2013-04-24 14:13:00,
2013-04-24 08:14:00,30.3,17.3,30.35,SW,225,0.0,0.0,58,0.00,,---,0.00,VWS V14.01,2013-04-24 14:14:00,
2013-04-24 08:15:00,30.4,17.0,30.35,SW,225,0.0,2.0,57,0.00,,---,0.00,VWS V14.01,2013-04-24 14:15:00,
2013-04-24 08:16:00,30.4,16.6,30.35,SW,225,0.0,1.0,56,0.00,,---,0.00,VWS V14.01,2013-04-24 14:16:00,
2013-04-24 08:17:00,30.5,17.1,30.35,SW,225,0.0,0.0,57,0.00,,---,0.00,VWS V14.01,2013-04-24 14:17:00,
2013-04-24 08:18:00,30.6,17.6,30.35,SW,225,1.0,3.0,58,0.00,,---,0.00,VWS V14.01,2013-04-24 14:18:00,
2013-04-24 08:19:00,30.6,16.8,30.35,SW,225,1.0,2.0,56,0.00,,---,0.00,VWS V14.01,2013-04-24 14:19:00,
2013-04-24 08:20:00,30.7,16.9,30.35,SW,225,0.0,0.0,56,0.00,,---,0.00,VWS V14.01,2013-04-24 14:20:00,
2013-04-24 08:21:00,30.7,17.3,30.35,SW,225,0.0,2.0,57,0.00,,---,0.00,VWS V14.01,2013-04-24 14:21:00,
2013-04-24 08:22:00,30.7,17.3,30.35,SW,225,0.0,1.0,57,0.00,,---,0.00,VWS V14.01,2013-04-24 14:22:00,
2013-04-24 08:23:00,30.8,17.4,30.35,SW,225,0.0,0.0,57,0.00,,---,0.00,VWS V14.01,2013-04-24 14:23:00,
2013-04-24 08:24:00,30.8,17.4,30.35,SW,225,0.0,0.0,57,0.00,,---,0.00,VWS V14.01,2013-04-24 14:24:00,
2013-04-24 08:25:00,30.9,17.9,30.35,SW,216,0.0,0.0,58,0.00,,---,0.00,VWS V14.01,2013-04-24 14:25:00,
2013-04-24 08:26:00,30.9,17.9,30.35,SW,215,2.0,2.0,58,0.00,,---,0.00,VWS V14.01,2013-04-24 14:26:00,
2013-04-24 08:27:00,31.0,18.0,30.35,SW,216,0.0,2.0,58,0.00,,---,0.00,VWS V14.01,2013-04-24 14:27:00,
2013-04-24 08:28:00,31.0,18.0,30.35,SW,215,0.0,3.0,58,0.00,,---,0.00,VWS V14.01,2013-04-24 14:28:00,
2013-04-24 08:29:00,31.1,17.2,30.35,SW,215,0.0,1.0,56,0.00,,---,0.00,VWS V14.01,2013-04-24 14:29:00,
2013-04-24 08:30:00,31.1,17.2,30.35,SW,216,0.0,1.0,56,0.00,,---,0.00,VWS V14.01,2013-04-24 14:30:00,
2013-04-24 08:31:00,31.1,17.7,30.35,SW,215,0.0,1.0,57,0.00,,---,0.00,VWS V14.01,2013-04-24 14:31:00,
2013-04-24 08:32:00,31.2,17.8,30.35,SW,215,0.0,1.0,57,0.00,,---,0.00,VWS V14.01,2013-04-24 14:32:00,
2013-04-24 08:33:00,31.2,17.3,30.35,SW,215,0.0,0.0,56,0.00,,---,0.00,VWS V14.01,2013-04-24 14:33:00,
2013-04-24 08:34:00,31.3,17.4,30.35,SW,215,0.0,0.0,56,0.00,,---,0.00,VWS V14.01,2013-04-24 14:34:00,
2013-04-24 08:35:00,31.4,17.5,30.35,SW,215,0.0,0.0,56,0.00,,---,0.00,VWS V14.01,2013-04-24 14:35:00,
2013-04-24 08:36:00,31.4,17.1,30.35,SW,215,0.0,0.0,55,0.00,,---,0.00,VWS V14.01,2013-04-24 14:36:00,
2013-04-24 08:37:00,31.4,17.1,30.35,SW,215,3.0,3.0,55,0.00,,---,0.00,VWS V14.01,2013-04-24 14:37:00,
2013-04-24 08:38:00,31.4,16.7,30.35,SW,217,1.0,5.0,54,0.00,,---,0.00,VWS V14.01,2013-04-24 14:38:00,
2013-04-24 08:39:00,31.5,16.8,30.35,SW,217,0.0,0.0,54,0.00,,---,0.00,VWS V14.01,2013-04-24 14:39:00,
2013-04-24 08:40:00,31.5,16.8,30.35,SW,217,0.0,0.0,54,0.00,,---,0.00,VWS V14.01,2013-04-24 14:40:00,
2013-04-24 08:41:00,31.5,16.8,30.35,SW,217,0.0,0.0,54,0.00,,---,0.00,VWS V14.01,2013-04-24 14:41:00,
2013-04-24 08:42:00,31.5,16.8,30.35,SW,217,0.0,2.0,54,0.00,,---,0.00,VWS V14.01,2013-04-24 14:42:00,
2013-04-24 08:43:00,31.6,17.3,30.35,SW,217,0.0,0.0,55,0.00,,---,0.00,VWS V14.01,2013-04-24 14:43:00,
2013-04-24 08:44:00,31.7,16.1,30.36,SW,215,2.0,4.0,52,0.00,,---,0.00,VWS V14.01,2013-04-24 14:44:00,
2013-04-24 08:45:00,31.7,16.1,30.36,SW,215,1.0,4.0,52,0.00,,---,0.00,VWS V14.01,2013-04-24 14:45:00,
2013-04-24 08:48:00,31.7,17.0,30.36,SW,215,0.0,0.0,54,0.00,,---,0.00,VWS V14.01,2013-04-24 14:48:00,
2013-04-24 08:49:00,31.8,16.6,30.36,SW,215,0.0,0.0,53,0.00,,---,0.00,VWS V14.01,2013-04-24 14:49:00,
2013-04-24 08:50:00,31.8,16.6,30.36,SW,215,0.0,0.0,53,0.00,,---,0.00,VWS V14.01,2013-04-24 14:50:00,
2013-04-24 08:51:00,31.8,16.6,30.36,SW,215,0.0,0.0,53,0.00,,---,0.00,VWS V14.01,2013-04-24 14:51:00,
2013-04-24 08:52:00,31.9,17.2,30.36,SW,215,0.0,0.0,54,0.00,,---,0.00,VWS V14.01,2013-04-24 14:52:00,
2013-04-24 08:53:00,31.9,17.2,30.36,SW,215,0.0,0.0,54,0.00,,---,0.00,VWS V14.01,2013-04-24 14:53:00,
2013-04-24 08:54:00,32.0,16.8,30.36,SW,215,0.0,2.0,53,0.00,,---,0.00,VWS V14.01,2013-04-24 14:54:00,
2013-04-24 08:57:00,32.0,16.4,30.36,SW,215,0.0,2.0,52,0.00,,---,0.00,VWS V14.01,2013-04-24 14:57:00,
2013-04-24 08:58:00,32.1,16.9,30.36,SW,215,1.0,4.0,53,0.00,,---,0.00,VWS V14.01,2013-04-24 14:58:00,
2013-04-24 08:59:00,32.1,17.3,30.36,SW,215,0.0,0.0,54,0.00,,---,0.00,VWS V14.01,2013-04-24 14:59:00,
2013-04-24 09:02:00,32.2,17.4,30.36,SW,215,0.0,0.0,54,0.00,,---,0.00,VWS V14.01,2013-04-24 15:02:00,
2013-04-24 09:03:00,32.2,17.4,30.36,SW,215,0.0,0.0,54,0.00,,---,0.00,VWS V14.01,2013-04-24 15:03:00,
2013-04-24 09:04:00,32.3,17.1,30.36,SW,215,0.0,0.0,53,0.00,,---,0.00,VWS V14.01,2013-04-24 15:04:00,
2013-04-24 09:05:00,32.3,17.1,30.36,SW,215,0.0,0.0,53,0.00,,---,0.00,VWS V14.01,2013-04-24 15:05:00,
2013-04-24 09:06:00,32.3,17.1,30.35,SW,215,0.0,0.0,53,0.00,,---,0.00,VWS V14.01,2013-04-24 15:06:00,
2013-04-24 09:09:00,32.4,16.3,30.36,SW,215,0.0,3.0,51,0.00,,---,0.00,VWS V14.01,2013-04-24 15:09:00,
2013-04-24 09:10:00,32.4,16.3,30.36,SW,215,0.0,3.0,51,0.00,,---,0.00,VWS V14.01,2013-04-24 15:10:00,
2013-04-24 09:11:00,32.4,17.2,30.36,SW,215,0.0,0.0,53,0.00,,---,0.00,VWS V14.01,2013-04-24 15:11:00,
2013-04-24 09:12:00,32.4,16.8,30.35,SW,215,0.0,0.0,52,0.00,,---,0.00,VWS V14.01,2013-04-24 15:12:00,
2013-04-24 09:13:00,32.4,16.8,30.35,SW,214,0.0,0.0,52,0.00,,---,0.00,VWS V14.01,2013-04-24 15:13:00,
2013-04-24 09:14:00,32.4,16.8,30.35,SW,214,0.0,0.0,52,0.00,,---,0.00,VWS V14.01,2013-04-24 15:14:00,
2013-04-24 09:15:00,32.4,16.8,30.35,SW,214,0.0,0.0,52,0.00,,---,0.00,VWS V14.01,2013-04-24 15:15:00,
2013-04-24 09:19:00,32.5,17.3,30.35,SW,215,0.0,0.0,53,0.00,,---,0.00,VWS V14.01,2013-04-24 15:19:00,
2013-04-24 09:20:00,32.5,17.3,30.35,SW,215,0.0,0.0,53,0.00,,---,0.00,VWS V14.01,2013-04-24 15:20:00,
2013-04-24 09:21:00,32.5,17.3,30.35,SW,214,0.0,0.0,53,0.00,,---,0.00,VWS V14.01,2013-04-24 15:21:00,
2013-04-24 09:23:00,32.5,17.3,30.35,SW,214,0.0,0.0,53,0.00,,---,0.00,VWS V14.01,2013-04-24 15:23:00,
2013-04-24 09:24:00,32.6,17.4,30.35,SW,214,0.0,0.0,53,0.00,,---,0.00,VWS V14.01,2013-04-24 15:24:00,
2013-04-24 09:25:00,32.6,17.4,30.35,SW,215,0.0,0.0,53,0.00,,---,0.00,VWS V14.01,2013-04-24 15:25:00,
2013-04-24 09:26:00,32.6,17.4,30.35,SW,215,0.0,0.0,53,0.00,,---,0.00,VWS V14.01,2013-04-24 15:26:00,
2013-04-24 09:27:00,32.6,17.4,30.35,SW,214,0.0,0.0,53,0.00,,---,0.00,VWS V14.01,2013-04-24 15:27:00,
2013-04-24 09:28:00,32.6,17.4,30.35,SW,214,0.0,0.0,53,0.00,,---,0.00,VWS V14.01,2013-04-24 15:28:00,
2013-04-24 09:29:00,32.7,17.0,30.35,SW,214,0.0,0.0,52,0.00,,---,0.00,VWS V14.01,2013-04-24 15:29:00,
2013-04-24 09:30:00,32.7,17.0,30.35,SW,215,0.0,0.0,52,0.00,,---,0.00,VWS V14.01,2013-04-24 15:30:00,
2013-04-24 09:31:00,32.7,17.0,30.35,SW,215,0.0,0.0,52,0.00,,---,0.00,VWS V14.01,2013-04-24 15:31:00,
2013-04-24 09:32:00,32.8,17.1,30.35,SW,215,0.0,0.0,52,0.00,,---,0.00,VWS V14.01,2013-04-24 15:32:00,
2013-04-24 09:33:00,32.9,17.7,30.35,SW,215,0.0,0.0,53,0.00,,---,0.00,VWS V14.01,2013-04-24 15:33:00,
2013-04-24 09:34:00,33.1,17.4,30.35,SW,215,0.0,2.0,52,0.00,,---,0.00,VWS V14.01,2013-04-24 15:34:00,
2013-04-24 09:35:00,33.1,17.4,30.35,SW,214,2.0,2.0,52,0.00,,---,0.00,VWS V14.01,2013-04-24 15:35:00,
2013-04-24 09:36:00,33.2,17.0,30.35,SW,214,3.0,3.0,51,0.00,,---,0.00,VWS V14.01,2013-04-24 15:36:00,
2013-04-24 09:37:00,33.4,17.2,30.35,SW,214,0.0,3.0,51,0.00,,---,0.00,VWS V14.01,2013-04-24 15:37:00,
2013-04-24 09:39:00,33.9,17.2,30.35,SW,214,0.0,2.0,50,0.00,,---,0.00,VWS V14.01,2013-04-24 15:39:00,
2013-04-24 09:40:00,33.9,17.2,30.35,SW,214,0.0,2.0,50,0.00,,---,0.00,VWS V14.01,2013-04-24 15:40:00,
2013-04-24 09:41:00,34.1,18.3,30.35,SW,214,0.0,0.0,52,0.00,,---,0.00,VWS V14.01,2013-04-24 15:41:00,
2013-04-24 09:43:00,34.4,18.2,30.35,ESE,107,3.0,4.0,51,0.00,,---,0.00,VWS V14.01,2013-04-24 15:43:00,
2013-04-24 09:44:00,34.7,18.0,30.35,SE,141,2.0,3.0,50,0.00,,---,0.00,VWS V14.01,2013-04-24 15:44:00,
2013-04-24 09:45:00,34.8,18.1,30.35,SE,141,0.0,3.0,50,0.00,,---,0.00,VWS V14.01,2013-04-24 15:45:00,
2013-04-24 09:47:00,35.2,17.0,30.35,SW,215,2.0,3.0,47,0.00,,---,0.00,VWS V14.01,2013-04-24 15:47:00,
2013-04-24 09:48:00,35.4,18.1,30.35,SW,215,1.0,4.0,49,0.00,,---,0.00,VWS V14.01,2013-04-24 15:48:00,
2013-04-24 09:49:00,35.7,18.0,30.35,SSW,211,1.0,1.0,48,0.00,,---,0.00,VWS V14.01,2013-04-24 15:49:00,
2013-04-24 09:50:00,35.8,18.0,30.35,SE,125,1.0,2.0,48,0.00,,---,0.00,VWS V14.01,2013-04-24 15:50:00,
2013-04-24 09:51:00,36.0,18.7,30.35,SE,125,0.0,1.0,49,0.00,,---,0.00,VWS V14.01,2013-04-24 15:51:00,
2013-04-24 09:52:00,36.2,17.9,30.35,SE,126,0.0,3.0,47,0.00,,---,0.00,VWS V14.01,2013-04-24 15:52:00,
2013-04-24 09:53:00,36.4,19.1,30.35,SE,126,0.0,0.0,49,0.00,,---,0.00,VWS V14.01,2013-04-24 15:53:00,
2013-04-24 09:54:00,36.7,17.4,30.35,SSE,159,0.0,2.0,45,0.00,,---,0.00,VWS V14.01,2013-04-24 15:54:00,
2013-04-24 09:55:00,36.8,17.5,30.35,SSE,159,0.0,2.0,45,0.00,,---,0.00,VWS V14.01,2013-04-24 15:55:00,
2013-04-24 09:56:00,36.9,19.1,30.35,SSE,159,0.0,0.0,48,0.00,,---,0.00,VWS V14.01,2013-04-24 15:56:00,
2013-04-24 09:57:00,37.1,19.2,30.35,SSE,159,2.0,2.0,48,0.00,,---,0.00,VWS V14.01,2013-04-24 15:57:00,
2013-04-24 09:58:00,37.4,19.0,30.35,SSE,157,2.0,2.0,47,0.00,,---,0.00,VWS V14.01,2013-04-24 15:58:00,
2013-04-24 09:59:00,37.8,19.4,30.35,SE,136,0.0,2.0,47,0.00,,---,0.00,VWS V14.01,2013-04-24 15:59:00,
2013-04-24 10:00:00,37.8,19.4,30.35,SE,136,0.0,2.0,47,0.00,,---,0.00,VWS V14.01,2013-04-24 16:00:00,
2013-04-24 10:02:00,38.3,19.9,30.35,SE,136,0.0,0.0,47,0.01,,---,0.01,VWS V14.01,2013-04-24 16:02:00,
2013-04-24 10:03:00,38.6,20.1,30.35,SE,136,0.0,0.0,47,0.01,,---,0.01,VWS V14.01,2013-04-24 16:03:00,
2013-04-24 10:04:00,39.0,19.5,30.35,SSW,196,3.0,4.0,45,0.01,,---,0.01,VWS V14.01,2013-04-24 16:04:00,
2013-04-24 10:05:00,39.0,19.5,30.35,SSW,196,1.0,4.0,45,0.01,,---,0.01,VWS V14.01,2013-04-24 16:05:00,
2013-04-24 10:06:00,39.2,18.6,30.35,SSW,196,0.0,4.0,43,0.01,,---,0.01,VWS V14.01,2013-04-24 16:06:00,
2013-04-24 10:07:00,39.3,18.7,30.35,SSW,196,1.0,3.0,43,0.01,,---,0.01,VWS V14.01,2013-04-24 16:07:00,
2013-04-24 10:08:00,39.4,19.3,30.35,SSW,196,1.0,2.0,44,0.01,,---,0.01,VWS V14.01,2013-04-24 16:08:00,
2013-04-24 10:09:00,39.6,19.0,30.35,SSW,196,2.0,3.0,43,0.01,,---,0.01,VWS V14.01,2013-04-24 16:09:00,
2013-04-24 10:10:00,39.6,19.0,30.35,SSW,196,1.0,3.0,43,0.01,,---,0.01,VWS V14.01,2013-04-24 16:10:00,
2013-04-24 10:11:00,39.7,19.6,30.35,SSW,197,1.0,3.0,44,0.01,,---,0.01,VWS V14.01,2013-04-24 16:11:00,
2013-04-24 10:12:00,39.8,19.1,30.35,SSW,197,0.0,3.0,43,0.01,,---,0.01,VWS V14.01,2013-04-24 16:12:00,
2013-04-24 10:13:00,39.9,21.8,30.35,SSW,196,0.0,0.0,48,0.01,,---,0.01,VWS V14.01,2013-04-24 16:13:00,
2013-04-24 10:14:00,40.2,21.1,30.34,SSW,195,0.0,0.0,46,0.01,,---,0.01,VWS V14.01,2013-04-24 16:14:00,
2013-04-24 10:15:00,40.2,21.1,30.34,SSW,195,0.0,0.0,46,0.01,,---,0.01,VWS V14.01,2013-04-24 16:15:00,
2013-04-24 10:16:00,40.4,20.2,30.35,SSW,196,1.0,1.0,44,0.01,,---,0.01,VWS V14.01,2013-04-24 16:16:00,
2013-04-24 10:18:00,40.7,21.5,30.35,SSW,196,0.0,0.0,46,0.01,,---,0.01,VWS V14.01,2013-04-24 16:18:00,
2013-04-24 10:19:00,40.9,19.6,30.35,SSW,197,1.0,3.0,42,0.01,,---,0.01,VWS V14.01,2013-04-24 16:19:00,
2013-04-24 10:20:00,40.9,19.6,30.35,SSW,197,1.0,3.0,42,0.01,,---,0.01,VWS V14.01,2013-04-24 16:20:00,
2013-04-24 10:21:00,41.1,19.2,30.35,SSW,205,3.0,4.0,41,0.01,,---,0.01,VWS V14.01,2013-04-24 16:21:00,
2013-04-24 10:22:00,41.1,17.4,30.35,SSW,205,1.0,3.0,38,0.01,,---,0.01,VWS V14.01,2013-04-24 16:22:00,
2013-04-24 10:24:00,41.5,19.6,30.35,SSW,205,0.0,2.0,41,0.01,,---,0.01,VWS V14.01,2013-04-24 16:24:00,
2013-04-24 10:25:00,41.5,19.6,30.35,SSW,205,2.0,3.0,41,0.01,,---,0.01,VWS V14.01,2013-04-24 16:25:00,
2013-04-24 10:26:00,41.6,18.5,30.35,SSW,205,2.0,2.0,39,0.01,,---,0.01,VWS V14.01,2013-04-24 16:26:00,
2013-04-24 10:29:00,41.9,18.2,30.35,SSW,206,2.0,2.0,38,0.01,,---,0.01,VWS V14.01,2013-04-24 16:29:00,
2013-04-24 10:31:00,42.0,17.6,30.35,SSW,206,0.0,4.0,37,0.01,,---,0.01,VWS V14.01,2013-04-24 16:31:00,
2013-04-24 10:32:00,42.0,17.0,30.35,SSW,206,4.0,5.0,36,0.01,,---,0.01,VWS V14.01,2013-04-24 16:32:00,
2013-04-24 10:33:00,42.0,17.0,30.35,SSW,206,1.0,4.0,36,0.01,,---,0.01,VWS V14.01,2013-04-24 16:33:00,
2013-04-24 10:34:00,42.0,18.2,30.35,SSW,206,0.0,1.0,38,0.01,,---,0.01,VWS V14.01,2013-04-24 16:34:00,
2013-04-24 10:35:00,42.0,18.2,30.35,SSW,206,0.0,1.0,38,0.01,,---,0.01,VWS V14.01,2013-04-24 16:35:00,
2013-04-24 10:39:00,42.5,19.3,30.35,SSW,211,0.0,1.0,39,0.01,,---,0.01,VWS V14.01,2013-04-24 16:39:00,
2013-04-24 10:40:00,42.5,19.3,30.35,SSW,212,2.0,2.0,39,0.01,,---,0.01,VWS V14.01,2013-04-24 16:40:00,
2013-04-24 10:41:00,42.7,18.9,30.35,SW,217,0.0,3.0,38,0.01,,---,0.01,VWS V14.01,2013-04-24 16:41:00,
2013-04-24 10:42:00,42.8,19.0,30.35,SW,217,1.0,1.0,38,0.01,,---,0.01,VWS V14.01,2013-04-24 16:42:00,
2013-04-24 10:43:00,42.8,17.7,30.35,SW,217,2.0,2.0,36,0.01,,---,0.01,VWS V14.01,2013-04-24 16:43:00,
2013-04-24 10:44:00,42.9,17.8,30.35,SW,217,3.0,3.0,36,0.01,,---,0.01,VWS V14.01,2013-04-24 16:44:00,
2013-04-24 10:45:00,42.9,17.8,30.35,SW,217,2.0,3.0,36,0.01,,---,0.01,VWS V14.01,2013-04-24 16:45:00,
2013-04-24 10:46:00,42.9,18.4,30.35,SW,217,0.0,2.0,37,0.01,,---,0.01,VWS V14.01,2013-04-24 16:46:00,
2013-04-24 10:47:00,42.9,19.1,30.35,SW,217,0.0,1.0,38,0.01,,---,0.01,VWS V14.01,2013-04-24 16:47:00,
2013-04-24 10:48:00,43.0,18.5,30.35,SW,217,0.0,0.0,37,0.01,,---,0.01,VWS V14.01,2013-04-24 16:48:00,
2013-04-24 10:49:00,43.1,18.0,30.34,SW,216,0.0,0.0,36,0.01,,---,0.01,VWS V14.01,2013-04-24 16:49:00,
2013-04-24 10:51:00,43.3,18.8,30.34,SW,215,0.0,0.0,37,0.01,,---,0.01,VWS V14.01,2013-04-24 16:51:00,
2013-04-24 10:52:00,43.4,18.9,30.34,SW,216,0.0,0.0,37,0.01,,---,0.01,VWS V14.01,2013-04-24 16:52:00,
2013-04-24 10:53:00,43.6,19.1,30.34,SW,216,0.0,0.0,37,0.01,,---,0.01,VWS V14.01,2013-04-24 16:53:00,
2013-04-24 10:54:00,43.8,18.6,30.34,SW,217,1.0,3.0,36,0.01,,---,0.01,VWS V14.01,2013-04-24 16:54:00,
2013-04-24 10:55:00,43.8,18.6,30.34,SW,217,0.0,3.0,36,0.01,,---,0.01,VWS V14.01,2013-04-24 16:55:00,
2013-04-24 10:56:00,44.0,19.4,30.34,SW,217,0.0,1.0,37,0.01,,---,0.01,VWS V14.01,2013-04-24 16:56:00,
2013-04-24 10:58:00,44.2,20.2,30.34,SW,215,1.0,2.0,38,0.01,,---,0.01,VWS V14.01,2013-04-24 16:58:00,
2013-04-24 10:59:00,44.5,19.2,30.34,SW,215,0.0,1.0,36,0.01,,---,0.01,VWS V14.01,2013-04-24 16:59:00,
2013-04-24 11:00:00,44.5,19.2,30.34,SW,215,0.0,1.0,36,0.01,,---,0.01,VWS V14.01,2013-04-24 17:00:00,
2013-04-24 11:01:00,44.6,20.0,30.34,SW,215,0.0,0.0,37,0.01,,---,0.01,VWS V14.01,2013-04-24 17:01:00,
2013-04-24 11:02:00,44.7,20.0,30.35,SW,215,0.0,1.0,37,0.01,,---,0.02,VWS V14.01,2013-04-24 17:02:00,
2013-04-24 11:03:00,44.9,20.9,30.35,SW,215,0.0,0.0,38,0.01,,---,0.02,VWS V14.01,2013-04-24 17:03:00,
2013-04-24 11:04:00,45.0,20.3,30.34,SW,215,0.0,1.0,37,0.01,,---,0.02,VWS V14.01,2013-04-24 17:04:00,
2013-04-24 11:05:00,45.1,20.4,30.34,SW,215,0.0,1.0,37,0.01,,---,0.02,VWS V14.01,2013-04-24 17:05:00,
2013-04-24 11:06:00,45.2,21.7,30.34,SW,215,0.0,0.0,39,0.01,,---,0.02,VWS V14.01,2013-04-24 17:06:00,
2013-04-24 11:07:00,45.4,20.7,30.34,SW,215,0.0,1.0,37,0.01,,---,0.02,VWS V14.01,2013-04-24 17:07:00,
2013-04-24 11:08:00,45.5,20.1,30.34,SW,214,0.0,2.0,36,0.01,,---,0.02,VWS V14.01,2013-04-24 17:08:00,
2013-04-24 11:09:00,45.8,21.0,30.34,SW,214,0.0,0.0,37,0.01,,---,0.02,VWS V14.01,2013-04-24 17:09:00,
2013-04-24 11:10:00,45.8,21.0,30.34,SW,214,0.0,0.0,37,0.01,,---,0.02,VWS V14.01,2013-04-24 17:10:00,
2013-04-24 11:11:00,45.9,20.5,30.34,SSW,212,0.0,2.0,36,0.01,,---,0.02,VWS V14.01,2013-04-24 17:11:00,
2013-04-24 11:12:00,46.0,21.2,30.34,NE,56,2.0,3.0,37,0.01,,---,0.02,VWS V14.01,2013-04-24 17:12:00,
2013-04-24 11:13:00,46.0,19.9,30.34,NE,56,0.0,2.0,35,0.01,,---,0.02,VWS V14.01,2013-04-24 17:13:00,
2013-04-24 11:14:00,46.0,18.5,30.34,ENE,65,2.0,4.0,33,0.01,,---,0.02,VWS V14.01,2013-04-24 17:14:00,
2013-04-24 11:15:00,46.0,18.5,30.34,ENE,69,3.0,4.0,33,0.01,,---,0.02,VWS V14.01,2013-04-24 17:15:00,
2013-04-24 11:16:00,46.0,17.8,30.34,East,80,4.0,4.0,32,0.01,,---,0.02,VWS V14.01,2013-04-24 17:16:00,
2013-04-24 11:17:00,45.9,18.4,30.34,East,80,1.0,4.0,33,0.01,,---,0.02,VWS V14.01,2013-04-24 17:17:00,
2013-04-24 11:18:00,45.8,19.7,30.34,East,80,0.0,1.0,35,0.01,,---,0.02,VWS V14.01,2013-04-24 17:18:00,
2013-04-24 11:19:00,45.8,20.4,30.34,East,80,0.0,0.0,36,0.01,,---,0.02,VWS V14.01,2013-04-24 17:19:00,
2013-04-24 11:20:00,45.8,20.4,30.34,East,80,0.0,0.0,36,0.01,,---,0.02,VWS V14.01,2013-04-24 17:20:00,
2013-04-24 11:21:00,45.8,21.0,30.34,East,80,2.0,2.0,37,0.01,,---,0.02,VWS V14.01,2013-04-24 17:21:00,
2013-04-24 11:22:00,45.9,20.5,30.34,East,80,0.0,2.0,36,0.01,,---,0.02,VWS V14.01,2013-04-24 17:22:00,
2013-04-24 11:23:00,45.9,19.1,30.34,East,82,1.0,3.0,34,0.01,,---,0.02,VWS V14.01,2013-04-24 17:23:00,
2013-04-24 11:24:00,45.9,19.8,30.34,East,82,1.0,2.0,35,0.01,,---,0.02,VWS V14.01,2013-04-24 17:24:00,
2013-04-24 11:25:00,45.9,21.1,30.34,East,82,0.0,2.0,37,0.01,,---,0.02,VWS V14.01,2013-04-24 17:25:00,
2013-04-24 11:26:00,45.9,19.1,30.34,East,82,1.0,1.0,34,0.01,,---,0.02,VWS V14.01,2013-04-24 17:26:00,
2013-04-24 11:27:00,46.0,21.2,30.34,East,82,0.0,1.0,37,0.01,,---,0.02,VWS V14.01,2013-04-24 17:27:00,
2013-04-24 11:28:00,46.0,20.6,30.34,East,89,0.0,0.0,36,0.01,,---,0.02,VWS V14.01,2013-04-24 17:28:00,
2013-04-24 11:29:00,46.0,20.6,30.34,SW,214,2.0,3.0,36,0.01,,---,0.02,VWS V14.01,2013-04-24 17:29:00,
2013-04-24 11:30:00,46.1,20.6,30.34,SW,226,4.0,4.0,36,0.01,,---,0.02,VWS V14.01,2013-04-24 17:30:00,
2013-04-24 11:31:00,46.1,20.0,30.34,West,279,3.0,6.0,35,0.01,,---,0.02,VWS V14.01,2013-04-24 17:31:00,
2013-04-24 11:32:00,46.0,19.2,30.34,West,279,0.0,3.0,34,0.01,,---,0.02,VWS V14.01,2013-04-24 17:32:00,
2013-04-24 11:33:00,46.0,19.2,30.34,West,277,0.0,2.0,34,0.01,,---,0.02,VWS V14.01,2013-04-24 17:33:00,
2013-04-24 11:34:00,46.1,19.3,30.34,WSW,255,0.0,4.0,34,0.01,,---,0.02,VWS V14.01,2013-04-24 17:34:00,
2013-04-24 11:35:00,46.1,19.3,30.34,WSW,250,0.0,4.0,34,0.01,,---,0.02,VWS V14.01,2013-04-24 17:35:00,
2013-04-24 11:36:00,46.1,20.0,30.34,WSW,250,0.0,1.0,35,0.01,,---,0.02,VWS V14.01,2013-04-24 17:36:00,
2013-04-24 11:37:00,46.2,20.7,30.34,WSW,250,0.0,0.0,36,0.01,,---,0.02,VWS V14.01,2013-04-24 17:37:00,
2013-04-24 11:38:00,46.3,20.8,30.34,WSW,254,1.0,1.0,36,0.01,,---,0.02,VWS V14.01,2013-04-24 17:38:00,
2013-04-24 11:39:00,46.4,19.6,30.34,WSW,254,0.0,1.0,34,0.01,,---,0.02,VWS V14.01,2013-04-24 17:39:00,
2013-04-24 11:40:00,46.4,19.6,30.34,WSW,254,0.0,1.0,34,0.01,,---,0.02,VWS V14.01,2013-04-24 17:40:00,
2013-04-24 11:41:00,46.5,19.7,30.34,WSW,254,0.0,0.0,34,0.01,,---,0.02,VWS V14.01,2013-04-24 17:41:00,
2013-04-24 11:42:00,46.6,19.8,30.34,WSW,254,0.0,0.0,34,0.01,,---,0.02,VWS V14.01,2013-04-24 17:42:00,
2013-04-24 11:43:00,46.7,19.8,30.34,WSW,252,1.0,4.0,34,0.01,,---,0.02,VWS V14.01,2013-04-24 17:43:00,
2013-04-24 11:44:00,46.8,21.3,30.33,WSW,247,0.0,1.0,36,0.01,,---,0.02,VWS V14.01,2013-04-24 17:44:00,
2013-04-24 11:45:00,46.8,21.3,30.33,WSW,247,0.0,1.0,36,0.01,,---,0.02,VWS V14.01,2013-04-24 17:45:00,
2013-04-24 11:46:00,46.9,22.0,30.33,WSW,246,1.0,1.0,37,0.01,,---,0.02,VWS V14.01,2013-04-24 17:46:00,
2013-04-24 11:47:00,47.0,22.1,30.33,SW,234,3.0,6.0,37,0.01,,---,0.02,VWS V14.01,2013-04-24 17:47:00,
2013-04-24 11:48:00,47.0,21.5,30.34,SW,234,0.0,3.0,36,0.01,,---,0.02,VWS V14.01,2013-04-24 17:48:00,
2013-04-24 11:49:00,47.2,21.6,30.33,SW,232,4.0,4.0,36,0.01,,---,0.02,VWS V14.01,2013-04-24 17:49:00,
2013-04-24 11:50:00,47.2,21.6,30.33,SW,229,2.0,4.0,36,0.01,,---,0.02,VWS V14.01,2013-04-24 17:50:00,
2013-04-24 11:51:00,47.2,19.6,30.33,SW,229,0.0,3.0,33,0.01,,---,0.02,VWS V14.01,2013-04-24 17:51:00,
2013-04-24 11:52:00,47.2,21.0,30.33,SW,229,3.0,4.0,35,0.01,,---,0.02,VWS V14.01,2013-04-24 17:52:00,
2013-04-24 11:53:00,47.2,19.6,30.33,SW,229,0.0,3.0,33,0.01,,---,0.02,VWS V14.01,2013-04-24 17:53:00,
2013-04-24 11:54:00,47.3,22.4,30.33,NW,311,6.0,6.0,37,0.01,,---,0.02,VWS V14.01,2013-04-24 17:54:00,
2013-04-24 11:55:00,47.3,20.4,30.33,NW,311,3.0,6.0,34,0.01,,---,0.02,VWS V14.01,2013-04-24 17:55:00,
2013-04-24 11:56:00,47.3,19.0,30.33,NW,311,2.0,4.0,32,0.01,,---,0.02,VWS V14.01,2013-04-24 17:56:00,
2013-04-24 11:57:00,47.3,19.7,30.33,NW,310,0.0,4.0,33,0.01,,---,0.02,VWS V14.01,2013-04-24 17:57:00,
2013-04-24 11:58:00,47.3,21.7,30.33,NW,310,0.0,1.0,36,0.01,,---,0.02,VWS V14.01,2013-04-24 17:58:00,
2013-04-24 11:59:00,47.3,19.0,30.33,SSW,209,0.0,3.0,32,0.01,,---,0.02,VWS V14.01,2013-04-24 17:59:00,
2013-04-24 12:00:00,47.3,20.4,30.33,SSW,207,1.0,3.0,34,0.01,,---,0.02,VWS V14.01,2013-04-24 18:00:00,
2013-04-24 12:01:00,47.3,19.7,30.33,SSW,207,1.0,4.0,33,0.01,,---,0.02,VWS V14.01,2013-04-24 18:01:00,
2013-04-24 12:02:00,47.4,21.8,30.33,SSW,208,1.0,4.0,36,0.01,,---,0.02,VWS V14.01,2013-04-24 18:02:00,
2013-04-24 12:03:00,47.4,21.1,30.33,SSW,204,2.0,7.0,35,0.00,,---,0.02,VWS V14.01,2013-04-24 18:03:00,
2013-04-24 12:04:00,47.6,22.0,30.33,SW,219,1.0,5.0,36,0.00,,---,0.02,VWS V14.01,2013-04-24 18:04:00,
2013-04-24 12:05:00,47.6,22.0,30.33,SW,219,0.0,5.0,36,0.00,,---,0.02,VWS V14.01,2013-04-24 18:05:00,
2013-04-24 12:06:00,47.6,21.3,30.33,SW,222,0.0,3.0,35,0.00,,---,0.02,VWS V14.01,2013-04-24 18:06:00,
2013-04-24 12:07:00,47.7,20.0,30.33,SSW,195,2.0,5.0,33,0.00,,---,0.02,VWS V14.01,2013-04-24 18:07:00,
2013-04-24 12:08:00,47.7,21.4,30.33,SSW,196,1.0,3.0,35,0.00,,---,0.02,VWS V14.01,2013-04-24 18:08:00,
2013-04-24 12:09:00,47.9,21.6,30.33,SSW,201,2.0,2.0,35,0.00,,---,0.02,VWS V14.01,2013-04-24 18:09:00,
2013-04-24 12:10:00,47.9,21.6,30.33,SSW,213,0.0,3.0,35,0.00,,---,0.02,VWS V14.01,2013-04-24 18:10:00,
2013-04-24 12:11:00,48.1,21.8,30.33,SW,217,1.0,3.0,35,0.00,,---,0.02,VWS V14.01,2013-04-24 18:11:00,
2013-04-24 12:12:00,48.2,20.5,30.33,WNW,303,3.0,5.0,33,0.00,,---,0.02,VWS V14.01,2013-04-24 18:12:00,
2013-04-24 12:13:00,48.3,19.1,30.32,WSW,242,4.0,4.0,31,0.00,,---,0.02,VWS V14.01,2013-04-24 18:13:00,
2013-04-24 12:14:00,48.4,20.6,30.32,WSW,241,1.0,1.0,33,0.00,,---,0.02,VWS V14.01,2013-04-24 18:14:00,
2013-04-24 12:15:00,48.5,20.7,30.32,WSW,241,0.0,1.0,33,0.00,,---,0.02,VWS V14.01,2013-04-24 18:15:00,
2013-04-24 12:16:00,48.6,21.5,30.32,SSW,209,1.0,3.0,34,0.00,,---,0.02,VWS V14.01,2013-04-24 18:16:00,
2013-04-24 12:17:00,48.7,20.9,30.32,SSW,202,3.0,9.0,33,0.00,,---,0.02,VWS V14.01,2013-04-24 18:17:00,
2013-04-24 12:18:00,48.7,20.2,30.32,SSW,208,6.0,6.0,32,0.00,,---,0.02,VWS V14.01,2013-04-24 18:18:00,
2013-04-24 12:19:00,48.7,18.7,30.32,West,268,3.0,5.0,30,0.00,,---,0.02,VWS V14.01,2013-04-24 18:19:00,
2013-04-24 12:20:00,48.8,18.8,30.32,West,268,2.0,5.0,30,0.00,,---,0.02,VWS V14.01,2013-04-24 18:20:00,
2013-04-24 12:21:00,48.8,20.3,30.32,West,277,2.0,3.0,32,0.00,,---,0.02,VWS V14.01,2013-04-24 18:21:00,
2013-04-24 12:22:00,48.9,20.4,30.32,WNW,296,6.0,6.0,32,0.00,,---,0.02,VWS V14.01,2013-04-24 18:22:00,
2013-04-24 12:23:00,48.9,18.1,30.32,NW,304,4.0,7.0,29,0.00,,---,0.02,VWS V14.01,2013-04-24 18:23:00,
2013-04-24 12:24:00,48.9,19.6,30.32,NW,306,2.0,4.0,31,0.00,,---,0.02,VWS V14.01,2013-04-24 18:24:00,
2013-04-24 12:25:00,48.9,19.6,30.32,NW,306,2.0,4.0,31,0.00,,---,0.02,VWS V14.01,2013-04-24 18:25:00,
2013-04-24 12:26:00,48.9,18.9,30.32,West,265,2.0,6.0,30,0.00,,---,0.02,VWS V14.01,2013-04-24 18:26:00,
2013-04-24 12:27:00,49.0,20.4,30.32,West,265,1.0,2.0,32,0.00,,---,0.02,VWS V14.01,2013-04-24 18:27:00,
2013-04-24 12:28:00,49.1,22.6,30.32,West,265,0.0,1.0,35,0.00,,---,0.02,VWS V14.01,2013-04-24 18:28:00,
2013-04-24 12:29:00,49.2,19.1,30.31,NW,316,3.0,9.0,30,0.00,,---,0.02,VWS V14.01,2013-04-24 18:29:00,
2013-04-24 12:30:00,49.2,19.1,30.31,NW,315,5.0,9.0,30,0.00,,---,0.02,VWS V14.01,2013-04-24 18:30:00,
2013-04-24 12:31:00,49.2,19.1,30.31,NW,307,0.0,6.0,30,0.00,,---,0.02,VWS V14.01,2013-04-24 18:31:00,
2013-04-24 12:32:00,49.2,20.6,30.31,NW,307,0.0,1.0,32,0.00,,---,0.02,VWS V14.01,2013-04-24 18:32:00,
2013-04-24 12:33:00,49.3,19.2,30.31,NW,307,2.0,3.0,30,0.00,,---,0.02,VWS V14.01,2013-04-24 18:33:00,
2013-04-24 12:34:00,49.2,19.1,30.31,West,263,2.0,7.0,30,0.00,,---,0.02,VWS V14.01,2013-04-24 18:34:00,
2013-04-24 12:35:00,49.2,20.6,30.31,NW,307,5.0,7.0,32,0.00,,---,0.02,VWS V14.01,2013-04-24 18:35:00,
2013-04-24 12:36:00,49.2,19.1,30.32,WNW,296,7.0,9.0,30,0.00,,---,0.02,VWS V14.01,2013-04-24 18:36:00,
2013-04-24 12:37:00,49.3,18.4,30.31,NW,313,1.0,7.0,29,0.00,,---,0.02,VWS V14.01,2013-04-24 18:37:00,
2013-04-24 12:38:00,49.3,20.0,30.31,WNW,287,0.0,3.0,31,0.00,,---,0.02,VWS V14.01,2013-04-24 18:38:00,
2013-04-24 12:39:00,49.6,21.7,30.31,ESE,108,2.0,3.0,33,0.00,,---,0.02,VWS V14.01,2013-04-24 18:39:00,
2013-04-24 12:40:00,49.6,21.7,30.31,East,99,0.0,3.0,33,0.00,,---,0.02,VWS V14.01,2013-04-24 18:40:00,
2013-04-24 12:41:00,49.7,18.8,30.31,East,99,2.0,2.0,29,0.00,,---,0.02,VWS V14.01,2013-04-24 18:41:00,
2013-04-24 12:42:00,49.7,18.8,30.31,East,91,0.0,3.0,29,0.00,,---,0.02,VWS V14.01,2013-04-24 18:42:00,
2013-04-24 12:43:00,49.7,17.9,30.31,WNW,292,0.0,5.0,28,0.00,,---,0.02,VWS V14.01,2013-04-24 18:43:00,
2013-04-24 12:44:00,49.8,20.4,30.31,WNW,292,2.0,3.0,31,0.00,,---,0.02,VWS V14.01,2013-04-24 18:44:00,
2013-04-24 12:45:00,49.8,20.4,30.31,NW,305,6.0,6.0,31,0.00,,---,0.02,VWS V14.01,2013-04-24 18:45:00,
2013-04-24 12:46:00,49.9,18.9,30.31,NW,304,0.0,6.0,29,0.00,,---,0.02,VWS V14.01,2013-04-24 18:46:00,
2013-04-24 12:47:00,49.9,22.0,30.31,NW,304,1.0,1.0,33,0.00,,---,0.02,VWS V14.01,2013-04-24 18:47:00,
2013-04-24 12:48:00,50.0,19.8,30.31,North,360,0.0,2.0,30,0.00,,---,0.02,VWS V14.01,2013-04-24 18:48:00,
2013-04-24 12:49:00,50.1,20.7,30.31,North,360,1.0,6.0,31,0.00,,---,0.02,VWS V14.01,2013-04-24 18:49:00,
2013-04-24 12:50:00,50.1,20.7,30.31,NE,46,1.0,6.0,31,0.00,,---,0.02,VWS V14.01,2013-04-24 18:50:00,
2013-04-24 12:51:00,50.2,20.8,30.31,NE,50,1.0,3.0,31,0.00,,---,0.02,VWS V14.01,2013-04-24 18:51:00,
2013-04-24 12:52:00,50.3,20.1,30.31,NE,51,0.0,1.0,30,0.00,,---,0.02,VWS V14.01,2013-04-24 18:52:00,
2013-04-24 12:53:00,50.3,21.6,30.31,NE,51,0.0,0.0,32,0.00,,---,0.02,VWS V14.01,2013-04-24 18:53:00,
2013-04-24 12:54:00,50.4,20.9,30.31,NE,51,2.0,2.0,31,0.00,,---,0.02,VWS V14.01,2013-04-24 18:54:00,
2013-04-24 12:55:00,50.4,20.9,30.31,NE,51,2.0,4.0,31,0.00,,---,0.02,VWS V14.01,2013-04-24 18:55:00,
2013-04-24 12:56:00,50.5,21.8,30.31,WSW,252,2.0,4.0,32,0.00,,---,0.02,VWS V14.01,2013-04-24 18:56:00,
2013-04-24 12:57:00,50.5,21.0,30.31,WSW,252,0.0,2.0,31,0.00,,---,0.02,VWS V14.01,2013-04-24 18:57:00,
2013-04-24 12:58:00,50.5,18.6,30.31,WSW,252,0.0,0.0,28,0.00,,---,0.02,VWS V14.01,2013-04-24 18:58:00,
2013-04-24 12:59:00,50.4,18.5,30.31,WSW,252,2.0,3.0,28,0.00,,---,0.02,VWS V14.01,2013-04-24 18:59:00,
2013-04-24 13:00:00,50.4,20.1,30.31,WSW,256,1.0,3.0,30,0.00,,---,0.02,VWS V14.01,2013-04-24 19:00:00,
2013-04-24 13:01:00,50.4,20.1,30.31,WSW,257,1.0,1.0,30,0.00,,---,0.02,VWS V14.01,2013-04-24 19:01:00,
2013-04-24 13:02:00,50.4,19.4,30.31,West,267,3.0,3.0,29,0.00,,---,0.02,VWS V14.01,2013-04-24 19:02:00,
2013-04-24 13:03:00,50.5,19.5,30.32,WNW,282,3.0,3.0,29,0.00,,---,0.02,VWS V14.01,2013-04-24 19:03:00,
2013-04-24 13:04:00,50.5,21.0,30.32,NW,308,1.0,2.0,31,0.00,,---,0.02,VWS V14.01,2013-04-24 19:04:00,
2013-04-24 13:05:00,50.4,21.7,30.32,NNW,339,2.0,2.0,32,0.00,,---,0.02,VWS V14.01,2013-04-24 19:05:00,
2013-04-24 13:06:00,50.5,21.8,30.32,NE,56,2.0,2.0,32,0.00,,---,0.02,VWS V14.01,2013-04-24 19:06:00,
2013-04-24 13:07:00,50.6,21.9,30.31,ENE,64,0.0,2.0,32,0.00,,---,0.02,VWS V14.01,2013-04-24 19:07:00,
2013-04-24 13:08:00,50.8,22.0,30.31,NW,322,3.0,4.0,32,0.00,,---,0.02,VWS V14.01,2013-04-24 19:08:00,
2013-04-24 13:09:00,50.8,19.7,30.31,NW,308,3.0,7.0,29,0.00,,---,0.02,VWS V14.01,2013-04-24 19:09:00,
2013-04-24 13:10:00,50.8,19.7,30.31,NW,308,3.0,7.0,29,0.00,,---,0.02,VWS V14.01,2013-04-24 19:10:00,
2013-04-24 13:11:00,50.7,19.6,30.31,NW,308,0.0,3.0,29,0.00,,---,0.02,VWS V14.01,2013-04-24 19:11:00,
2013-04-24 13:12:00,50.6,19.5,30.31,NW,308,0.0,0.0,29,0.00,,---,0.02,VWS V14.01,2013-04-24 19:12:00,
2013-04-24 13:13:00,50.6,20.3,30.31,NW,309,1.0,1.0,30,0.00,,---,0.02,VWS V14.01,2013-04-24 19:13:00,
2013-04-24 13:14:00,50.6,21.9,30.31,NE,51,0.0,2.0,32,0.00,,---,0.02,VWS V14.01,2013-04-24 19:14:00,
2013-04-24 13:15:00,50.5,21.8,30.31,NE,50,0.0,2.0,32,0.00,,---,0.02,VWS V14.01,2013-04-24 19:15:00,
2013-04-24 13:16:00,50.6,22.6,30.31,NNE,29,2.0,2.0,33,0.00,,---,0.02,VWS V14.01,2013-04-24 19:16:00,
2013-04-24 13:17:00,50.6,20.3,30.31,NW,307,3.0,6.0,30,0.01,,---,0.03,VWS V14.01,2013-04-24 19:17:00,
2013-04-24 13:18:00,50.5,21.0,30.31,NW,315,5.0,5.0,31,0.01,,---,0.03,VWS V14.01,2013-04-24 19:18:00,
2013-04-24 13:19:00,50.4,21.7,30.31,NW,311,0.0,4.0,32,0.01,,---,0.03,VWS V14.01,2013-04-24 19:19:00,
2013-04-24 13:20:00,50.4,21.7,30.31,NW,311,0.0,4.0,32,0.01,,---,0.03,VWS V14.01,2013-04-24 19:20:00,
2013-04-24 13:21:00,50.4,20.9,30.31,East,84,3.0,3.0,31,0.01,,---,0.03,VWS V14.01,2013-04-24 19:21:00,
2013-04-24 13:22:00,50.4,21.7,30.31,East,86,2.0,4.0,32,0.01,,---,0.03,VWS V14.01,2013-04-24 19:22:00,
2013-04-24 13:23:00,50.4,21.7,30.31,East,86,1.0,2.0,32,0.01,,---,0.03,VWS V14.01,2013-04-24 19:23:00,
2013-04-24 13:24:00,50.4,21.7,30.31,ENE,65,2.0,2.0,32,0.01,,---,0.03,VWS V14.01,2013-04-24 19:24:00,
2013-04-24 13:25:00,50.4,21.7,30.31,ENE,65,1.0,2.0,32,0.01,,---,0.03,VWS V14.01,2013-04-24 19:25:00,
2013-04-24 13:26:00,50.4,20.9,30.31,ENE,61,0.0,3.0,31,0.01,,---,0.03,VWS V14.01,2013-04-24 19:26:00,
2013-04-24 13:27:00,50.4,21.7,30.31,NE,40,2.0,3.0,32,0.01,,---,0.03,VWS V14.01,2013-04-24 19:27:00,
2013-04-24 13:28:00,50.4,20.9,30.31,NE,40,0.0,2.0,31,0.01,,---,0.03,VWS V14.01,2013-04-24 19:28:00,
2013-04-24 13:29:00,50.4,20.1,30.31,NE,41,0.0,1.0,30,0.01,,---,0.03,VWS V14.01,2013-04-24 19:29:00,
2013-04-24 13:30:00,50.4,20.1,30.31,NE,42,0.0,1.0,30,0.01,,---,0.03,VWS V14.01,2013-04-24 19:30:00,
2013-04-24 13:31:00,50.4,20.1,30.31,NE,40,1.0,2.0,30,0.01,,---,0.03,VWS V14.01,2013-04-24 19:31:00,
2013-04-24 13:32:00,50.4,20.9,30.31,NE,41,3.0,3.0,31,0.01,,---,0.03,VWS V14.01,2013-04-24 19:32:00,
2013-04-24 13:33:00,50.3,20.1,30.31,NE,41,0.0,3.0,30,0.01,,---,0.03,VWS V14.01,2013-04-24 19:33:00,
2013-04-24 13:34:00,50.3,20.1,30.31,NE,42,0.0,1.0,30,0.01,,---,0.03,VWS V14.01,2013-04-24 19:34:00,
2013-04-24 13:35:00,50.3,20.1,30.31,NE,42,0.0,1.0,30,0.01,,---,0.03,VWS V14.01,2013-04-24 19:35:00,
2013-04-24 13:36:00,50.3,20.8,30.31,NE,42,0.0,0.0,31,0.01,,---,0.03,VWS V14.01,2013-04-24 19:36:00,
2013-04-24 13:37:00,50.3,20.1,30.31,North,5,1.0,4.0,30,0.01,,---,0.03,VWS V14.01,2013-04-24 19:37:00,
2013-04-24 13:38:00,50.4,20.9,30.31,WNW,296,0.0,6.0,31,0.01,,---,0.03,VWS V14.01,2013-04-24 19:38:00,
2013-04-24 13:39:00,50.5,19.5,30.31,West,277,0.0,3.0,29,0.01,,---,0.03,VWS V14.01,2013-04-24 19:39:00,
2013-04-24 13:40:00,50.5,21.8,30.31,West,277,1.0,3.0,32,0.01,,---,0.03,VWS V14.01,2013-04-24 19:40:00,
2013-04-24 13:41:00,50.6,21.1,30.31,West,259,6.0,6.0,31,0.01,,---,0.03,VWS V14.01,2013-04-24 19:41:00,
2013-04-24 13:42:00,50.7,19.6,30.31,NNW,327,2.0,9.0,29,0.01,,---,0.03,VWS V14.01,2013-04-24 19:42:00,
2013-04-24 13:43:00,50.7,19.6,30.31,NW,325,1.0,3.0,29,0.01,,---,0.03,VWS V14.01,2013-04-24 19:43:00,
2013-04-24 13:44:00,50.6,18.7,30.31,NW,321,1.0,3.0,28,0.01,,---,0.03,VWS V14.01,2013-04-24 19:44:00,
2013-04-24 13:45:00,50.6,18.7,30.31,NW,325,1.0,3.0,28,0.01,,---,0.03,VWS V14.01,2013-04-24 19:45:00,
2013-04-24 13:46:00,50.6,21.1,30.31,NW,320,1.0,5.0,31,0.01,,---,0.03,VWS V14.01,2013-04-24 19:46:00,
2013-04-24 13:47:00,50.6,18.7,30.31,NW,304,0.0,5.0,28,0.01,,---,0.03,VWS V14.01,2013-04-24 19:47:00,
2013-04-24 13:48:00,50.6,19.5,30.30,WSW,244,1.0,5.0,29,0.01,,---,0.03,VWS V14.01,2013-04-24 19:48:00,
2013-04-24 13:49:00,50.6,20.3,30.31,WSW,244,1.0,2.0,30,0.01,,---,0.03,VWS V14.01,2013-04-24 19:49:00,
2013-04-24 13:50:00,50.7,20.4,30.31,WSW,244,0.0,2.0,30,0.01,,---,0.03,VWS V14.01,2013-04-24 19:50:00,
2013-04-24 13:51:00,50.8,21.3,30.31,WSW,244,0.0,0.0,31,0.01,,---,0.03,VWS V14.01,2013-04-24 19:51:00,
2013-04-24 13:52:00,50.9,21.4,30.30,NNE,19,1.0,5.0,31,0.01,,---,0.03,VWS V14.01,2013-04-24 19:52:00,
2013-04-24 13:53:00,51.0,19.1,30.31,SE,136,0.0,1.0,28,0.01,,---,0.03,VWS V14.01,2013-04-24 19:53:00,
2013-04-24 13:54:00,50.9,19.8,30.31,NW,310,4.0,4.0,29,0.01,,---,0.03,VWS V14.01,2013-04-24 19:54:00,
2013-04-24 13:55:00,50.9,19.8,30.31,NW,306,3.0,4.0,29,0.01,,---,0.03,VWS V14.01,2013-04-24 19:55:00,
2013-04-24 13:56:00,50.9,17.2,30.31,NW,305,1.0,4.0,26,0.01,,---,0.03,VWS V14.01,2013-04-24 19:56:00,
2013-04-24 13:57:00,50.8,20.5,30.30,NW,304,0.0,2.0,30,0.01,,---,0.03,VWS V14.01,2013-04-24 19:57:00,
2013-04-24 13:58:00,50.9,20.6,30.30,NW,305,0.0,1.0,30,0.01,,---,0.03,VWS V14.01,2013-04-24 19:58:00,
2013-04-24 13:59:00,50.9,20.6,30.30,NW,304,2.0,3.0,30,0.01,,---,0.03,VWS V14.01,2013-04-24 19:59:00,
2013-04-24 14:00:00,50.9,20.6,30.30,NW,304,3.0,3.0,30,0.01,,---,0.03,VWS V14.01,2013-04-24 20:00:00,
2013-04-24 14:01:00,50.9,19.0,30.30,WNW,303,1.0,3.0,28,0.01,,---,0.03,VWS V14.01,2013-04-24 20:01:00,
2013-04-24 14:02:00,50.8,18.0,30.30,WNW,303,0.0,2.0,27,0.01,,---,0.03,VWS V14.01,2013-04-24 20:02:00,
2013-04-24 14:03:00,50.8,19.7,30.30,WNW,303,0.0,0.0,29,0.01,,---,0.03,VWS V14.01,2013-04-24 20:03:00,
2013-04-24 14:04:00,50.9,21.4,30.30,WNW,303,0.0,0.0,31,0.01,,---,0.03,VWS V14.01,2013-04-24 20:04:00,
2013-04-24 14:05:00,50.9,19.0,30.30,WNW,303,0.0,0.0,28,0.01,,---,0.03,VWS V14.01,2013-04-24 20:05:00,
2013-04-24 14:06:00,50.9,20.6,30.30,East,94,1.0,2.0,30,0.01,,---,0.03,VWS V14.01,2013-04-24 20:06:00,
2013-04-24 14:07:00,51.0,19.1,30.30,East,94,2.0,2.0,28,0.01,,---,0.03,VWS V14.01,2013-04-24 20:07:00,
2013-04-24 14:08:00,51.0,18.2,30.30,West,269,3.0,4.0,27,0.01,,---,0.03,VWS V14.01,2013-04-24 20:08:00,
2013-04-24 14:09:00,51.2,19.2,30.31,WNW,303,3.0,5.0,28,0.01,,---,0.03,VWS V14.01,2013-04-24 20:09:00,
2013-04-24 14:10:00,51.2,20.0,30.31,NW,306,0.0,5.0,29,0.01,,---,0.03,VWS V14.01,2013-04-24 20:10:00,
2013-04-24 14:11:00,51.2,19.2,30.30,NW,306,1.0,1.0,28,0.01,,---,0.03,VWS V14.01,2013-04-24 20:11:00,
2013-04-24 14:12:00,51.3,20.1,30.30,NW,306,0.0,1.0,29,0.01,,---,0.03,VWS V14.01,2013-04-24 20:12:00,
2013-04-24 14:13:00,51.3,20.9,30.30,NW,306,0.0,0.0,30,0.01,,---,0.03,VWS V14.01,2013-04-24 20:13:00,
2013-04-24 14:14:00,51.4,19.4,30.30,NW,306,0.0,0.0,28,0.01,,---,0.03,VWS V14.01,2013-04-24 20:14:00,
2013-04-24 14:15:00,51.4,19.4,30.30,NW,306,0.0,0.0,28,0.01,,---,0.03,VWS V14.01,2013-04-24 20:15:00,
2013-04-24 14:16:00,51.5,20.3,30.30,NW,306,2.0,2.0,29,0.01,,---,0.03,VWS V14.01,2013-04-24 20:16:00,
2013-04-24 14:17:00,51.5,18.6,30.30,NNW,332,3.0,7.0,27,0.01,,---,0.03,VWS V14.01,2013-04-24 20:17:00,
2013-04-24 14:18:00,51.5,18.6,30.30,NNW,333,0.0,4.0,27,0.00,,---,0.03,VWS V14.01,2013-04-24 20:18:00,
2013-04-24 14:19:00,51.5,20.3,30.30,NNW,340,0.0,0.0,29,0.00,,---,0.03,VWS V14.01,2013-04-24 20:19:00,
2013-04-24 14:20:00,51.5,20.3,30.30,East,88,2.0,3.0,29,0.00,,---,0.03,VWS V14.01,2013-04-24 20:20:00,
2013-04-24 14:21:00,51.6,20.4,30.30,East,87,1.0,4.0,29,0.00,,---,0.03,VWS V14.01,2013-04-24 20:21:00,
2013-04-24 14:22:00,51.7,20.5,30.30,WNW,299,3.0,3.0,29,0.00,,---,0.03,VWS V14.01,2013-04-24 20:22:00,
2013-04-24 14:23:00,51.7,19.7,30.30,NW,309,2.0,4.0,28,0.00,,---,0.03,VWS V14.01,2013-04-24 20:23:00,
2013-04-24 14:24:00,51.8,21.4,30.30,NW,309,1.0,3.0,30,0.00,,---,0.03,VWS V14.01,2013-04-24 20:24:00,
2013-04-24 14:25:00,51.8,21.4,30.30,NW,308,3.0,5.0,30,0.00,,---,0.03,VWS V14.01,2013-04-24 20:25:00,
2013-04-24 14:26:00,51.9,19.8,30.30,WSW,252,1.0,4.0,28,0.00,,---,0.03,VWS V14.01,2013-04-24 20:26:00,
2013-04-24 14:27:00,52.0,19.9,30.30,WSW,252,1.0,2.0,28,0.00,,---,0.03,VWS V14.01,2013-04-24 20:27:00,
2013-04-24 14:28:00,52.1,18.3,30.30,West,277,1.0,3.0,26,0.00,,---,0.03,VWS V14.01,2013-04-24 20:28:00,
2013-04-24 14:29:00,51.9,18.1,30.30,East,87,0.0,1.0,26,0.00,,---,0.03,VWS V14.01,2013-04-24 20:29:00,
2013-04-24 14:30:00,51.9,18.1,30.30,North,355,4.0,4.0,26,0.00,,---,0.03,VWS V14.01,2013-04-24 20:30:00,
2013-04-24 14:31:00,51.9,19.8,30.29,NNW,337,2.0,4.0,28,0.00,,---,0.03,VWS V14.01,2013-04-24 20:31:00,
2013-04-24 14:32:00,51.9,19.8,30.29,NNW,337,0.0,3.0,28,0.00,,---,0.03,VWS V14.01,2013-04-24 20:32:00,
2013-04-24 14:33:00,51.8,19.8,30.30,NNW,346,2.0,2.0,28,0.00,,---,0.03,VWS V14.01,2013-04-24 20:33:00,
2013-04-24 14:34:00,51.7,19.7,30.29,NNW,346,0.0,1.0,28,0.00,,---,0.03,VWS V14.01,2013-04-24 20:34:00,
2013-04-24 14:35:00,51.7,19.7,30.29,NNW,346,0.0,1.0,28,0.00,,---,0.03,VWS V14.01,2013-04-24 20:35:00,
2013-04-24 14:36:00,51.8,19.8,30.29,NNW,346,1.0,1.0,28,0.00,,---,0.03,VWS V14.01,2013-04-24 20:36:00,
2013-04-24 14:37:00,51.7,18.8,30.29,NNW,346,0.0,1.0,27,0.00,,---,0.03,VWS V14.01,2013-04-24 20:37:00,
2013-04-24 14:38:00,51.8,22.1,30.29,NNW,346,0.0,2.0,31,0.00,,---,0.03,VWS V14.01,2013-04-24 20:38:00,
2013-04-24 14:39:00,52.1,21.6,30.29,WSW,249,5.0,5.0,30,0.00,,---,0.03,VWS V14.01,2013-04-24 20:39:00,
2013-04-24 14:40:00,52.1,20.0,30.29,WSW,252,1.0,5.0,28,0.00,,---,0.03,VWS V14.01,2013-04-24 20:40:00,
2013-04-24 14:41:00,52.3,21.0,30.30,WSW,252,1.0,2.0,29,0.00,,---,0.03,VWS V14.01,2013-04-24 20:41:00,
2013-04-24 14:42:00,52.4,21.9,30.29,WSW,252,0.0,1.0,30,0.00,,---,0.03,VWS V14.01,2013-04-24 20:42:00,
2013-04-24 14:43:00,52.6,22.1,30.29,WSW,253,1.0,1.0,30,0.00,,---,0.03,VWS V14.01,2013-04-24 20:43:00,
2013-04-24 14:44:00,52.8,21.4,30.29,WSW,254,1.0,2.0,29,0.00,,---,0.03,VWS V14.01,2013-04-24 20:44:00,
2013-04-24 14:45:00,52.8,18.9,30.29,WSW,253,2.0,2.0,26,0.00,,---,0.03,VWS V14.01,2013-04-24 20:45:00,
2013-04-24 14:46:00,52.8,18.9,30.29,WSW,253,1.0,3.0,26,0.00,,---,0.03,VWS V14.01,2013-04-24 20:46:00,
2013-04-24 14:47:00,52.6,18.7,30.29,WSW,253,0.0,1.0,26,0.00,,---,0.03,VWS V14.01,2013-04-24 20:47:00,
2013-04-24 14:48:00,52.6,19.6,30.29,WSW,256,5.0,5.0,27,0.00,,---,0.03,VWS V14.01,2013-04-24 20:48:00,
2013-04-24 14:49:00,52.6,18.7,30.29,WSW,257,0.0,0.0,26,0.00,,---,0.03,VWS V14.01,2013-04-24 20:49:00,
2013-04-24 14:50:00,52.6,18.7,30.29,West,259,0.0,0.0,26,0.00,,---,0.03,VWS V14.01,2013-04-24 20:50:00,
2013-04-24 14:51:00,52.6,19.6,30.29,West,267,0.0,3.0,27,0.00,,---,0.03,VWS V14.01,2013-04-24 20:51:00,
2013-04-24 14:52:00,52.6,19.6,30.29,West,267,2.0,3.0,27,0.00,,---,0.03,VWS V14.01,2013-04-24 20:52:00,
2013-04-24 14:53:00,52.6,19.6,30.29,West,265,2.0,3.0,27,0.00,,---,0.03,VWS V14.01,2013-04-24 20:53:00,
2013-04-24 14:54:00,52.6,21.3,30.29,NW,312,2.0,4.0,29,0.00,,---,0.03,VWS V14.01,2013-04-24 20:54:00,
2013-04-24 14:55:00,52.6,21.3,30.29,NW,312,4.0,4.0,29,0.00,,---,0.03,VWS V14.01,2013-04-24 20:55:00,
2013-04-24 14:56:00,52.6,21.3,30.29,ENE,72,2.0,4.0,29,0.00,,---,0.03,VWS V14.01,2013-04-24 20:56:00,
2013-04-24 14:57:00,52.7,22.2,30.29,ENE,74,1.0,3.0,30,0.00,,---,0.03,VWS V14.01,2013-04-24 20:57:00,
2013-04-24 14:58:00,52.7,20.5,30.29,East,84,0.0,2.0,28,0.00,,---,0.03,VWS V14.01,2013-04-24 20:58:00,
2013-04-24 14:59:00,52.8,20.6,30.29,East,84,0.0,0.0,28,0.00,,---,0.03,VWS V14.01,2013-04-24 20:59:00,
2013-04-24 15:00:00,52.8,20.6,30.29,East,84,0.0,0.0,28,0.00,,---,0.03,VWS V14.01,2013-04-24 21:00:00,
2013-04-24 15:01:00,52.9,20.7,30.29,NE,42,1.0,2.0,28,0.00,,---,0.03,VWS V14.01,2013-04-24 21:01:00,
2013-04-24 15:02:00,53.0,20.8,30.29,West,276,5.0,5.0,28,0.00,,---,0.03,VWS V14.01,2013-04-24 21:02:00,
2013-04-24 15:03:00,53.0,19.9,30.29,WNW,296,1.0,5.0,27,0.00,,---,0.03,VWS V14.01,2013-04-24 21:03:00,
2013-04-24 15:04:00,53.1,20.0,30.29,WNW,300,4.0,4.0,27,0.00,,---,0.03,VWS V14.01,2013-04-24 21:04:00,
2013-04-24 15:05:00,53.1,20.0,30.29,WNW,301,3.0,4.0,27,0.00,,---,0.03,VWS V14.01,2013-04-24 21:05:00,
2013-04-24 15:06:00,53.1,19.1,30.29,North,360,1.0,7.0,26,0.00,,---,0.03,VWS V14.01,2013-04-24 21:06:00,
2013-04-24 15:07:00,53.1,20.0,30.29,ENE,63,0.0,2.0,27,0.00,,---,0.03,VWS V14.01,2013-04-24 21:07:00,
2013-04-24 15:08:00,53.2,21.8,30.29,ENE,63,0.0,1.0,29,0.00,,---,0.03,VWS V14.01,2013-04-24 21:08:00,
2013-04-24 15:09:00,53.3,20.2,30.29,NE,42,0.0,3.0,27,0.00,,---,0.03,VWS V14.01,2013-04-24 21:09:00,
2013-04-24 15:10:00,53.3,20.2,30.29,NE,42,1.0,3.0,27,0.00,,---,0.03,VWS V14.01,2013-04-24 21:10:00,
2013-04-24 15:11:00,53.3,19.3,30.29,NE,40,1.0,4.0,26,0.00,,---,0.03,VWS V14.01,2013-04-24 21:11:00,
2013-04-24 15:12:00,53.3,20.2,30.29,NE,40,0.0,1.0,27,0.00,,---,0.03,VWS V14.01,2013-04-24 21:12:00,
2013-04-24 15:13:00,53.4,22.0,30.29,NE,40,0.0,0.0,29,0.00,,---,0.03,VWS V14.01,2013-04-24 21:13:00,
2013-04-24 15:14:00,53.6,20.5,30.28,NE,40,0.0,1.0,27,0.00,,---,0.03,VWS V14.01,2013-04-24 21:14:00,
2013-04-24 15:15:00,53.6,18.6,30.28,NE,40,0.0,1.0,25,0.00,,---,0.03,VWS V14.01,2013-04-24 21:15:00,
2013-04-24 15:16:00,53.7,18.7,30.28,NE,40,0.0,0.0,25,0.01,,---,0.04,VWS V14.01,2013-04-24 21:16:00,
2013-04-24 15:17:00,53.7,19.6,30.28,NE,40,0.0,0.0,26,0.01,,---,0.04,VWS V14.01,2013-04-24 21:17:00,
2013-04-24 15:18:00,53.8,19.7,30.28,WNW,285,2.0,6.0,26,0.01,,---,0.04,VWS V14.01,2013-04-24 21:18:00,
2013-04-24 15:19:00,53.8,19.7,30.28,East,94,3.0,3.0,26,0.01,,---,0.04,VWS V14.01,2013-04-24 21:19:00,
2013-04-24 15:20:00,53.8,20.6,30.28,East,93,1.0,3.0,27,0.01,,---,0.04,VWS V14.01,2013-04-24 21:20:00,
2013-04-24 15:21:00,53.8,20.6,30.27,East,92,1.0,2.0,27,0.01,,---,0.04,VWS V14.01,2013-04-24 21:21:00,
2013-04-24 15:22:00,53.8,21.5,30.27,East,88,1.0,2.0,28,0.01,,---,0.04,VWS V14.01,2013-04-24 21:22:00,
2013-04-24 15:23:00,53.8,20.6,30.27,NE,51,0.0,5.0,27,0.01,,---,0.04,VWS V14.01,2013-04-24 21:23:00,
2013-04-24 15:24:00,53.9,20.7,30.27,NE,45,2.0,2.0,27,0.01,,---,0.04,VWS V14.01,2013-04-24 21:24:00,
2013-04-24 15:25:00,53.9,19.8,30.27,WNW,284,5.0,6.0,26,0.01,,---,0.04,VWS V14.01,2013-04-24 21:25:00,
2013-04-24 15:26:00,54.0,21.6,30.27,NW,311,0.0,5.0,28,0.01,,---,0.04,VWS V14.01,2013-04-24 21:26:00,
2013-04-24 15:27:00,54.0,21.6,30.27,NW,312,0.0,0.0,28,0.01,,---,0.04,VWS V14.01,2013-04-24 21:27:00,
2013-04-24 15:28:00,54.1,21.7,30.27,NW,312,0.0,0.0,28,0.01,,---,0.04,VWS V14.01,2013-04-24 21:28:00,
2013-04-24 15:29:00,54.3,20.2,30.27,NNE,21,1.0,2.0,26,0.01,,---,0.04,VWS V14.01,2013-04-24 21:29:00,
2013-04-24 15:30:00,54.4,20.2,30.27,ENE,67,1.0,2.0,26,0.01,,---,0.04,VWS V14.01,2013-04-24 21:30:00,
2013-04-24 15:31:00,54.4,22.0,30.27,NE,53,1.0,2.0,28,0.01,,---,0.04,VWS V14.01,2013-04-24 21:31:00,
2013-04-24 15:32:00,54.5,23.7,30.27,North,11,3.0,3.0,30,0.01,,---,0.04,VWS V14.01,2013-04-24 21:32:00,
2013-04-24 15:33:00,54.6,21.3,30.27,North,11,0.0,3.0,27,0.01,,---,0.04,VWS V14.01,2013-04-24 21:33:00,
2013-04-24 15:34:00,54.8,20.6,30.26,NE,51,0.0,2.0,26,0.01,,---,0.04,VWS V14.01,2013-04-24 21:34:00,
2013-04-24 15:35:00,54.9,20.7,30.26,NE,40,1.0,2.0,26,0.01,,---,0.04,VWS V14.01,2013-04-24 21:35:00,
2013-04-24 15:36:00,55.0,22.5,30.26,East,86,1.0,2.0,28,0.01,,---,0.04,VWS V14.01,2013-04-24 21:36:00,
2013-04-24 15:37:00,55.1,21.7,30.26,East,84,1.0,2.0,27,0.01,,---,0.04,VWS V14.01,2013-04-24 21:37:00,
2013-04-24 15:38:00,55.2,22.7,30.26,NW,325,0.0,2.0,28,0.01,,---,0.04,VWS V14.01,2013-04-24 21:38:00,
2013-04-24 15:39:00,55.4,21.1,30.26,North,351,1.0,1.0,26,0.01,,---,0.04,VWS V14.01,2013-04-24 21:39:00,
2013-04-24 15:40:00,55.4,21.1,30.26,NNW,333,3.0,3.0,26,0.01,,---,0.04,VWS V14.01,2013-04-24 21:40:00,
2013-04-24 15:41:00,55.5,22.1,30.26,West,272,7.0,7.0,27,0.01,,---,0.04,VWS V14.01,2013-04-24 21:41:00,
2013-04-24 15:42:00,55.4,20.2,30.26,West,263,5.0,9.0,25,0.01,,---,0.04,VWS V14.01,2013-04-24 21:42:00,
2013-04-24 15:43:00,55.3,20.1,30.26,NW,306,5.0,6.0,25,0.01,,---,0.04,VWS V14.01,2013-04-24 21:43:00,
2013-04-24 15:44:00,55.0,20.8,30.26,NW,307,1.0,2.0,26,0.01,,---,0.04,VWS V14.01,2013-04-24 21:44:00,
2013-04-24 15:45:00,54.9,19.8,30.26,NW,305,3.0,3.0,25,0.01,,---,0.04,VWS V14.01,2013-04-24 21:45:00,
2013-04-24 15:46:00,54.8,19.7,30.26,WNW,299,2.0,4.0,25,0.01,,---,0.04,VWS V14.01,2013-04-24 21:46:00,
2013-04-24 15:47:00,54.6,19.5,30.26,WNW,289,1.0,4.0,25,0.01,,---,0.04,VWS V14.01,2013-04-24 21:47:00,
2013-04-24 15:48:00,54.5,19.4,30.26,East,89,0.0,2.0,25,0.01,,---,0.04,VWS V14.01,2013-04-24 21:48:00,
2013-04-24 15:49:00,54.5,20.3,30.25,West,273,3.0,4.0,26,0.01,,---,0.04,VWS V14.01,2013-04-24 21:49:00,
2013-04-24 15:50:00,54.5,20.3,30.25,WNW,282,0.0,4.0,26,0.01,,---,0.04,VWS V14.01,2013-04-24 21:50:00,
2013-04-24 15:51:00,54.5,22.1,30.25,WNW,290,2.0,3.0,28,0.01,,---,0.04,VWS V14.01,2013-04-24 21:51:00,
2013-04-24 15:52:00,54.6,20.4,30.25,ESE,113,1.0,2.0,26,0.01,,---,0.04,VWS V14.01,2013-04-24 21:52:00,
2013-04-24 15:53:00,54.7,20.5,30.25,ESE,113,0.0,1.0,26,0.01,,---,0.04,VWS V14.01,2013-04-24 21:53:00,
2013-04-24 15:54:00,54.9,20.7,30.25,ESE,111,0.0,0.0,26,0.01,,---,0.04,VWS V14.01,2013-04-24 21:54:00,
2013-04-24 15:55:00,54.9,19.8,30.25,ESE,111,0.0,0.0,25,0.01,,---,0.04,VWS V14.01,2013-04-24 21:55:00,
2013-04-24 15:56:00,55.0,20.8,30.25,SSW,213,2.0,3.0,26,0.01,,---,0.04,VWS V14.01,2013-04-24 21:56:00,
2013-04-24 15:57:00,55.1,19.9,30.25,NW,326,1.0,5.0,25,0.01,,---,0.04,VWS V14.01,2013-04-24 21:57:00,
2013-04-24 15:58:00,55.1,19.9,30.25,NNW,327,0.0,1.0,25,0.01,,---,0.04,VWS V14.01,2013-04-24 21:58:00,
2013-04-24 15:59:00,55.2,21.8,30.25,NNW,327,0.0,0.0,27,0.01,,---,0.04,VWS V14.01,2013-04-24 21:59:00,
2013-04-24 16:00:00,55.3,21.0,30.25,NNW,327,0.0,0.0,26,0.01,,---,0.04,VWS V14.01,2013-04-24 22:00:00,
2013-04-24 16:01:00,55.4,20.2,30.25,NW,319,3.0,4.0,25,0.01,,---,0.04,VWS V14.01,2013-04-24 22:01:00,
2013-04-24 16:02:00,55.4,19.2,30.25,NW,304,5.0,6.0,24,0.01,,---,0.04,VWS V14.01,2013-04-24 22:02:00,
2013-04-24 16:03:00,55.3,20.1,30.25,WNW,297,3.0,5.0,25,0.01,,---,0.04,VWS V14.01,2013-04-24 22:03:00,
2013-04-24 16:04:00,55.2,20.0,30.25,West,275,2.0,4.0,25,0.01,,---,0.04,VWS V14.01,2013-04-24 22:04:00,
2013-04-24 16:05:00,55.2,20.0,30.25,WSW,245,5.0,7.0,25,0.01,,---,0.04,VWS V14.01,2013-04-24 22:05:00,
2013-04-24 16:06:00,55.1,19.0,30.25,West,278,3.0,5.0,24,0.01,,---,0.04,VWS V14.01,2013-04-24 22:06:00,
2013-04-24 16:07:00,55.1,19.0,30.25,WSW,256,1.0,3.0,24,0.01,,---,0.04,VWS V14.01,2013-04-24 22:07:00,
2013-04-24 16:08:00,55.1,18.0,30.25,West,268,1.0,3.0,23,0.01,,---,0.04,VWS V14.01,2013-04-24 22:08:00,
2013-04-24 16:09:00,55.1,18.0,30.25,NW,307,3.0,4.0,23,0.01,,---,0.04,VWS V14.01,2013-04-24 22:09:00,
2013-04-24 16:10:00,55.1,18.0,30.25,NW,306,2.0,4.0,23,0.01,,---,0.04,VWS V14.01,2013-04-24 22:10:00,
2013-04-24 16:11:00,55.1,19.9,30.25,NW,311,2.0,5.0,25,0.01,,---,0.04,VWS V14.01,2013-04-24 22:11:00,
2013-04-24 16:12:00,55.1,17.0,30.24,NW,311,2.0,2.0,22,0.01,,---,0.04,VWS V14.01,2013-04-24 22:12:00,
2013-04-24 16:13:00,55.0,16.9,30.24,NW,312,0.0,2.0,22,0.01,,---,0.04,VWS V14.01,2013-04-24 22:13:00,
2013-04-24 16:14:00,55.1,17.0,30.24,West,267,3.0,4.0,22,0.01,,---,0.04,VWS V14.01,2013-04-24 22:14:00,
2013-04-24 16:15:00,55.1,17.0,30.24,WNW,303,5.0,9.0,22,0.01,,---,0.04,VWS V14.01,2013-04-24 22:15:00,
2013-04-24 16:16:00,55.1,18.0,30.24,WSW,238,3.0,5.0,23,0.01,,---,0.04,VWS V14.01,2013-04-24 22:16:00,
2013-04-24 16:17:00,55.1,18.0,30.24,SW,219,1.0,5.0,23,0.00,,---,0.04,VWS V14.01,2013-04-24 22:17:00,
2013-04-24 16:18:00,55.1,19.9,30.24,SW,219,0.0,1.0,25,0.00,,---,0.04,VWS V14.01,2013-04-24 22:18:00,
2013-04-24 16:19:00,55.2,19.1,30.24,SW,220,0.0,1.0,24,0.00,,---,0.04,VWS V14.01,2013-04-24 22:19:00,
2013-04-24 16:20:00,55.2,20.0,30.24,WNW,291,4.0,4.0,25,0.00,,---,0.04,VWS V14.01,2013-04-24 22:20:00,
2013-04-24 16:21:00,55.3,20.1,30.24,NW,318,0.0,5.0,25,0.00,,---,0.04,VWS V14.01,2013-04-24 22:21:00,
2013-04-24 16:22:00,55.4,18.2,30.24,SW,219,5.0,6.0,23,0.00,,---,0.04,VWS V14.01,2013-04-24 22:22:00,
2013-04-24 16:23:00,55.4,19.2,30.24,East,79,2.0,5.0,24,0.00,,---,0.04,VWS V14.01,2013-04-24 22:23:00,
2013-04-24 16:24:00,55.4,18.2,30.24,West,263,2.0,8.0,23,0.00,,---,0.04,VWS V14.01,2013-04-24 22:24:00,
2013-04-24 16:25:00,55.4,18.2,30.24,West,263,0.0,8.0,23,0.00,,---,0.04,VWS V14.01,2013-04-24 22:25:00,
2013-04-24 16:26:00,55.4,19.2,30.24,West,271,1.0,3.0,24,0.00,,---,0.04,VWS V14.01,2013-04-24 22:26:00,
2013-04-24 16:27:00,55.4,19.2,30.24,West,271,1.0,3.0,24,0.00,,---,0.04,VWS V14.01,2013-04-24 22:27:00,
2013-04-24 16:28:00,55.4,19.2,30.24,West,275,0.0,3.0,24,0.00,,---,0.04,VWS V14.01,2013-04-24 22:28:00,
2013-04-24 16:29:00,55.5,19.3,30.24,ENE,57,1.0,3.0,24,0.00,,---,0.04,VWS V14.01,2013-04-24 22:29:00,
2013-04-24 16:30:00,55.5,20.3,30.24,ENE,57,1.0,3.0,25,0.00,,---,0.04,VWS V14.01,2013-04-24 22:30:00,
2013-04-24 16:31:00,55.5,19.3,30.24,NE,48,2.0,2.0,24,0.00,,---,0.04,VWS V14.01,2013-04-24 22:31:00,
2013-04-24 16:32:00,55.6,20.4,30.24,NE,40,2.0,3.0,25,0.00,,---,0.04,VWS V14.01,2013-04-24 22:32:00,
2013-04-24 16:33:00,55.7,20.4,30.24,WNW,300,0.0,4.0,25,0.00,,---,0.04,VWS V14.01,2013-04-24 22:33:00,
2013-04-24 16:34:00,55.9,18.7,30.24,WNW,297,3.0,4.0,23,0.00,,---,0.04,VWS V14.01,2013-04-24 22:34:00,
2013-04-24 16:35:00,55.9,18.7,30.24,WNW,300,2.0,4.0,23,0.00,,---,0.04,VWS V14.01,2013-04-24 22:35:00,
2013-04-24 16:36:00,55.9,17.6,30.24,WNW,301,0.0,6.0,22,0.00,,---,0.04,VWS V14.01,2013-04-24 22:36:00,
2013-04-24 16:37:00,55.8,18.6,30.24,WNW,301,1.0,3.0,23,0.00,,---,0.04,VWS V14.01,2013-04-24 22:37:00,
2013-04-24 16:38:00,55.8,18.6,30.24,WNW,300,1.0,2.0,23,0.00,,---,0.04,VWS V14.01,2013-04-24 22:38:00,
2013-04-24 16:39:00,55.7,19.5,30.24,WNW,300,0.0,1.0,24,0.00,,---,0.04,VWS V14.01,2013-04-24 22:39:00,
2013-04-24 16:40:00,55.7,19.5,30.24,WNW,300,1.0,1.0,24,0.00,,---,0.04,VWS V14.01,2013-04-24 22:40:00,
2013-04-24 16:41:00,55.8,20.5,30.24,WNW,301,3.0,3.0,25,0.00,,---,0.04,VWS V14.01,2013-04-24 22:41:00,
2013-04-24 16:42:00,55.8,19.6,30.24,WNW,302,5.0,6.0,24,0.00,,---,0.04,VWS V14.01,2013-04-24 22:42:00,
2013-04-24 16:43:00,55.9,19.6,30.24,NW,304,0.0,5.0,24,0.00,,---,0.04,VWS V14.01,2013-04-24 22:43:00,
2013-04-24 16:44:00,56.0,20.7,30.24,NNW,329,2.0,3.0,25,0.00,,---,0.04,VWS V14.01,2013-04-24 22:44:00,
2013-04-24 16:45:00,56.0,20.7,30.24,NW,315,4.0,5.0,25,0.00,,---,0.04,VWS V14.01,2013-04-24 22:45:00,
2013-04-24 16:46:00,56.0,19.7,30.24,NW,317,2.0,5.0,24,0.00,,---,0.04,VWS V14.01,2013-04-24 22:46:00,
2013-04-24 16:47:00,56.0,19.7,30.24,NW,321,0.0,2.0,24,0.00,,---,0.04,VWS V14.01,2013-04-24 22:47:00,
2013-04-24 16:48:00,56.0,20.7,30.24,NW,321,0.0,0.0,25,0.00,,---,0.04,VWS V14.01,2013-04-24 22:48:00,
2013-04-24 16:49:00,56.1,19.8,30.24,NE,45,0.0,3.0,24,0.00,,---,0.04,VWS V14.01,2013-04-24 22:49:00,
2013-04-24 16:50:00,56.1,19.8,30.24,NE,45,0.0,3.0,24,0.00,,---,0.04,VWS V14.01,2013-04-24 22:50:00,
2013-04-24 16:51:00,56.2,19.9,30.24,NE,45,1.0,1.0,24,0.00,,---,0.04,VWS V14.01,2013-04-24 22:51:00,
2013-04-24 16:52:00,56.3,20.0,30.24,NE,42,0.0,2.0,24,0.00,,---,0.04,VWS V14.01,2013-04-24 22:52:00,
2013-04-24 16:53:00,56.4,18.0,30.23,NE,43,0.0,1.0,22,0.00,,---,0.04,VWS V14.01,2013-04-24 22:53:00,
2013-04-24 16:54:00,56.5,19.2,30.23,NE,42,0.0,0.0,23,0.00,,---,0.04,VWS V14.01,2013-04-24 22:54:00,
2013-04-24 16:55:00,56.5,19.2,30.23,NE,43,0.0,0.0,23,0.00,,---,0.04,VWS V14.01,2013-04-24 22:55:00,
2013-04-24 16:56:00,56.6,20.2,30.23,NE,43,0.0,0.0,24,0.00,,---,0.04,VWS V14.01,2013-04-24 22:56:00,
2013-04-24 16:57:00,56.7,21.3,30.23,NNW,329,2.0,4.0,25,0.00,,---,0.04,VWS V14.01,2013-04-24 22:57:00,
2013-04-24 16:58:00,56.8,20.4,30.23,NW,306,1.0,5.0,24,0.00,,---,0.04,VWS V14.01,2013-04-24 22:58:00,
2013-04-24 16:59:00,56.9,19.5,30.23,NW,306,2.0,3.0,23,0.00,,---,0.04,VWS V14.01,2013-04-24 22:59:00,
2013-04-24 17:00:00,56.9,18.5,30.23,NW,306,1.0,3.0,22,0.00,,---,0.04,VWS V14.01,2013-04-24 23:00:00,
2013-04-24 17:01:00,56.9,19.5,30.23,WNW,303,3.0,3.0,23,0.00,,---,0.04,VWS V14.01,2013-04-24 23:01:00,
2013-04-24 17:02:00,57.0,20.6,30.23,WNW,303,0.0,3.0,24,0.00,,---,0.04,VWS V14.01,2013-04-24 23:02:00,
2013-04-24 17:03:00,57.0,19.6,30.23,NW,306,2.0,4.0,23,0.00,,---,0.04,VWS V14.01,2013-04-24 23:03:00,
2013-04-24 17:04:00,57.1,19.7,30.23,NW,315,2.0,2.0,23,0.00,,---,0.04,VWS V14.01,2013-04-24 23:04:00,
2013-04-24 17:05:00,57.1,20.7,30.23,NW,317,1.0,3.0,24,0.00,,---,0.04,VWS V14.01,2013-04-24 23:05:00,
2013-04-24 17:06:00,57.2,20.8,30.23,NNE,22,6.0,6.0,24,0.00,,---,0.04,VWS V14.01,2013-04-24 23:06:00,
2013-04-24 17:07:00,57.0,18.5,30.23,ENE,76,0.0,6.0,22,0.00,,---,0.04,VWS V14.01,2013-04-24 23:07:00,
2013-04-24 17:08:00,56.9,19.5,30.23,WNW,290,5.0,5.0,23,0.00,,---,0.04,VWS V14.01,2013-04-24 23:08:00,
2013-04-24 17:09:00,56.8,18.4,30.23,West,262,6.0,6.0,22,0.00,,---,0.04,VWS V14.01,2013-04-24 23:09:00,
2013-04-24 17:10:00,56.8,18.4,30.23,WSW,239,4.0,7.0,22,0.00,,---,0.04,VWS V14.01,2013-04-24 23:10:00,
2013-04-24 17:11:00,56.6,18.2,30.23,West,274,2.0,4.0,22,0.00,,---,0.04,VWS V14.01,2013-04-24 23:11:00,
2013-04-24 17:12:00,56.5,19.2,30.23,West,273,0.0,2.0,23,0.00,,---,0.04,VWS V14.01,2013-04-24 23:12:00,
2013-04-24 17:13:00,56.5,20.2,30.23,WNW,284,1.0,2.0,24,0.00,,---,0.04,VWS V14.01,2013-04-24 23:13:00,
2013-04-24 17:14:00,56.4,19.1,30.23,North,360,0.0,1.0,23,0.00,,---,0.04,VWS V14.01,2013-04-24 23:14:00,
2013-04-24 17:15:00,56.4,19.1,30.23,North,360,1.0,1.0,23,0.00,,---,0.04,VWS V14.01,2013-04-24 23:15:00,
2013-04-24 17:16:00,56.4,20.1,30.23,North,5,1.0,2.0,24,0.00,,---,0.04,VWS V14.01,2013-04-24 23:16:00,
2013-04-24 17:17:00,56.4,19.1,30.23,North,5,0.0,1.0,23,0.00,,---,0.04,VWS V14.01,2013-04-24 23:17:00,
2013-04-24 17:18:00,56.5,20.2,30.23,North,355,0.0,3.0,24,0.00,,---,0.04,VWS V14.01,2013-04-24 23:18:00,
2013-04-24 17:19:00,56.6,18.2,30.23,WNW,300,3.0,5.0,22,0.00,,---,0.04,VWS V14.01,2013-04-24 23:19:00,
2013-04-24 17:20:00,56.6,18.2,30.23,WNW,301,1.0,5.0,22,0.00,,---,0.04,VWS V14.01,2013-04-24 23:20:00,
2013-04-24 17:21:00,56.6,18.2,30.23,WNW,302,0.0,4.0,22,0.00,,---,0.04,VWS V14.01,2013-04-24 23:21:00,
2013-04-24 17:22:00,56.5,17.1,30.23,ESE,103,1.0,4.0,21,0.00,,---,0.04,VWS V14.01,2013-04-24 23:22:00,
2013-04-24 17:23:00,56.4,17.0,30.23,ESE,103,0.0,1.0,21,0.00,,---,0.04,VWS V14.01,2013-04-24 23:23:00,
2013-04-24 17:24:00,56.5,19.2,30.23,ESE,102,0.0,0.0,23,0.00,,---,0.04,VWS V14.01,2013-04-24 23:24:00,
2013-04-24 17:25:00,56.5,19.2,30.23,ESE,102,0.0,0.0,23,0.00,,---,0.04,VWS V14.01,2013-04-24 23:25:00,
2013-04-24 17:26:00,56.6,19.2,30.23,WSW,258,2.0,4.0,23,0.00,,---,0.04,VWS V14.01,2013-04-24 23:26:00,
2013-04-24 17:27:00,56.6,19.2,30.23,West,275,1.0,3.0,23,0.00,,---,0.04,VWS V14.01,2013-04-24 23:27:00,
2013-04-24 17:28:00,56.7,19.3,30.23,WNW,303,1.0,5.0,23,0.00,,---,0.04,VWS V14.01,2013-04-24 23:28:00,
2013-04-24 17:29:00,56.7,18.3,30.23,ESE,108,2.0,3.0,22,0.00,,---,0.04,VWS V14.01,2013-04-24 23:29:00,
2013-04-24 17:30:00,56.8,19.4,30.23,NW,314,4.0,5.0,23,0.00,,---,0.04,VWS V14.01,2013-04-24 23:30:00,
2013-04-24 17:31:00,56.7,18.3,30.23,NW,320,1.0,6.0,22,0.00,,---,0.04,VWS V14.01,2013-04-24 23:31:00,
2013-04-24 17:32:00,56.7,18.3,30.23,NE,55,2.0,2.0,22,0.00,,---,0.04,VWS V14.01,2013-04-24 23:32:00,
2013-04-24 17:33:00,56.7,18.3,30.23,NW,321,1.0,6.0,22,0.00,,---,0.04,VWS V14.01,2013-04-24 23:33:00,
2013-04-24 17:34:00,56.6,18.2,30.23,NW,321,0.0,1.0,22,0.00,,---,0.04,VWS V14.01,2013-04-24 23:34:00,
2013-04-24 17:35:00,56.6,18.2,30.23,NW,321,0.0,1.0,22,0.00,,---,0.04,VWS V14.01,2013-04-24 23:35:00,
2013-04-24 17:36:00,56.6,18.2,30.23,East,82,3.0,3.0,22,0.00,,---,0.04,VWS V14.01,2013-04-24 23:36:00,
2013-04-24 17:37:00,56.5,18.1,30.23,ENE,76,0.0,3.0,22,0.00,,---,0.04,VWS V14.01,2013-04-24 23:37:00,
2013-04-24 17:38:00,56.4,18.0,30.23,ENE,76,1.0,2.0,22,0.00,,---,0.04,VWS V14.01,2013-04-24 23:38:00,
2013-04-24 17:39:00,56.1,16.7,30.23,ENE,75,2.0,3.0,21,0.00,,---,0.04,VWS V14.01,2013-04-24 23:39:00,
2013-04-24 17:40:00,56.0,16.6,30.23,ENE,75,1.0,3.0,21,0.00,,---,0.04,VWS V14.01,2013-04-24 23:40:00,
2013-04-24 17:41:00,55.9,16.5,30.23,ENE,75,0.0,1.0,21,0.00,,---,0.04,VWS V14.01,2013-04-24 23:41:00,
2013-04-24 17:42:00,55.7,16.4,30.23,ENE,75,0.0,0.0,21,0.00,,---,0.04,VWS V14.01,2013-04-24 23:42:00,
2013-04-24 17:43:00,55.7,17.5,30.23,ENE,74,1.0,2.0,22,0.00,,---,0.04,VWS V14.01,2013-04-24 23:43:00,
2013-04-24 17:44:00,55.8,17.5,30.23,ENE,69,0.0,2.0,22,0.00,,---,0.04,VWS V14.01,2013-04-24 23:44:00,
2013-04-24 17:45:00,55.8,17.5,30.23,ENE,70,0.0,2.0,22,0.00,,---,0.04,VWS V14.01,2013-04-24 23:45:00,
2013-04-24 17:46:00,55.8,18.6,30.23,ENE,70,1.0,1.0,23,0.00,,---,0.04,VWS V14.01,2013-04-24 23:46:00,
2013-04-24 17:47:00,55.9,17.6,30.23,NW,322,1.0,4.0,22,0.00,,---,0.04,VWS V14.01,2013-04-24 23:47:00,
2013-04-24 17:48:00,55.9,17.6,30.24,NW,311,1.0,7.0,22,0.00,,---,0.04,VWS V14.01,2013-04-24 23:48:00,
2013-04-24 17:49:00,55.9,18.7,30.24,NW,307,0.0,5.0,23,0.00,,---,0.04,VWS V14.01,2013-04-24 23:49:00,
2013-04-24 17:50:00,56.0,18.8,30.24,NW,306,4.0,5.0,23,0.00,,---,0.04,VWS V14.01,2013-04-24 23:50:00,
2013-04-24 17:51:00,55.9,17.6,30.24,NW,307,9.0,9.0,22,0.00,,---,0.04,VWS V14.01,2013-04-24 23:51:00,
2013-04-24 17:52:00,55.9,17.6,30.24,NNW,343,3.0,9.0,22,0.00,,---,0.04,VWS V14.01,2013-04-24 23:52:00,
2013-04-24 17:53:00,55.8,17.5,30.24,NNW,341,1.0,3.0,22,0.00,,---,0.04,VWS V14.01,2013-04-24 23:53:00,
2013-04-24 17:54:00,55.8,17.5,30.23,NNW,341,0.0,1.0,22,0.00,,---,0.04,VWS V14.01,2013-04-24 23:54:00,
2013-04-24 17:55:00,55.8,17.5,30.23,NNW,342,0.0,1.0,22,0.00,,---,0.04,VWS V14.01,2013-04-24 23:55:00,
2013-04-24 17:56:00,55.9,17.6,30.24,NNW,341,0.0,0.0,22,0.00,,---,0.04,VWS V14.01,2013-04-24 23:56:00,
2013-04-24 17:57:00,55.9,18.7,30.23,North,350,1.0,1.0,23,0.00,,---,0.04,VWS V14.01,2013-04-24 23:57:00,
2013-04-24 17:58:00,56.0,18.8,30.23,NNW,338,0.0,4.0,23,0.00,,---,0.04,VWS V14.01,2013-04-24 23:58:00,
2013-04-24 17:59:00,56.0,17.7,30.24,NNW,338,0.0,2.0,22,0.00,,---,0.04,VWS V14.01,2013-04-24 23:59:00,
2013-04-24 18:00:00,56.1,17.8,30.24,NNW,339,0.0,2.0,22,0.00,,---,0.04,VWS V14.01,2013-04-25 00:00:00,
2013-04-24 18:01:00,56.2,17.9,30.24,NNW,338,3.0,3.0,22,0.00,,---,0.04,VWS V14.01,2013-04-25 00:01:00,
2013-04-24 18:02:00,56.2,16.8,30.24,NNW,339,2.0,4.0,21,0.00,,---,0.04,VWS V14.01,2013-04-25 00:02:00,
2013-04-24 18:03:00,56.2,17.9,30.24,North,355,0.0,2.0,22,0.00,,---,0.04,VWS V14.01,2013-04-25 00:03:00,
2013-04-24 18:04:00,56.2,16.8,30.24,North,11,0.0,0.0,21,0.00,,---,0.04,VWS V14.01,2013-04-25 00:04:00,
2013-04-24 18:05:00,56.2,17.9,30.24,North,11,0.0,0.0,22,0.00,,---,0.04,VWS V14.01,2013-04-25 00:05:00,
2013-04-24 18:06:00,56.2,16.8,30.24,North,11,0.0,0.0,21,0.00,,---,0.04,VWS V14.01,2013-04-25 00:06:00,
2013-04-24 18:07:00,56.3,19.0,30.24,North,10,1.0,2.0,23,0.00,,---,0.04,VWS V14.01,2013-04-25 00:07:00,
2013-04-24 18:08:00,56.4,19.1,30.24,NNW,330,4.0,4.0,23,0.00,,---,0.04,VWS V14.01,2013-04-25 00:08:00,
2013-04-24 18:09:00,56.4,15.9,30.24,WNW,302,3.0,4.0,20,0.00,,---,0.04,VWS V14.01,2013-04-25 00:09:00,
2013-04-24 18:10:00,56.4,15.9,30.24,WNW,300,6.0,7.0,20,0.00,,---,0.04,VWS V14.01,2013-04-25 00:10:00,
2013-04-24 18:11:00,56.3,15.8,30.24,NW,308,3.0,6.0,20,0.00,,---,0.04,VWS V14.01,2013-04-25 00:11:00,
2013-04-24 18:12:00,56.2,15.7,30.24,WNW,302,3.0,5.0,20,0.00,,---,0.04,VWS V14.01,2013-04-25 00:12:00,
2013-04-24 18:13:00,56.1,16.7,30.24,WNW,298,4.0,5.0,21,0.00,,---,0.04,VWS V14.01,2013-04-25 00:13:00,
2013-04-24 18:14:00,55.9,15.4,30.24,WSW,248,3.0,4.0,20,0.00,,---,0.04,VWS V14.01,2013-04-25 00:14:00,
2013-04-24 18:15:00,55.8,16.5,30.24,WNW,287,2.0,4.0,21,0.00,,---,0.04,VWS V14.01,2013-04-25 00:15:00,
2013-04-24 18:16:00,55.8,16.5,30.24,WNW,287,2.0,3.0,21,0.00,,---,0.04,VWS V14.01,2013-04-25 00:16:00,
2013-04-24 18:17:00,55.7,16.4,30.24,WNW,292,2.0,7.0,21,0.00,,---,0.04,VWS V14.01,2013-04-25 00:17:00,
2013-04-24 18:18:00,55.6,16.3,30.24,WNW,286,0.0,5.0,21,0.00,,---,0.04,VWS V14.01,2013-04-25 00:18:00,
2013-04-24 18:19:00,55.5,16.2,30.24,NW,309,1.0,4.0,21,0.00,,---,0.04,VWS V14.01,2013-04-25 00:19:00,
2013-04-24 18:20:00,55.5,16.2,30.24,NW,311,1.0,4.0,21,0.00,,---,0.04,VWS V14.01,2013-04-25 00:20:00,
2013-04-24 18:21:00,55.5,16.2,30.24,WNW,300,3.0,4.0,21,0.00,,---,0.04,VWS V14.01,2013-04-25 00:21:00,
2013-04-24 18:22:00,55.4,16.1,30.24,WNW,292,1.0,3.0,21,0.00,,---,0.04,VWS V14.01,2013-04-25 00:22:00,
2013-04-24 18:23:00,55.4,16.1,30.24,WNW,296,0.0,2.0,21,0.00,,---,0.04,VWS V14.01,2013-04-25 00:23:00,
2013-04-24 18:24:00,55.3,17.1,30.24,WNW,296,2.0,3.0,22,0.00,,---,0.04,VWS V14.01,2013-04-25 00:24:00,
2013-04-24 18:25:00,55.3,17.1,30.24,WNW,294,0.0,3.0,22,0.00,,---,0.04,VWS V14.01,2013-04-25 00:25:00,
2013-04-24 18:26:00,55.3,17.1,30.24,WNW,300,1.0,3.0,22,0.00,,---,0.04,VWS V14.01,2013-04-25 00:26:00,
2013-04-24 18:27:00,55.2,17.0,30.24,WNW,295,2.0,2.0,22,0.00,,---,0.04,VWS V14.01,2013-04-25 00:27:00,
2013-04-24 18:28:00,55.1,17.0,30.24,North,5,0.0,2.0,22,0.00,,---,0.04,VWS V14.01,2013-04-25 00:28:00,
2013-04-24 18:29:00,55.0,16.9,30.25,NNE,22,0.0,2.0,22,0.00,,---,0.04,VWS V14.01,2013-04-25 00:29:00,
2013-04-24 18:30:00,55.0,16.9,30.25,WNW,298,4.0,5.0,22,0.00,,---,0.04,VWS V14.01,2013-04-25 00:30:00,
2013-04-24 18:31:00,54.9,16.8,30.24,WNW,302,0.0,4.0,22,0.00,,---,0.04,VWS V14.01,2013-04-25 00:31:00,
2013-04-24 18:32:00,54.8,16.7,30.24,WNW,302,3.0,3.0,22,0.00,,---,0.04,VWS V14.01,2013-04-25 00:32:00,
2013-04-24 18:33:00,54.8,16.7,30.24,NW,306,0.0,3.0,22,0.00,,---,0.04,VWS V14.01,2013-04-25 00:33:00,
2013-04-24 18:34:00,54.6,16.5,30.24,NW,313,0.0,3.0,22,0.00,,---,0.04,VWS V14.01,2013-04-25 00:34:00,
2013-04-24 18:35:00,54.6,16.5,30.24,NW,313,0.0,3.0,22,0.00,,---,0.04,VWS V14.01,2013-04-25 00:35:00,
2013-04-24 18:36:00,54.6,16.5,30.24,ENE,57,0.0,2.0,22,0.00,,---,0.04,VWS V14.01,2013-04-25 00:36:00,
2013-04-24 18:37:00,54.6,16.5,30.24,ENE,58,2.0,2.0,22,0.00,,---,0.04,VWS V14.01,2013-04-25 00:37:00,
2013-04-24 18:38:00,54.6,16.5,30.24,ENE,57,0.0,3.0,22,0.00,,---,0.04,VWS V14.01,2013-04-25 00:38:00,
2013-04-24 18:39:00,54.5,15.4,30.24,ENE,57,1.0,2.0,21,0.00,,---,0.04,VWS V14.01,2013-04-25 00:39:00,
2013-04-24 18:40:00,54.5,16.5,30.24,ENE,57,0.0,2.0,22,0.00,,---,0.04,VWS V14.01,2013-04-25 00:40:00,
2013-04-24 18:41:00,54.5,16.5,30.24,ENE,57,0.0,0.0,22,0.00,,---,0.04,VWS V14.01,2013-04-25 00:41:00,
2013-04-24 18:42:00,54.5,17.5,30.24,ENE,59,1.0,1.0,23,0.00,,---,0.04,VWS V14.01,2013-04-25 00:42:00,
2013-04-24 18:43:00,54.5,16.5,30.24,East,88,0.0,4.0,22,0.00,,---,0.04,VWS V14.01,2013-04-25 00:43:00,
2013-04-24 18:44:00,54.5,17.5,30.24,NW,313,4.0,7.0,23,0.00,,---,0.04,VWS V14.01,2013-04-25 00:44:00,
2013-04-24 18:45:00,54.5,16.5,30.24,NW,315,3.0,7.0,22,0.00,,---,0.04,VWS V14.01,2013-04-25 00:45:00,
2013-04-24 18:46:00,54.5,18.5,30.24,NW,323,4.0,7.0,24,0.00,,---,0.04,VWS V14.01,2013-04-25 00:46:00,
2013-04-24 18:47:00,54.4,19.3,30.24,NW,325,0.0,5.0,25,0.00,,---,0.04,VWS V14.01,2013-04-25 00:47:00,
2013-04-24 18:48:00,54.4,19.3,30.24,NNE,23,0.0,2.0,25,0.00,,---,0.04,VWS V14.01,2013-04-25 00:48:00,
2013-04-24 18:49:00,54.4,20.2,30.25,NNE,30,0.0,0.0,26,0.00,,---,0.04,VWS V14.01,2013-04-25 00:49:00,
2013-04-24 18:50:00,54.3,20.2,30.25,NNE,29,0.0,0.0,26,0.00,,---,0.04,VWS V14.01,2013-04-25 00:50:00,
2013-04-24 18:51:00,54.3,20.2,30.25,NNE,32,0.0,0.0,26,0.00,,---,0.04,VWS V14.01,2013-04-25 00:51:00,
2013-04-24 18:52:00,54.2,20.1,30.24,NE,51,0.0,1.0,26,0.00,,---,0.04,VWS V14.01,2013-04-25 00:52:00,
2013-04-24 18:53:00,54.1,20.0,30.24,ENE,66,1.0,2.0,26,0.00,,---,0.04,VWS V14.01,2013-04-25 00:53:00,
2013-04-24 18:54:00,53.9,19.8,30.24,ENE,64,0.0,2.0,26,0.00,,---,0.04,VWS V14.01,2013-04-25 00:54:00,
2013-04-24 18:55:00,53.9,19.8,30.24,ENE,64,1.0,2.0,26,0.00,,---,0.04,VWS V14.01,2013-04-25 00:55:00,
2013-04-24 18:56:00,53.7,20.5,30.24,ENE,64,0.0,1.0,27,0.00,,---,0.04,VWS V14.01,2013-04-25 00:56:00,
2013-04-24 18:57:00,53.6,19.6,30.24,ENE,64,0.0,0.0,26,0.00,,---,0.04,VWS V14.01,2013-04-25 00:57:00,
2013-04-24 18:58:00,53.5,20.4,30.25,ENE,64,0.0,0.0,27,0.00,,---,0.04,VWS V14.01,2013-04-25 00:58:00,
2013-04-24 18:59:00,53.3,19.3,30.25,ENE,57,2.0,3.0,26,0.00,,---,0.04,VWS V14.01,2013-04-25 00:59:00,
2013-04-24 19:00:00,53.3,19.3,30.24,ENE,58,0.0,3.0,26,0.00,,---,0.04,VWS V14.01,2013-04-25 01:00:00,
2013-04-24 19:01:00,53.1,20.0,30.24,ENE,58,0.0,0.0,27,0.00,,---,0.04,VWS V14.01,2013-04-25 01:01:00,
2013-04-24 19:02:00,53.0,19.9,30.25,ENE,63,0.0,1.0,27,0.00,,---,0.04,VWS V14.01,2013-04-25 01:02:00,
2013-04-24 19:03:00,52.9,19.9,30.25,ENE,63,0.0,0.0,27,0.00,,---,0.04,VWS V14.01,2013-04-25 01:03:00,
2013-04-24 19:04:00,52.7,20.5,30.24,ENE,75,1.0,3.0,28,0.00,,---,0.04,VWS V14.01,2013-04-25 01:04:00,
2013-04-24 19:05:00,52.6,19.6,30.24,ENE,75,0.0,3.0,27,0.00,,---,0.04,VWS V14.01,2013-04-25 01:05:00,
2013-04-24 19:06:00,52.5,20.4,30.25,ENE,75,0.0,0.0,28,0.00,,---,0.04,VWS V14.01,2013-04-25 01:06:00,
2013-04-24 19:07:00,52.4,20.3,30.25,ENE,71,0.0,1.0,28,0.00,,---,0.04,VWS V14.01,2013-04-25 01:07:00,
2013-04-24 19:08:00,52.3,20.2,30.24,NE,52,3.0,4.0,28,0.00,,---,0.04,VWS V14.01,2013-04-25 01:08:00,
2013-04-24 19:09:00,52.2,20.9,30.25,NE,53,0.0,0.0,29,0.00,,---,0.04,VWS V14.01,2013-04-25 01:09:00,
2013-04-24 19:10:00,52.1,20.8,30.25,NE,53,1.0,1.0,29,0.00,,---,0.04,VWS V14.01,2013-04-25 01:10:00,
2013-04-24 19:11:00,52.0,20.8,30.24,NE,53,0.0,1.0,29,0.00,,---,0.04,VWS V14.01,2013-04-25 01:11:00,
2013-04-24 19:12:00,52.0,20.8,30.24,ENE,72,0.0,2.0,29,0.00,,---,0.04,VWS V14.01,2013-04-25 01:12:00,
2013-04-24 19:13:00,51.9,20.7,30.25,ENE,70,1.0,4.0,29,0.00,,---,0.04,VWS V14.01,2013-04-25 01:13:00,
2013-04-24 19:14:00,51.7,20.5,30.25,ENE,63,0.0,0.0,29,0.00,,---,0.04,VWS V14.01,2013-04-25 01:14:00,
2013-04-24 19:15:00,51.7,21.3,30.25,ENE,63,0.0,0.0,30,0.00,,---,0.04,VWS V14.01,2013-04-25 01:15:00,
2013-04-24 19:16:00,51.6,20.4,30.25,ENE,63,0.0,0.0,29,0.00,,---,0.04,VWS V14.01,2013-04-25 01:16:00,
2013-04-24 19:17:00,51.6,20.4,30.25,ENE,63,0.0,0.0,29,0.00,,---,0.04,VWS V14.01,2013-04-25 01:17:00,
2013-04-24 19:18:00,51.5,20.3,30.25,ENE,63,2.0,2.0,29,0.00,,---,0.04,VWS V14.01,2013-04-25 01:18:00,
2013-04-24 19:19:00,51.4,20.2,30.25,ENE,63,0.0,0.0,29,0.00,,---,0.04,VWS V14.01,2013-04-25 01:19:00,
2013-04-24 19:20:00,51.4,21.0,30.25,ENE,63,0.0,0.0,30,0.00,,---,0.04,VWS V14.01,2013-04-25 01:20:00,
2013-04-24 19:21:00,51.3,20.9,30.25,ENE,63,0.0,0.0,30,0.00,,---,0.04,VWS V14.01,2013-04-25 01:21:00,
2013-04-24 19:22:00,51.3,20.1,30.25,NE,53,1.0,2.0,29,0.00,,---,0.04,VWS V14.01,2013-04-25 01:22:00,
2013-04-24 19:23:00,51.2,20.0,30.25,ENE,60,0.0,3.0,29,0.00,,---,0.04,VWS V14.01,2013-04-25 01:23:00,
2013-04-24 19:24:00,51.1,20.8,30.25,ENE,76,2.0,2.0,30,0.00,,---,0.04,VWS V14.01,2013-04-25 01:24:00,
2013-04-24 19:25:00,51.0,19.9,30.25,ENE,72,1.0,3.0,29,0.00,,---,0.04,VWS V14.01,2013-04-25 01:25:00,
2013-04-24 19:26:00,51.0,19.9,30.25,ENE,71,0.0,1.0,29,0.00,,---,0.04,VWS V14.01,2013-04-25 01:26:00,
2013-04-24 19:27:00,50.9,20.6,30.25,East,80,3.0,4.0,30,0.00,,---,0.04,VWS V14.01,2013-04-25 01:27:00,
2013-04-24 19:28:00,50.8,19.7,30.25,NNE,24,0.0,3.0,29,0.00,,---,0.04,VWS V14.01,2013-04-25 01:28:00,
2013-04-24 19:29:00,50.8,20.5,30.26,NE,53,1.0,2.0,30,0.00,,---,0.04,VWS V14.01,2013-04-25 01:29:00,
2013-04-24 19:30:00,50.8,20.5,30.26,ENE,65,1.0,2.0,30,0.00,,---,0.04,VWS V14.01,2013-04-25 01:30:00,
2013-04-24 19:31:00,50.7,20.4,30.25,ENE,67,1.0,1.0,30,0.00,,---,0.04,VWS V14.01,2013-04-25 01:31:00,
2013-04-24 19:32:00,50.6,21.1,30.25,ENE,69,1.0,3.0,31,0.00,,---,0.04,VWS V14.01,2013-04-25 01:32:00,
2013-04-24 19:33:00,50.6,21.1,30.25,ENE,68,1.0,3.0,31,0.00,,---,0.04,VWS V14.01,2013-04-25 01:33:00,
2013-04-24 19:34:00,50.5,21.8,30.25,ENE,73,4.0,4.0,32,0.00,,---,0.04,VWS V14.01,2013-04-25 01:34:00,
2013-04-24 19:35:00,50.4,21.7,30.25,ENE,73,0.0,4.0,32,0.00,,---,0.04,VWS V14.01,2013-04-25 01:35:00,
2013-04-24 19:36:00,50.3,21.6,30.25,ENE,72,4.0,6.0,32,0.00,,---,0.04,VWS V14.01,2013-04-25 01:36:00,
2013-04-24 19:37:00,50.3,21.6,30.25,ENE,70,1.0,4.0,32,0.00,,---,0.04,VWS V14.01,2013-04-25 01:37:00,
2013-04-24 19:38:00,50.2,21.5,30.25,ENE,69,0.0,1.0,32,0.00,,---,0.04,VWS V14.01,2013-04-25 01:38:00,
2013-04-24 19:39:00,50.1,21.4,30.25,ENE,69,0.0,0.0,32,0.00,,---,0.04,VWS V14.01,2013-04-25 01:39:00,
2013-04-24 19:40:00,50.1,21.4,30.25,ENE,69,1.0,1.0,32,0.00,,---,0.04,VWS V14.01,2013-04-25 01:40:00,
2013-04-24 19:41:00,50.0,22.0,30.25,ENE,69,0.0,1.0,33,0.00,,---,0.04,VWS V14.01,2013-04-25 01:41:00,
2013-04-24 19:42:00,50.0,22.0,30.25,ENE,70,2.0,2.0,33,0.00,,---,0.04,VWS V14.01,2013-04-25 01:42:00,
2013-04-24 19:43:00,49.9,22.0,30.25,ENE,69,0.0,2.0,33,0.00,,---,0.04,VWS V14.01,2013-04-25 01:43:00,
2013-04-24 19:44:00,49.8,21.9,30.26,ENE,69,0.0,0.0,33,0.00,,---,0.04,VWS V14.01,2013-04-25 01:44:00,
2013-04-24 19:45:00,49.7,22.5,30.26,East,99,2.0,2.0,34,0.00,,---,0.04,VWS V14.01,2013-04-25 01:45:00,
2013-04-24 19:46:00,49.7,21.8,30.26,East,98,0.0,2.0,33,0.00,,---,0.04,VWS V14.01,2013-04-25 01:46:00,
2013-04-24 19:47:00,49.6,21.7,30.26,East,98,0.0,0.0,33,0.00,,---,0.04,VWS V14.01,2013-04-25 01:47:00,
2013-04-24 19:48:00,49.5,21.6,30.26,East,98,0.0,0.0,33,0.00,,---,0.04,VWS V14.01,2013-04-25 01:48:00,
2013-04-24 19:49:00,49.4,21.5,30.26,East,98,0.0,0.0,33,0.00,,---,0.04,VWS V14.01,2013-04-25 01:49:00,
2013-04-24 19:50:00,49.4,21.5,30.26,East,98,0.0,0.0,33,0.00,,---,0.04,VWS V14.01,2013-04-25 01:50:00,
2013-04-24 19:51:00,49.3,21.4,30.26,East,98,0.0,0.0,33,0.00,,---,0.04,VWS V14.01,2013-04-25 01:51:00,
2013-04-24 19:52:00,49.2,21.3,30.26,East,98,0.0,0.0,33,0.00,,---,0.04,VWS V14.01,2013-04-25 01:52:00,
2013-04-24 19:53:00,49.2,21.3,30.26,East,98,0.0,0.0,33,0.00,,---,0.04,VWS V14.01,2013-04-25 01:53:00,
2013-04-24 19:54:00,49.1,22.0,30.26,East,98,0.0,0.0,34,0.00,,---,0.04,VWS V14.01,2013-04-25 01:54:00,
2013-04-24 19:55:00,49.1,22.0,30.26,East,98,0.0,1.0,34,0.00,,---,0.04,VWS V14.01,2013-04-25 01:55:00,
2013-04-24 19:56:00,49.0,21.9,30.26,ENE,75,1.0,3.0,34,0.00,,---,0.04,VWS V14.01,2013-04-25 01:56:00,
2013-04-24 19:57:00,49.0,21.9,30.26,ENE,74,0.0,1.0,34,0.00,,---,0.04,VWS V14.01,2013-04-25 01:57:00,
2013-04-24 19:58:00,48.9,22.5,30.26,East,92,3.0,3.0,35,0.00,,---,0.04,VWS V14.01,2013-04-25 01:58:00,
2013-04-24 19:59:00,48.8,22.4,30.26,East,92,0.0,0.0,35,0.00,,---,0.04,VWS V14.01,2013-04-25 01:59:00,
2013-04-24 20:00:00,48.7,22.3,30.26,East,90,3.0,6.0,35,0.00,,---,0.04,VWS V14.01,2013-04-25 02:00:00,
2013-04-24 20:01:00,48.7,22.3,30.26,East,92,0.0,4.0,35,0.00,,---,0.04,VWS V14.01,2013-04-25 02:01:00,
2013-04-24 20:02:00,48.6,22.2,30.26,East,92,0.0,0.0,35,0.00,,---,0.04,VWS V14.01,2013-04-25 02:02:00,
2013-04-24 20:03:00,48.5,22.8,30.26,East,92,0.0,0.0,36,0.00,,---,0.04,VWS V14.01,2013-04-25 02:03:00,
2013-04-24 20:04:00,48.5,22.8,30.26,East,82,2.0,4.0,36,0.00,,---,0.04,VWS V14.01,2013-04-25 02:04:00,
2013-04-24 20:05:00,48.5,22.8,30.26,East,82,0.0,4.0,36,0.00,,---,0.04,VWS V14.01,2013-04-25 02:05:00,
2013-04-24 20:06:00,48.4,22.7,30.26,East,82,0.0,1.0,36,0.00,,---,0.04,VWS V14.01,2013-04-25 02:06:00,
2013-04-24 20:07:00,48.3,22.6,30.26,ENE,75,0.0,3.0,36,0.00,,---,0.04,VWS V14.01,2013-04-25 02:07:00,
2013-04-24 20:08:00,48.3,22.6,30.26,ENE,76,0.0,0.0,36,0.00,,---,0.04,VWS V14.01,2013-04-25 02:08:00,
2013-04-24 20:09:00,48.2,23.2,30.27,ENE,76,0.0,0.0,37,0.00,,---,0.04,VWS V14.01,2013-04-25 02:09:00,
2013-04-24 20:10:00,48.2,23.2,30.27,East,80,1.0,5.0,37,0.00,,---,0.04,VWS V14.01,2013-04-25 02:10:00,
2013-04-24 20:11:00,48.2,23.8,30.26,ENE,78,2.0,3.0,38,0.00,,---,0.04,VWS V14.01,2013-04-25 02:11:00,
2013-04-24 20:12:00,48.1,23.1,30.26,ENE,78,0.0,2.0,37,0.00,,---,0.04,VWS V14.01,2013-04-25 02:12:00,
2013-04-24 20:13:00,48.1,23.1,30.26,ENE,78,0.0,0.0,37,0.00,,---,0.04,VWS V14.01,2013-04-25 02:13:00,
2013-04-24 20:14:00,48.0,23.0,30.26,ENE,78,0.0,0.0,37,0.00,,---,0.04,VWS V14.01,2013-04-25 02:14:00,
2013-04-24 20:15:00,48.0,23.0,30.26,ENE,78,0.0,0.0,37,0.00,,---,0.04,VWS V14.01,2013-04-25 02:15:00,
2013-04-24 20:16:00,47.9,22.9,30.26,ENE,78,1.0,1.0,37,0.00,,---,0.04,VWS V14.01,2013-04-25 02:16:00,
2013-04-24 20:17:00,47.9,22.9,30.26,ENE,78,0.0,1.0,37,0.00,,---,0.04,VWS V14.01,2013-04-25 02:17:00,
2013-04-24 20:18:00,47.9,22.9,30.26,ENE,78,0.0,0.0,37,0.00,,---,0.04,VWS V14.01,2013-04-25 02:18:00,
2013-04-24 20:19:00,47.8,22.8,30.26,East,88,0.0,3.0,37,0.00,,---,0.04,VWS V14.01,2013-04-25 02:19:00,
2013-04-24 20:20:00,47.8,22.8,30.26,East,88,0.0,3.0,37,0.00,,---,0.04,VWS V14.01,2013-04-25 02:20:00,
2013-04-24 20:21:00,47.7,22.7,30.26,ENE,78,0.0,3.0,37,0.00,,---,0.04,VWS V14.01,2013-04-25 02:21:00,
2013-04-24 20:22:00,47.7,22.7,30.26,ENE,78,0.0,2.0,37,0.00,,---,0.04,VWS V14.01,2013-04-25 02:22:00,
2013-04-24 20:23:00,47.6,23.3,30.27,ENE,78,0.0,0.0,38,0.00,,---,0.04,VWS V14.01,2013-04-25 02:23:00,
2013-04-24 20:24:00,47.5,23.2,30.26,ENE,78,0.0,0.0,38,0.00,,---,0.04,VWS V14.01,2013-04-25 02:24:00,
2013-04-24 20:25:00,47.5,23.2,30.26,ENE,78,0.0,0.0,38,0.00,,---,0.04,VWS V14.01,2013-04-25 02:25:00,
2013-04-24 20:26:00,47.4,23.1,30.27,ENE,78,0.0,0.0,38,0.00,,---,0.04,VWS V14.01,2013-04-25 02:26:00,
2013-04-24 20:27:00,47.4,23.1,30.27,ENE,78,0.0,0.0,38,0.00,,---,0.04,VWS V14.01,2013-04-25 02:27:00,
2013-04-24 20:28:00,47.4,23.1,30.27,ENE,78,0.0,0.0,38,0.00,,---,0.04,VWS V14.01,2013-04-25 02:28:00,
2013-04-24 20:29:00,47.3,23.0,30.27,ENE,78,0.0,0.0,38,0.00,,---,0.04,VWS V14.01,2013-04-25 02:29:00,
2013-04-24 20:30:00,47.2,22.9,30.27,ENE,78,0.0,0.0,38,0.00,,---,0.04,VWS V14.01,2013-04-25 02:30:00,
2013-04-24 20:31:00,47.2,22.9,30.27,ENE,78,0.0,0.0,38,0.00,,---,0.04,VWS V14.01,2013-04-25 02:31:00,
2013-04-24 20:32:00,47.1,22.8,30.27,ENE,78,0.0,1.0,38,0.00,,---,0.04,VWS V14.01,2013-04-25 02:32:00,
2013-04-24 20:33:00,47.1,23.4,30.27,ENE,78,0.0,0.0,39,0.00,,---,0.04,VWS V14.01,2013-04-25 02:33:00,
2013-04-24 20:34:00,47.0,23.3,30.27,ENE,78,0.0,0.0,39,0.00,,---,0.04,VWS V14.01,2013-04-25 02:34:00,
2013-04-24 20:35:00,47.0,23.3,30.27,ENE,78,0.0,0.0,39,0.00,,---,0.04,VWS V14.01,2013-04-25 02:35:00,
2013-04-24 20:36:00,46.9,23.3,30.27,ENE,78,0.0,0.0,39,0.00,,---,0.04,VWS V14.01,2013-04-25 02:36:00,
2013-04-24 20:37:00,46.8,22.5,30.27,East,88,0.0,3.0,38,0.00,,---,0.04,VWS V14.01,2013-04-25 02:37:00,
2013-04-24 20:38:00,46.8,23.2,30.27,East,88,0.0,0.0,39,0.00,,---,0.04,VWS V14.01,2013-04-25 02:38:00,
2013-04-24 20:39:00,46.7,23.1,30.27,East,88,0.0,0.0,39,0.00,,---,0.04,VWS V14.01,2013-04-25 02:39:00,
2013-04-24 20:40:00,46.7,23.1,30.27,East,88,0.0,0.0,39,0.00,,---,0.04,VWS V14.01,2013-04-25 02:40:00,
2013-04-24 20:41:00,46.7,23.1,30.27,East,87,0.0,0.0,39,0.00,,---,0.04,VWS V14.01,2013-04-25 02:41:00,
2013-04-24 20:42:00,46.6,22.4,30.27,East,88,0.0,0.0,38,0.00,,---,0.04,VWS V14.01,2013-04-25 02:42:00,
2013-04-24 20:43:00,46.5,22.9,30.27,East,88,0.0,0.0,39,0.00,,---,0.04,VWS V14.01,2013-04-25 02:43:00,
2013-04-24 20:44:00,46.5,22.3,30.27,East,86,0.0,1.0,38,0.00,,---,0.04,VWS V14.01,2013-04-25 02:44:00,
2013-04-24 20:45:00,46.4,22.2,30.27,East,86,0.0,1.0,38,0.00,,---,0.04,VWS V14.01,2013-04-25 02:45:00,
2013-04-24 20:46:00,46.4,22.8,30.27,East,86,0.0,0.0,39,0.00,,---,0.04,VWS V14.01,2013-04-25 02:46:00,
2013-04-24 20:47:00,46.4,22.8,30.27,East,86,0.0,0.0,39,0.00,,---,0.04,VWS V14.01,2013-04-25 02:47:00,
2013-04-24 20:48:00,46.3,22.7,30.27,East,86,0.0,0.0,39,0.00,,---,0.04,VWS V14.01,2013-04-25 02:48:00,
2013-04-24 20:49:00,46.3,22.7,30.27,East,85,0.0,1.0,39,0.00,,---,0.04,VWS V14.01,2013-04-25 02:49:00,
2013-04-24 20:50:00,46.3,22.7,30.27,East,85,0.0,1.0,39,0.00,,---,0.04,VWS V14.01,2013-04-25 02:50:00,
2013-04-24 20:51:00,46.2,22.6,30.27,East,85,0.0,1.0,39,0.00,,---,0.04,VWS V14.01,2013-04-25 02:51:00,
2013-04-24 20:52:00,46.1,22.5,30.27,ESE,113,0.0,3.0,39,0.00,,---,0.04,VWS V14.01,2013-04-25 02:52:00,
2013-04-24 20:53:00,46.1,22.5,30.27,ESE,113,0.0,0.0,39,0.00,,---,0.04,VWS V14.01,2013-04-25 02:53:00,
2013-04-24 20:54:00,46.1,22.5,30.27,ESE,109,0.0,0.0,39,0.00,,---,0.04,VWS V14.01,2013-04-25 02:54:00,
2013-04-24 20:55:00,46.0,22.5,30.27,ESE,109,0.0,0.0,39,0.00,,---,0.04,VWS V14.01,2013-04-25 02:55:00,
2013-04-24 20:56:00,46.0,23.0,30.27,ESE,109,0.0,0.0,40,0.00,,---,0.04,VWS V14.01,2013-04-25 02:56:00,
2013-04-24 20:57:00,46.0,22.5,30.27,ESE,108,0.0,0.0,39,0.00,,---,0.04,VWS V14.01,2013-04-25 02:57:00,
2013-04-24 20:58:00,45.9,23.0,30.27,ESE,107,0.0,0.0,40,0.00,,---,0.04,VWS V14.01,2013-04-25 02:58:00,
2013-04-24 20:59:00,45.8,22.9,30.27,SE,145,0.0,0.0,40,0.00,,---,0.04,VWS V14.01,2013-04-25 02:59:00,
2013-04-24 21:00:00,45.8,22.9,30.27,SE,145,0.0,0.0,40,0.00,,---,0.04,VWS V14.01,2013-04-25 03:00:00,
2013-04-24 21:01:00,45.8,22.9,30.27,SE,145,0.0,0.0,40,0.00,,---,0.04,VWS V14.01,2013-04-25 03:01:00,
2013-04-24 21:02:00,45.7,22.8,30.27,SE,145,0.0,0.0,40,0.00,,---,0.04,VWS V14.01,2013-04-25 03:02:00,
2013-04-24 21:03:00,45.7,22.8,30.27,SE,145,0.0,0.0,40,0.00,,---,0.04,VWS V14.01,2013-04-25 03:03:00,
2013-04-24 21:04:00,45.6,22.7,30.27,ESE,115,0.0,0.0,40,0.00,,---,0.04,VWS V14.01,2013-04-25 03:04:00,
2013-04-24 21:05:00,45.6,22.7,30.27,ESE,109,0.0,2.0,40,0.00,,---,0.04,VWS V14.01,2013-04-25 03:05:00,
2013-04-24 21:06:00,45.5,22.6,30.27,ESE,109,0.0,0.0,40,0.00,,---,0.04,VWS V14.01,2013-04-25 03:06:00,
2013-04-24 21:07:00,45.5,22.6,30.27,ESE,109,0.0,0.0,40,0.00,,---,0.04,VWS V14.01,2013-04-25 03:07:00,
2013-04-24 21:08:00,45.5,22.6,30.28,East,101,0.0,3.0,40,0.00,,---,0.04,VWS V14.01,2013-04-25 03:08:00,
2013-04-24 21:09:00,45.4,22.5,30.28,East,92,0.0,0.0,40,0.00,,---,0.04,VWS V14.01,2013-04-25 03:09:00,
2013-04-24 21:10:00,45.4,22.5,30.28,East,93,0.0,0.0,40,0.00,,---,0.04,VWS V14.01,2013-04-25 03:10:00,
2013-04-24 21:11:00,45.4,22.5,30.28,East,93,0.0,0.0,40,0.00,,---,0.04,VWS V14.01,2013-04-25 03:11:00,
2013-04-24 21:12:00,45.3,22.4,30.28,East,94,0.0,0.0,40,0.00,,---,0.04,VWS V14.01,2013-04-25 03:12:00,
2013-04-24 21:13:00,45.3,22.4,30.28,East,94,0.0,0.0,40,0.00,,---,0.04,VWS V14.01,2013-04-25 03:13:00,
2013-04-24 21:14:00,45.2,22.3,30.28,East,94,0.0,0.0,40,0.00,,---,0.04,VWS V14.01,2013-04-25 03:14:00,
2013-04-24 21:15:00,45.2,22.3,30.28,East,94,0.0,0.0,40,0.00,,---,0.04,VWS V14.01,2013-04-25 03:15:00,
2013-04-24 21:16:00,45.1,22.2,30.28,SE,135,1.0,1.0,40,0.00,,---,0.04,VWS V14.01,2013-04-25 03:16:00,
2013-04-24 21:17:00,45.1,22.2,30.28,SE,135,0.0,2.0,40,0.00,,---,0.04,VWS V14.01,2013-04-25 03:17:00,
2013-04-24 21:18:00,45.0,22.1,30.28,SE,134,0.0,0.0,40,0.00,,---,0.04,VWS V14.01,2013-04-25 03:18:00,
2013-04-24 21:19:00,45.0,22.1,30.28,SE,134,0.0,0.0,40,0.00,,---,0.04,VWS V14.01,2013-04-25 03:19:00,
2013-04-24 21:20:00,45.0,22.1,30.28,SE,135,0.0,0.0,40,0.00,,---,0.04,VWS V14.01,2013-04-25 03:20:00,
2013-04-24 21:21:00,45.0,22.1,30.28,SE,135,0.0,0.0,40,0.00,,---,0.04,VWS V14.01,2013-04-25 03:21:00,
2013-04-24 21:22:00,45.0,22.7,30.28,SE,134,0.0,1.0,41,0.00,,---,0.04,VWS V14.01,2013-04-25 03:22:00,
2013-04-24 21:23:00,44.9,22.6,30.28,SE,135,0.0,0.0,41,0.00,,---,0.04,VWS V14.01,2013-04-25 03:23:00,
2013-04-24 21:24:00,44.8,22.5,30.28,SE,135,0.0,0.0,41,0.00,,---,0.04,VWS V14.01,2013-04-25 03:24:00,
2013-04-24 21:25:00,44.8,22.5,30.28,SE,134,0.0,0.0,41,0.00,,---,0.04,VWS V14.01,2013-04-25 03:25:00,
2013-04-24 21:26:00,44.7,22.5,30.28,SE,134,0.0,0.0,41,0.00,,---,0.04,VWS V14.01,2013-04-25 03:26:00,
2013-04-24 21:27:00,44.7,22.5,30.28,SE,136,0.0,0.0,41,0.00,,---,0.04,VWS V14.01,2013-04-25 03:27:00,
2013-04-24 21:28:00,44.6,22.4,30.28,SE,136,0.0,2.0,41,0.00,,---,0.04,VWS V14.01,2013-04-25 03:28:00,
2013-04-24 21:29:00,44.6,22.4,30.28,SE,136,0.0,0.0,41,0.00,,---,0.04,VWS V14.01,2013-04-25 03:29:00,
2013-04-24 21:30:00,44.5,22.9,30.28,SE,136,0.0,0.0,42,0.00,,---,0.04,VWS V14.01,2013-04-25 03:30:00,
2013-04-24 21:31:00,44.5,22.9,30.28,SE,136,0.0,0.0,42,0.00,,---,0.04,VWS V14.01,2013-04-25 03:31:00,
2013-04-24 21:32:00,44.5,22.9,30.28,SE,136,0.0,0.0,42,0.00,,---,0.04,VWS V14.01,2013-04-25 03:32:00,
2013-04-24 21:33:00,44.4,22.8,30.28,SE,136,0.0,0.0,42,0.00,,---,0.04,VWS V14.01,2013-04-25 03:33:00,
2013-04-24 21:34:00,44.3,23.2,30.28,SE,136,0.0,0.0,43,0.00,,---,0.04,VWS V14.01,2013-04-25 03:34:00,
2013-04-24 21:35:00,44.3,23.2,30.28,SE,136,0.0,0.0,43,0.00,,---,0.04,VWS V14.01,2013-04-25 03:35:00,
2013-04-24 21:36:00,44.2,23.1,30.28,SE,136,0.0,0.0,43,0.00,,---,0.04,VWS V14.01,2013-04-25 03:36:00,
2013-04-24 21:37:00,44.2,23.1,30.28,SE,136,0.0,0.0,43,0.00,,---,0.04,VWS V14.01,2013-04-25 03:37:00,
2013-04-24 21:38:00,44.1,23.0,30.28,SE,136,0.0,1.0,43,0.00,,---,0.04,VWS V14.01,2013-04-25 03:38:00,
2013-04-24 21:39:00,44.1,23.0,30.28,SE,136,0.0,0.0,43,0.00,,---,0.04,VWS V14.01,2013-04-25 03:39:00,
2013-04-24 21:40:00,44.1,23.0,30.28,SE,136,0.0,0.0,43,0.00,,---,0.04,VWS V14.01,2013-04-25 03:40:00,
2013-04-24 21:41:00,44.0,23.0,30.28,SE,136,0.0,0.0,43,0.00,,---,0.04,VWS V14.01,2013-04-25 03:41:00,
2013-04-24 21:42:00,43.9,22.9,30.28,SE,136,0.0,0.0,43,0.00,,---,0.04,VWS V14.01,2013-04-25 03:42:00,
2013-04-24 21:43:00,43.9,22.9,30.28,SE,136,0.0,0.0,43,0.00,,---,0.04,VWS V14.01,2013-04-25 03:43:00,
2013-04-24 21:44:00,43.8,23.3,30.29,SE,136,0.0,0.0,44,0.00,,---,0.04,VWS V14.01,2013-04-25 03:44:00,
2013-04-24 21:45:00,43.8,23.3,30.29,SE,136,0.0,0.0,44,0.00,,---,0.04,VWS V14.01,2013-04-25 03:45:00,
2013-04-24 21:46:00,43.7,23.2,30.29,SE,136,0.0,0.0,44,0.00,,---,0.04,VWS V14.01,2013-04-25 03:46:00,
2013-04-24 21:47:00,43.7,23.2,30.29,SE,136,0.0,0.0,44,0.00,,---,0.04,VWS V14.01,2013-04-25 03:47:00,
2013-04-24 21:48:00,43.6,23.1,30.29,SE,136,0.0,0.0,44,0.00,,---,0.04,VWS V14.01,2013-04-25 03:48:00,
2013-04-24 21:49:00,43.6,23.1,30.29,SE,136,0.0,0.0,44,0.00,,---,0.04,VWS V14.01,2013-04-25 03:49:00,
2013-04-24 21:50:00,43.5,23.0,30.29,SE,136,0.0,0.0,44,0.00,,---,0.04,VWS V14.01,2013-04-25 03:50:00,
2013-04-24 21:51:00,43.5,23.0,30.29,SE,136,0.0,0.0,44,0.00,,---,0.04,VWS V14.01,2013-04-25 03:51:00,
2013-04-24 21:52:00,43.4,23.0,30.29,SE,136,0.0,0.0,44,0.00,,---,0.04,VWS V14.01,2013-04-25 03:52:00,
2013-04-24 21:53:00,43.4,23.5,30.29,SE,136,0.0,0.0,45,0.00,,---,0.04,VWS V14.01,2013-04-25 03:53:00,
2013-04-24 21:54:00,43.3,22.9,30.29,SE,136,0.0,0.0,44,0.00,,---,0.04,VWS V14.01,2013-04-25 03:54:00,
2013-04-24 21:55:00,43.3,23.4,30.29,SE,136,0.0,0.0,45,0.00,,---,0.04,VWS V14.01,2013-04-25 03:55:00,
2013-04-24 21:56:00,43.2,23.3,30.29,SE,136,0.0,0.0,45,0.00,,---,0.04,VWS V14.01,2013-04-25 03:56:00,
2013-04-24 21:57:00,43.2,23.3,30.29,SE,136,0.0,0.0,45,0.00,,---,0.04,VWS V14.01,2013-04-25 03:57:00,
2013-04-24 21:58:00,43.1,23.2,30.29,SE,136,0.0,0.0,45,0.00,,---,0.04,VWS V14.01,2013-04-25 03:58:00,
2013-04-24 21:59:00,43.1,23.2,30.29,SE,136,0.0,0.0,45,0.00,,---,0.04,VWS V14.01,2013-04-25 03:59:00,
2013-04-24 22:00:00,43.0,23.1,30.29,SE,136,0.0,0.0,45,0.00,,---,0.04,VWS V14.01,2013-04-25 04:00:00,
2013-04-24 22:01:00,43.0,23.1,30.29,SE,136,0.0,0.0,45,0.00,,---,0.04,VWS V14.01,2013-04-25 04:01:00,
2013-04-24 22:02:00,42.9,23.0,30.29,SE,136,0.0,0.0,45,0.00,,---,0.04,VWS V14.01,2013-04-25 04:02:00,
2013-04-24 22:03:00,42.9,23.0,30.29,SE,136,0.0,0.0,45,0.00,,---,0.04,VWS V14.01,2013-04-25 04:03:00,
2013-04-24 22:04:00,42.9,23.0,30.29,SE,136,0.0,0.0,45,0.00,,---,0.04,VWS V14.01,2013-04-25 04:04:00,
2013-04-24 22:05:00,42.8,23.0,30.29,SE,136,0.0,0.0,45,0.00,,---,0.04,VWS V14.01,2013-04-25 04:05:00,
2013-04-24 22:06:00,42.8,23.5,30.28,SE,136,0.0,0.0,46,0.00,,---,0.04,VWS V14.01,2013-04-25 04:06:00,
2013-04-24 22:07:00,42.7,23.4,30.28,SE,136,0.0,0.0,46,0.00,,---,0.04,VWS V14.01,2013-04-25 04:07:00,
2013-04-24 22:08:00,42.7,23.4,30.29,SE,136,0.0,0.0,46,0.00,,---,0.04,VWS V14.01,2013-04-25 04:08:00,
2013-04-24 22:09:00,42.7,23.4,30.28,SE,136,0.0,0.0,46,0.00,,---,0.04,VWS V14.01,2013-04-25 04:09:00,
2013-04-24 22:10:00,42.6,23.3,30.28,SE,136,0.0,0.0,46,0.00,,---,0.04,VWS V14.01,2013-04-25 04:10:00,
2013-04-24 22:11:00,42.6,23.3,30.29,SE,136,0.0,0.0,46,0.00,,---,0.04,VWS V14.01,2013-04-25 04:11:00,
2013-04-24 22:12:00,42.6,23.3,30.29,SE,136,0.0,0.0,46,0.00,,---,0.04,VWS V14.01,2013-04-25 04:12:00,
2013-04-24 22:13:00,42.5,23.2,30.28,SE,136,0.0,0.0,46,0.00,,---,0.04,VWS V14.01,2013-04-25 04:13:00,
2013-04-24 22:14:00,42.5,23.2,30.28,SE,136,0.0,0.0,46,0.00,,---,0.04,VWS V14.01,2013-04-25 04:14:00,
2013-04-24 22:15:00,42.5,23.2,30.28,SE,136,0.0,0.0,46,0.00,,---,0.04,VWS V14.01,2013-04-25 04:15:00,
2013-04-24 22:16:00,42.5,23.2,30.28,SE,136,0.0,0.0,46,0.00,,---,0.04,VWS V14.01,2013-04-25 04:16:00,
2013-04-24 22:17:00,42.5,23.2,30.28,SE,136,0.0,0.0,46,0.00,,---,0.04,VWS V14.01,2013-04-25 04:17:00,
2013-04-24 22:18:00,42.4,23.6,30.28,SE,136,0.0,0.0,47,0.00,,---,0.04,VWS V14.01,2013-04-25 04:18:00,
2013-04-24 22:19:00,42.4,23.6,30.28,SE,136,0.0,0.0,47,0.00,,---,0.04,VWS V14.01,2013-04-25 04:19:00,
2013-04-24 22:20:00,42.4,23.6,30.28,SE,136,0.0,0.0,47,0.00,,---,0.04,VWS V14.01,2013-04-25 04:20:00,
2013-04-24 22:21:00,42.3,23.5,30.28,SE,136,1.0,2.0,47,0.00,,---,0.04,VWS V14.01,2013-04-25 04:21:00,
2013-04-24 22:22:00,42.3,23.5,30.28,SE,136,0.0,2.0,47,0.00,,---,0.04,VWS V14.01,2013-04-25 04:22:00,
2013-04-24 22:23:00,42.3,23.5,30.28,SE,136,0.0,0.0,47,0.00,,---,0.04,VWS V14.01,2013-04-25 04:23:00,
2013-04-24 22:24:00,42.3,23.5,30.28,SE,136,0.0,0.0,47,0.00,,---,0.04,VWS V14.01,2013-04-25 04:24:00,
2013-04-24 22:25:00,42.3,23.5,30.28,SE,136,0.0,0.0,47,0.00,,---,0.04,VWS V14.01,2013-04-25 04:25:00,
2013-04-24 22:26:00,42.3,23.5,30.28,SE,136,0.0,0.0,47,0.00,,---,0.04,VWS V14.01,2013-04-25 04:26:00,
2013-04-24 22:27:00,42.2,23.4,30.28,SE,136,0.0,0.0,47,0.00,,---,0.04,VWS V14.01,2013-04-25 04:27:00,
2013-04-24 22:28:00,42.2,23.4,30.28,SE,136,0.0,0.0,47,0.00,,---,0.04,VWS V14.01,2013-04-25 04:28:00,
2013-04-24 22:29:00,42.2,23.9,30.28,SE,136,0.0,0.0,48,0.00,,---,0.04,VWS V14.01,2013-04-25 04:29:00,
2013-04-24 22:30:00,42.2,23.9,30.28,SE,136,0.0,0.0,48,0.00,,---,0.04,VWS V14.01,2013-04-25 04:30:00,
2013-04-24 22:31:00,42.1,23.8,30.28,SE,136,0.0,0.0,48,0.00,,---,0.04,VWS V14.01,2013-04-25 04:31:00,
2013-04-24 22:32:00,42.0,23.8,30.28,SE,136,0.0,0.0,48,0.00,,---,0.04,VWS V14.01,2013-04-25 04:32:00,
2013-04-24 22:33:00,42.0,23.8,30.28,SE,136,0.0,0.0,48,0.00,,---,0.04,VWS V14.01,2013-04-25 04:33:00,
2013-04-24 22:34:00,42.0,23.8,30.28,SE,136,0.0,0.0,48,0.00,,---,0.04,VWS V14.01,2013-04-25 04:34:00,
2013-04-24 22:35:00,42.0,23.8,30.28,SE,136,0.0,0.0,48,0.00,,---,0.04,VWS V14.01,2013-04-25 04:35:00,
2013-04-24 22:36:00,41.9,23.7,30.28,SE,136,0.0,0.0,48,0.00,,---,0.04,VWS V14.01,2013-04-25 04:36:00,
2013-04-24 22:37:00,41.9,23.7,30.28,SE,136,0.0,0.0,48,0.00,,---,0.04,VWS V14.01,2013-04-25 04:37:00,
2013-04-24 22:38:00,41.9,23.7,30.28,SE,136,0.0,0.0,48,0.00,,---,0.04,VWS V14.01,2013-04-25 04:38:00,
2013-04-24 22:39:00,41.9,23.7,30.28,SE,136,0.0,0.0,48,0.00,,---,0.04,VWS V14.01,2013-04-25 04:39:00,
2013-04-24 22:40:00,41.9,23.7,30.28,SE,136,0.0,0.0,48,0.00,,---,0.04,VWS V14.01,2013-04-25 04:40:00,
2013-04-24 22:41:00,41.8,23.6,30.28,SE,136,0.0,0.0,48,0.00,,---,0.04,VWS V14.01,2013-04-25 04:41:00,
2013-04-24 22:42:00,41.8,23.6,30.28,SE,136,0.0,0.0,48,0.00,,---,0.04,VWS V14.01,2013-04-25 04:42:00,
2013-04-24 22:43:00,41.7,23.5,30.27,SE,136,0.0,0.0,48,0.00,,---,0.04,VWS V14.01,2013-04-25 04:43:00,
2013-04-24 22:44:00,41.7,23.5,30.27,SE,136,0.0,0.0,48,0.00,,---,0.04,VWS V14.01,2013-04-25 04:44:00,
2013-04-24 22:45:00,41.7,24.0,30.27,SE,136,0.0,0.0,49,0.00,,---,0.04,VWS V14.01,2013-04-25 04:45:00,
2013-04-24 22:46:00,41.6,23.9,30.27,SE,136,0.0,0.0,49,0.00,,---,0.04,VWS V14.01,2013-04-25 04:46:00,
2013-04-24 22:47:00,41.6,23.9,30.27,SE,136,0.0,0.0,49,0.00,,---,0.04,VWS V14.01,2013-04-25 04:47:00,
2013-04-24 22:48:00,41.6,23.9,30.27,SE,136,0.0,0.0,49,0.00,,---,0.04,VWS V14.01,2013-04-25 04:48:00,
2013-04-24 22:49:00,41.5,23.8,30.27,SE,136,0.0,0.0,49,0.00,,---,0.04,VWS V14.01,2013-04-25 04:49:00,
2013-04-24 22:50:00,41.5,23.8,30.27,SE,136,0.0,0.0,49,0.00,,---,0.04,VWS V14.01,2013-04-25 04:50:00,
2013-04-24 22:51:00,41.4,23.7,30.27,SE,136,0.0,0.0,49,0.00,,---,0.04,VWS V14.01,2013-04-25 04:51:00,
2013-04-24 22:52:00,41.4,23.7,30.27,SE,136,0.0,0.0,49,0.00,,---,0.04,VWS V14.01,2013-04-25 04:52:00,
2013-04-24 22:53:00,41.4,24.2,30.27,SE,136,0.0,0.0,50,0.00,,---,0.04,VWS V14.01,2013-04-25 04:53:00,
2013-04-24 22:54:00,41.3,23.6,30.27,SE,136,0.0,0.0,49,0.00,,---,0.04,VWS V14.01,2013-04-25 04:54:00,
2013-04-24 22:55:00,41.3,24.1,30.27,SE,136,0.0,0.0,50,0.00,,---,0.04,VWS V14.01,2013-04-25 04:55:00,
2013-04-24 22:56:00,41.2,24.0,30.27,SE,136,0.0,0.0,50,0.00,,---,0.04,VWS V14.01,2013-04-25 04:56:00,
2013-04-24 22:57:00,41.2,24.0,30.27,SE,136,0.0,0.0,50,0.00,,---,0.04,VWS V14.01,2013-04-25 04:57:00,
2013-04-24 22:58:00,41.1,23.9,30.27,SE,136,0.0,0.0,50,0.00,,---,0.04,VWS V14.01,2013-04-25 04:58:00,
2013-04-24 22:59:00,41.1,23.9,30.27,SE,136,0.0,0.0,50,0.00,,---,0.04,VWS V14.01,2013-04-25 04:59:00,
2013-04-24 23:00:00,41.1,23.9,30.27,SE,136,0.0,0.0,50,0.00,,---,0.04,VWS V14.01,2013-04-25 05:00:00,
2013-04-24 23:01:00,41.0,23.8,30.26,SE,136,0.0,0.0,50,0.00,,---,0.04,VWS V14.01,2013-04-25 05:01:00,
2013-04-24 23:02:00,41.0,23.8,30.26,SE,136,0.0,0.0,50,0.00,,---,0.04,VWS V14.01,2013-04-25 05:02:00,
2013-04-24 23:03:00,40.9,23.7,30.26,SE,136,0.0,0.0,50,0.00,,---,0.04,VWS V14.01,2013-04-25 05:03:00,
2013-04-24 23:04:00,40.8,24.1,30.26,SE,136,0.0,0.0,51,0.00,,---,0.04,VWS V14.01,2013-04-25 05:04:00,
2013-04-24 23:05:00,40.8,23.6,30.26,SE,136,0.0,0.0,50,0.00,,---,0.04,VWS V14.01,2013-04-25 05:05:00,
2013-04-24 23:06:00,40.7,24.0,30.26,SE,136,0.0,0.0,51,0.00,,---,0.04,VWS V14.01,2013-04-25 05:06:00,
2013-04-24 23:07:00,40.7,24.0,30.26,SE,136,0.0,0.0,51,0.00,,---,0.04,VWS V14.01,2013-04-25 05:07:00,
2013-04-24 23:08:00,40.6,23.9,30.26,SE,136,0.0,0.0,51,0.00,,---,0.04,VWS V14.01,2013-04-25 05:08:00,
2013-04-24 23:09:00,40.6,23.9,30.25,SE,136,0.0,0.0,51,0.00,,---,0.04,VWS V14.01,2013-04-25 05:09:00,
2013-04-24 23:10:00,40.5,23.8,30.25,SE,136,0.0,0.0,51,0.00,,---,0.04,VWS V14.01,2013-04-25 05:10:00,
2013-04-24 23:11:00,40.5,23.8,30.25,SE,136,0.0,0.0,51,0.00,,---,0.04,VWS V14.01,2013-04-25 05:11:00,
2013-04-24 23:12:00,40.5,23.8,30.25,SE,136,0.0,0.0,51,0.00,,---,0.04,VWS V14.01,2013-04-25 05:12:00,
2013-04-24 23:13:00,40.4,23.7,30.25,SE,136,0.0,0.0,51,0.00,,---,0.04,VWS V14.01,2013-04-25 05:13:00,
2013-04-24 23:14:00,40.4,23.7,30.25,SE,136,0.0,0.0,51,0.00,,---,0.04,VWS V14.01,2013-04-25 05:14:00,
2013-04-24 23:15:00,40.3,23.6,30.25,SE,136,0.0,0.0,51,0.00,,---,0.04,VWS V14.01,2013-04-25 05:15:00,
2013-04-24 23:16:00,40.3,23.6,30.25,SE,136,0.0,0.0,51,0.00,,---,0.04,VWS V14.01,2013-04-25 05:16:00,
2013-04-24 23:17:00,40.3,23.6,30.25,SE,136,0.0,0.0,51,0.00,,---,0.04,VWS V14.01,2013-04-25 05:17:00,
2013-04-24 23:18:00,40.2,23.5,30.25,SE,136,0.0,0.0,51,0.00,,---,0.04,VWS V14.01,2013-04-25 05:18:00,
2013-04-24 23:19:00,40.2,23.5,30.25,SE,136,0.0,0.0,51,0.00,,---,0.04,VWS V14.01,2013-04-25 05:19:00,
2013-04-24 23:20:00,40.2,23.5,30.25,SE,136,0.0,0.0,51,0.00,,---,0.04,VWS V14.01,2013-04-25 05:20:00,
2013-04-24 23:21:00,40.1,23.4,30.25,SE,136,0.0,0.0,51,0.00,,---,0.04,VWS V14.01,2013-04-25 05:21:00,
2013-04-24 23:22:00,40.1,23.4,30.25,SE,136,0.0,0.0,51,0.00,,---,0.04,VWS V14.01,2013-04-25 05:22:00,
2013-04-24 23:23:00,40.1,23.4,30.25,SE,136,0.0,0.0,51,0.00,,---,0.04,VWS V14.01,2013-04-25 05:23:00,
2013-04-24 23:24:00,40.1,23.4,30.25,SE,136,0.0,0.0,51,0.00,,---,0.04,VWS V14.01,2013-04-25 05:24:00,
2013-04-24 23:25:00,40.0,23.4,30.25,SE,136,0.0,0.0,51,0.00,,---,0.04,VWS V14.01,2013-04-25 05:25:00,
2013-04-24 23:26:00,40.0,23.4,30.25,SE,136,0.0,0.0,51,0.00,,---,0.04,VWS V14.01,2013-04-25 05:26:00,
2013-04-24 23:27:00,40.0,23.4,30.25,SE,136,0.0,0.0,51,0.00,,---,0.04,VWS V14.01,2013-04-25 05:27:00,
2013-04-24 23:28:00,40.0,23.4,30.25,SE,136,0.0,0.0,51,0.00,,---,0.04,VWS V14.01,2013-04-25 05:28:00,
2013-04-24 23:29:00,39.9,23.3,30.25,SE,136,0.0,0.0,51,0.00,,---,0.04,VWS V14.01,2013-04-25 05:29:00,
2013-04-24 23:30:00,39.9,23.3,30.25,SE,136,0.0,0.0,51,0.00,,---,0.04,VWS V14.01,2013-04-25 05:30:00,
2013-04-24 23:31:00,39.8,23.2,30.25,SE,136,0.0,0.0,51,0.00,,---,0.04,VWS V14.01,2013-04-25 05:31:00,
2013-04-24 23:32:00,39.8,23.2,30.25,SE,136,0.0,0.0,51,0.00,,---,0.04,VWS V14.01,2013-04-25 05:32:00,
2013-04-24 23:33:00,39.8,23.2,30.24,SE,136,0.0,0.0,51,0.00,,---,0.04,VWS V14.01,2013-04-25 05:33:00,
2013-04-24 23:34:00,39.7,23.5,30.24,SE,136,0.0,0.0,52,0.00,,---,0.04,VWS V14.01,2013-04-25 05:34:00,
2013-04-24 23:35:00,39.7,23.5,30.24,SE,136,0.0,0.0,52,0.00,,---,0.04,VWS V14.01,2013-04-25 05:35:00,
2013-04-24 23:36:00,39.6,23.4,30.24,SE,136,0.0,0.0,52,0.00,,---,0.04,VWS V14.01,2013-04-25 05:36:00,
2013-04-24 23:37:00,39.6,23.4,30.24,SE,136,0.0,0.0,52,0.00,,---,0.04,VWS V14.01,2013-04-25 05:37:00,
2013-04-24 23:38:00,39.6,23.4,30.25,SE,136,0.0,0.0,52,0.00,,---,0.04,VWS V14.01,2013-04-25 05:38:00,
2013-04-24 23:39:00,39.5,23.4,30.25,SE,136,0.0,0.0,52,0.00,,---,0.04,VWS V14.01,2013-04-25 05:39:00,
2013-04-24 23:40:00,39.5,23.4,30.24,SE,136,0.0,0.0,52,0.00,,---,0.04,VWS V14.01,2013-04-25 05:40:00,
2013-04-24 23:41:00,39.4,23.2,30.24,SE,136,0.0,0.0,52,0.00,,---,0.04,VWS V14.01,2013-04-25 05:41:00,
2013-04-24 23:42:00,39.3,23.2,30.24,SE,136,0.0,0.0,52,0.01,,---,0.05,VWS V14.01,2013-04-25 05:42:00,
2013-04-24 23:43:00,39.3,23.2,30.25,SE,136,0.0,0.0,52,0.01,,---,0.05,VWS V14.01,2013-04-25 05:43:00,
2013-04-24 23:44:00,39.2,23.5,30.24,SE,136,0.0,0.0,53,0.01,,---,0.05,VWS V14.01,2013-04-25 05:44:00,
2013-04-24 23:45:00,39.2,23.5,30.24,SE,136,0.0,0.0,53,0.01,,---,0.05,VWS V14.01,2013-04-25 05:45:00,
2013-04-24 23:46:00,39.1,23.4,30.24,SE,136,0.0,0.0,53,0.01,,---,0.05,VWS V14.01,2013-04-25 05:46:00,
2013-04-24 23:47:00,39.1,23.4,30.24,SE,136,0.0,0.0,53,0.01,,---,0.05,VWS V14.01,2013-04-25 05:47:00,
2013-04-24 23:48:00,39.1,23.4,30.24,SE,136,0.0,0.0,53,0.01,,---,0.05,VWS V14.01,2013-04-25 05:48:00,
2013-04-24 23:49:00,39.0,23.8,30.24,SE,136,0.0,0.0,54,0.01,,---,0.05,VWS V14.01,2013-04-25 05:49:00,
2013-04-24 23:50:00,38.9,23.2,30.24,SE,136,0.0,0.0,53,0.01,,---,0.05,VWS V14.01,2013-04-25 05:50:00,
2013-04-24 23:51:00,38.9,23.7,30.24,SE,136,0.0,0.0,54,0.01,,---,0.05,VWS V14.01,2013-04-25 05:51:00,
2013-04-24 23:52:00,38.8,23.6,30.24,SE,136,0.0,0.0,54,0.01,,---,0.05,VWS V14.01,2013-04-25 05:52:00,
2013-04-24 23:53:00,38.8,23.6,30.24,SE,136,0.0,0.0,54,0.01,,---,0.05,VWS V14.01,2013-04-25 05:53:00,
2013-04-24 23:54:00,38.7,23.5,30.24,SE,136,0.0,0.0,54,0.01,,---,0.05,VWS V14.01,2013-04-25 05:54:00,
2013-04-24 23:55:00,38.7,23.5,30.24,SE,136,0.0,0.0,54,0.01,,---,0.05,VWS V14.01,2013-04-25 05:55:00,
2013-04-24 23:56:00,38.6,23.4,30.24,SE,136,0.0,0.0,54,0.01,,---,0.05,VWS V14.01,2013-04-25 05:56:00,
2013-04-24 23:57:00,38.6,23.4,30.24,SE,136,0.0,0.0,54,0.01,,---,0.05,VWS V14.01,2013-04-25 05:57:00,
2013-04-24 23:58:00,38.5,23.3,30.24,SE,136,0.0,0.0,54,0.01,,---,0.05,VWS V14.01,2013-04-25 05:58:00,
2013-04-24 23:59:00,38.5,23.3,30.24,SE,136,0.0,0.0,54,0.01,,---,0.05,VWS V14.01,2013-04-25 05:59:00,